[[{"header":{"parameterUnit":"m.s-1","parameterCategory":1,"la1":30.6,"la2":29.2853,"lo1":-89.7004,"lo2":-87.6739,"dy":0.0162,"dx":0.0183,"nx":112,"ny":82,"refTime":"2024-04-22T12:00:00:Z","depth":0,"parameterNumber":2,"parameterNumberName":"U-component_of_WINDS"},"data":[0.0,0.0,0.0,0.0,0.0,0.0,0.0,0.0,0.0,0.0,0.0,0.0,0.0,0.0,0.0,0.0,0.0,0.0,0.0,0.0,0.0,0.0,0.0,0.0,0.0,0.0,0.0,0.0,0.0,0.0,0.0,0.0,0.0,0.0,0.0,0.0,0.0,0.0,0.0,0.0,0.0,0.0,0.0,0.0,0.0,0.0,0.0,0.0,0.0,0.0,0.0,0.0,0.0,0.0,0.0,0.0,0.0,0.0,0.0,0.0,0.0,0.0,0.0,0.0,0.0,0.0,0.0,0.0,0.0,0.0,0.0,0.0,0.0,0.0,0.0,0.0,0.0,0.0,0.0,0.0,0.0,0.0,0.0,0.0,0.0,0.0,0.0,0.0,0.0,0.0,0.0,-3.571,-3.4986,-3.458,-3.4659,-3.458,-3.4528,-3.4528,0.0,0.0,0.0,0.0,0.0,0.0,0.0,0.0,0.0,0.0,0.0,0.0,0.0,0.0,0.0,0.0,0.0,0.0,0.0,0.0,0.0,0.0,0.0,0.0,0.0,0.0,0.0,0.0,0.0,0.0,0.0,0.0,0.0,0.0,0.0,0.0,0.0,0.0,0.0,0.0,0.0,0.0,0.0,0.0,0.0,0.0,0.0,0.0,0.0,0.0,0.0,0.0,0.0,0.0,0.0,0.0,0.0,0.0,0.0,0.0,0.0,0.0,0.0,0.0,0.0,0.0,0.0,0.0,0.0,0.0,0.0,0.0,0.0,0.0,0.0,0.0,0.0,0.0,0.0,0.0,0.0,0.0,0.0,0.0,0.0,0.0,0.0,0.0,0.0,0.0,0.0,0.0,0.0,0.0,0.0,0.0,0.0,0.0,0.0,0.0,0.0,0.0,0.0,0.0,-3.65,-3.5458,-3.5241,-3.5338,-3.5809,-3.5417,-3.5155,-3.5155,0.0,0.0,0.0,0.0,0.0,0.0,0.0,0.0,0.0,0.0,0.0,0.0,0.0,0.0,0.0,0.0,0.0,0.0,0.0,0.0,0.0,0.0,0.0,0.0,0.0,0.0,0.0,0.0,0.0,0.0,0.0,0.0,0.0,0.0,0.0,0.0,0.0,0.0,0.0,0.0,0.0,0.0,0.0,0.0,0.0,0.0,0.0,0.0,0.0,0.0,0.0,0.0,0.0,0.0,0.0,0.0,0.0,0.0,0.0,0.0,0.0,0.0,0.0,0.0,0.0,0.0,0.0,0.0,0.0,0.0,0.0,0.0,0.0,0.0,0.0,0.0,0.0,0.0,0.0,0.0,0.0,0.0,0.0,0.0,0.0,0.0,0.0,0.0,0.0,0.0,0.0,0.0,0.0,0.0,0.0,0.0,0.0,0.0,0.0,0.0,0.0,0.0,0.0,-3.6852,-3.6282,-3.5791,-3.573,-3.5835,-3.6096,-3.5887,-3.573,-3.573,-3.5469,0.0,0.0,0.0,0.0,0.0,0.0,0.0,0.0,0.0,0.0,0.0,0.0,0.0,0.0,0.0,0.0,0.0,0.0,0.0,0.0,0.0,0.0,0.0,0.0,0.0,0.0,0.0,0.0,0.0,0.0,0.0,0.0,0.0,0.0,0.0,0.0,0.0,0.0,0.0,0.0,0.0,0.0,0.0,0.0,0.0,0.0,0.0,0.0,0.0,0.0,0.0,0.0,0.0,0.0,0.0,0.0,0.0,0.0,0.0,0.0,0.0,0.0,0.0,0.0,0.0,0.0,0.0,0.0,0.0,0.0,0.0,0.0,0.0,0.0,0.0,0.0,0.0,0.0,0.0,0.0,0.0,0.0,0.0,0.0,0.0,0.0,0.0,0.0,0.0,0.0,0.0,0.0,0.0,0.0,0.0,0.0,0.0,0.0,0.0,0.0,0.0,0.0,-3.7234,-3.6149,-3.6305,-3.6305,-3.6384,-3.6515,-3.641,-3.6305,-3.6305,-3.6175,0.0,0.0,0.0,0.0,0.0,0.0,0.0,0.0,0.0,0.0,0.0,0.0,0.0,0.0,0.0,0.0,0.0,0.0,0.0,0.0,0.0,0.0,0.0,0.0,0.0,0.0,0.0,0.0,0.0,0.0,0.0,0.0,0.0,0.0,0.0,0.0,0.0,0.0,0.0,0.0,0.0,0.0,0.0,0.0,0.0,0.0,0.0,0.0,0.0,0.0,0.0,0.0,0.0,0.0,0.0,0.0,0.0,0.0,0.0,0.0,0.0,0.0,0.0,0.0,0.0,0.0,0.0,0.0,0.0,0.0,0.0,0.0,0.0,0.0,0.0,0.0,0.0,0.0,0.0,0.0,0.0,0.0,0.0,0.0,0.0,0.0,0.0,0.0,0.0,0.0,0.0,0.0,0.0,0.0,0.0,0.0,0.0,0.0,0.0,0.0,0.0,0.0,-3.7234,-3.6305,-3.6881,-3.6933,-3.7168,-3.7743,-3.7273,-3.6933,-3.6933,-3.641,0.0,0.0,0.0,0.0,0.0,0.0,0.0,0.0,0.0,0.0,0.0,0.0,0.0,0.0,0.0,0.0,0.0,0.0,0.0,0.0,0.0,0.0,0.0,0.0,0.0,0.0,0.0,0.0,0.0,0.0,0.0,0.0,0.0,0.0,0.0,0.0,0.0,0.0,0.0,0.0,0.0,0.0,0.0,0.0,0.0,0.0,0.0,0.0,0.0,0.0,0.0,0.0,0.0,0.0,0.0,0.0,0.0,0.0,0.0,0.0,0.0,0.0,0.0,0.0,0.0,0.0,0.0,0.0,0.0,0.0,0.0,0.0,0.0,0.0,0.0,0.0,0.0,0.0,0.0,0.0,0.0,0.0,0.0,0.0,0.0,0.0,0.0,0.0,0.0,0.0,0.0,0.0,0.0,0.0,0.0,0.0,0.0,0.0,0.0,0.0,0.0,0.0,-3.9179,-3.8113,0.0,-3.7896,-3.7665,-3.7874,-3.7691,-3.756,-3.756,0.0,0.0,0.0,0.0,0.0,0.0,0.0,0.0,0.0,0.0,0.0,0.0,0.0,0.0,0.0,0.0,0.0,0.0,0.0,0.0,0.0,0.0,0.0,0.0,0.0,0.0,0.0,0.0,0.0,0.0,0.0,0.0,0.0,0.0,0.0,0.0,0.0,0.0,0.0,0.0,0.0,0.0,0.0,0.0,0.0,0.0,0.0,0.0,0.0,0.0,0.0,0.0,0.0,0.0,0.0,0.0,0.0,0.0,0.0,0.0,0.0,0.0,0.0,0.0,0.0,0.0,0.0,0.0,0.0,0.0,0.0,0.0,0.0,0.0,0.0,0.0,0.0,0.0,0.0,0.0,0.0,0.0,0.0,0.0,0.0,0.0,0.0,0.0,0.0,0.0,0.0,0.0,0.0,0.0,0.0,0.0,0.0,0.0,0.0,0.0,0.0,0.0,-4.1791,-4.0451,-3.9429,0.0,-3.8767,-3.8449,-3.8449,-3.8266,-3.8161,-3.8161,0.0,0.0,0.0,0.0,0.0,0.0,0.0,0.0,0.0,0.0,0.0,0.0,0.0,0.0,0.0,0.0,0.0,0.0,0.0,0.0,0.0,0.0,0.0,0.0,0.0,0.0,0.0,0.0,0.0,0.0,0.0,0.0,0.0,0.0,0.0,0.0,0.0,0.0,0.0,0.0,0.0,0.0,0.0,0.0,0.0,0.0,0.0,0.0,0.0,0.0,0.0,0.0,0.0,0.0,0.0,0.0,0.0,0.0,0.0,0.0,0.0,0.0,0.0,0.0,0.0,0.0,0.0,0.0,0.0,0.0,0.0,0.0,0.0,0.0,0.0,0.0,0.0,0.0,0.0,0.0,0.0,0.0,0.0,0.0,0.0,0.0,0.0,0.0,0.0,0.0,0.0,0.0,0.0,0.0,0.0,0.0,0.0,0.0,0.0,0.0,0.0,0.0,-4.159,-4.0718,-4.0037,-3.969,-3.9599,-3.9599,-3.9599,-3.905,-3.871,0.0,0.0,0.0,0.0,0.0,0.0,0.0,0.0,0.0,0.0,0.0,0.0,0.0,0.0,0.0,0.0,0.0,0.0,0.0,0.0,0.0,0.0,0.0,0.0,0.0,0.0,0.0,0.0,0.0,0.0,0.0,0.0,0.0,0.0,0.0,0.0,0.0,0.0,0.0,0.0,0.0,0.0,0.0,0.0,0.0,0.0,0.0,0.0,0.0,0.0,0.0,0.0,0.0,0.0,0.0,0.0,0.0,0.0,0.0,0.0,0.0,0.0,0.0,0.0,0.0,0.0,0.0,0.0,0.0,0.0,0.0,0.0,0.0,0.0,0.0,0.0,0.0,0.0,0.0,0.0,0.0,0.0,0.0,0.0,0.0,0.0,0.0,0.0,0.0,0.0,0.0,0.0,0.0,0.0,0.0,0.0,0.0,0.0,0.0,0.0,0.0,0.0,0.0,-4.4137,-4.3358,-4.2499,-4.1736,-4.1028,-4.0354,-3.9647,-3.9442,-3.9337,-3.9337,0.0,0.0,0.0,0.0,0.0,0.0,0.0,0.0,0.0,0.0,0.0,0.0,0.0,0.0,0.0,0.0,0.0,0.0,0.0,0.0,0.0,0.0,0.0,0.0,0.0,0.0,0.0,0.0,0.0,0.0,0.0,0.0,0.0,0.0,0.0,0.0,0.0,0.0,0.0,0.0,0.0,0.0,0.0,0.0,0.0,0.0,0.0,0.0,0.0,0.0,0.0,0.0,0.0,0.0,0.0,0.0,0.0,0.0,0.0,0.0,0.0,0.0,0.0,0.0,0.0,0.0,0.0,0.0,0.0,0.0,0.0,0.0,0.0,0.0,0.0,0.0,0.0,0.0,0.0,0.0,0.0,0.0,0.0,0.0,0.0,0.0,0.0,0.0,0.0,0.0,0.0,0.0,0.0,0.0,0.0,0.0,0.0,0.0,0.0,0.0,0.0,0.0,-4.5069,-4.4615,-4.3977,-4.3279,-4.2685,-4.1969,-4.0952,-4.067,-4.0346,-3.9939,0.0,0.0,0.0,0.0,0.0,0.0,0.0,0.0,0.0,0.0,0.0,0.0,0.0,0.0,0.0,0.0,0.0,0.0,0.0,0.0,0.0,0.0,0.0,0.0,0.0,0.0,0.0,0.0,0.0,0.0,0.0,0.0,0.0,0.0,0.0,0.0,0.0,0.0,0.0,0.0,0.0,0.0,0.0,0.0,0.0,0.0,0.0,0.0,0.0,0.0,0.0,0.0,0.0,0.0,0.0,0.0,0.0,0.0,0.0,0.0,0.0,0.0,0.0,0.0,0.0,0.0,0.0,0.0,0.0,0.0,0.0,0.0,0.0,0.0,0.0,0.0,0.0,0.0,0.0,0.0,0.0,0.0,0.0,0.0,0.0,0.0,0.0,0.0,0.0,0.0,0.0,0.0,0.0,0.0,0.0,0.0,0.0,0.0,0.0,0.0,0.0,0.0,-4.5069,-4.5083,-4.4931,-4.4489,-4.4359,-4.3918,-4.297,-4.2235,-4.1459,-4.0615,0.0,0.0,0.0,0.0,0.0,0.0,0.0,0.0,0.0,0.0,0.0,0.0,0.0,0.0,0.0,0.0,0.0,0.0,0.0,0.0,0.0,0.0,0.0,0.0,0.0,0.0,0.0,0.0,0.0,0.0,0.0,0.0,0.0,0.0,0.0,0.0,0.0,0.0,0.0,0.0,0.0,0.0,0.0,0.0,0.0,0.0,0.0,0.0,0.0,0.0,0.0,0.0,0.0,0.0,0.0,0.0,0.0,0.0,0.0,0.0,-4.7399,0.0,0.0,0.0,0.0,0.0,0.0,0.0,0.0,0.0,0.0,0.0,0.0,0.0,0.0,0.0,0.0,0.0,0.0,0.0,0.0,0.0,0.0,0.0,0.0,0.0,0.0,0.0,0.0,0.0,0.0,0.0,0.0,0.0,0.0,0.0,0.0,0.0,0.0,0.0,0.0,0.0,-4.681,-4.7213,-4.7007,-4.5627,-4.4776,-4.4085,-4.3519,-4.2225,-4.1547,-4.1819,-4.0827,0.0,0.0,0.0,0.0,0.0,0.0,0.0,0.0,0.0,0.0,0.0,0.0,0.0,0.0,0.0,0.0,0.0,0.0,0.0,0.0,0.0,0.0,0.0,0.0,0.0,0.0,0.0,0.0,0.0,0.0,0.0,0.0,0.0,0.0,0.0,0.0,0.0,0.0,0.0,0.0,0.0,0.0,0.0,0.0,0.0,0.0,0.0,0.0,0.0,0.0,0.0,0.0,0.0,0.0,0.0,0.0,0.0,0.0,0.0,0.0,-4.8237,0.0,0.0,0.0,0.0,0.0,0.0,0.0,0.0,0.0,0.0,0.0,0.0,0.0,0.0,0.0,0.0,0.0,0.0,0.0,0.0,0.0,0.0,0.0,0.0,0.0,0.0,0.0,0.0,0.0,0.0,0.0,0.0,0.0,0.0,0.0,0.0,0.0,0.0,0.0,0.0,-4.7788,-4.7788,-4.7493,-4.6624,-4.5598,-4.4751,-4.4076,-4.3035,-4.2375,-4.2185,-4.1585,0.0,0.0,0.0,0.0,0.0,0.0,0.0,0.0,0.0,0.0,0.0,0.0,0.0,0.0,0.0,0.0,0.0,0.0,0.0,0.0,0.0,0.0,0.0,0.0,0.0,0.0,0.0,0.0,0.0,0.0,0.0,0.0,0.0,0.0,0.0,0.0,0.0,0.0,0.0,0.0,0.0,0.0,0.0,0.0,0.0,0.0,0.0,0.0,0.0,0.0,0.0,0.0,0.0,-5.1498,-5.1558,-5.1528,-5.099,-5.0704,-5.0674,-5.0182,-4.9748,-4.9299,-4.9299,0.0,0.0,0.0,0.0,0.0,0.0,0.0,0.0,0.0,0.0,0.0,0.0,0.0,0.0,0.0,0.0,0.0,0.0,0.0,0.0,0.0,0.0,0.0,0.0,-4.5723,-4.5843,0.0,0.0,0.0,0.0,0.0,0.0,0.0,0.0,0.0,0.0,0.0,0.0,-4.8805,-4.8416,-4.8117,-4.7997,-4.6884,-4.5849,-4.5053,-4.419,-4.3389,-4.2577,-4.2421,-4.2108,0.0,0.0,0.0,0.0,0.0,0.0,0.0,0.0,0.0,0.0,0.0,0.0,0.0,0.0,0.0,0.0,0.0,0.0,0.0,0.0,0.0,0.0,0.0,0.0,0.0,0.0,0.0,0.0,0.0,0.0,0.0,0.0,-5.096,-5.096,0.0,0.0,0.0,0.0,0.0,0.0,0.0,0.0,0.0,0.0,0.0,0.0,0.0,-5.099,-5.1079,-5.1648,-5.1977,-5.2067,-5.2665,-5.2935,-5.2905,-5.2845,-5.2785,-5.2785,-5.2695,0.0,-4.9299,-4.9299,0.0,0.0,0.0,0.0,0.0,0.0,0.0,0.0,0.0,0.0,0.0,0.0,0.0,0.0,0.0,0.0,0.0,0.0,0.0,0.0,0.0,0.0,-4.6322,-4.692,-4.7489,-4.8057,0.0,-4.7399,-4.6352,-4.692,-4.7489,0.0,0.0,0.0,0.0,0.0,0.0,0.0,-5.09,-5.1259,-5.1349,-5.075,-4.8895,-4.7637,-4.7538,-4.5299,-4.3809,-4.3703,-4.318,-4.2866,-4.2788,-4.2239,0.0,0.0,0.0,0.0,0.0,0.0,0.0,0.0,0.0,0.0,0.0,0.0,0.0,0.0,0.0,0.0,0.0,0.0,0.0,0.0,0.0,0.0,0.0,0.0,0.0,0.0,0.0,0.0,0.0,-5.0973,-5.1229,-5.1229,-5.1229,-5.1229,0.0,0.0,0.0,0.0,0.0,0.0,0.0,0.0,0.0,-5.1768,-5.2127,-5.2306,-5.2306,-5.2606,-5.2755,-5.2755,-5.3054,-5.3174,-5.3174,-5.3174,-5.3174,-5.3174,-5.3174,-5.2516,-5.1486,-5.1079,-5.093,-5.084,0.0,0.0,0.0,0.0,-4.912,-4.888,-4.888,-4.8656,0.0,-4.8416,0.0,0.0,0.0,0.0,0.0,0.0,0.0,0.0,0.0,0.0,-4.8147,-4.8805,-4.9164,-4.9553,-5.0212,-4.9972,-4.9494,0.0,-4.9194,-4.9703,-5.075,0.0,0.0,0.0,0.0,-5.1409,-5.0704,-5.0601,-5.0451,-5.0152,-4.8221,-4.7094,-4.7431,-4.5523,-4.4356,-4.4356,-4.4121,-4.3833,-4.352,-4.2944,-4.2369,0.0,0.0,0.0,0.0,0.0,0.0,0.0,0.0,0.0,0.0,0.0,0.0,0.0,0.0,0.0,0.0,0.0,0.0,0.0,0.0,0.0,0.0,0.0,0.0,0.0,0.0,0.0,0.0,-5.1229,-5.1229,-5.1229,-5.1229,-5.1229,0.0,0.0,0.0,0.0,0.0,0.0,-5.1708,-5.2187,-5.2456,-5.2456,-5.3084,-5.3443,-5.3443,-5.3773,-5.3952,-5.3952,-5.4102,-5.4192,-5.4192,-5.4192,-5.4192,-5.4162,-5.4012,-5.3952,-5.3862,-5.2875,-5.2456,-5.2366,-5.1379,-5.099,-5.093,-5.0451,-5.0198,-5.0048,-5.0048,-4.9912,-4.9808,-4.9808,-4.9808,-4.9673,-4.9194,0.0,0.0,0.0,0.0,-4.9808,-4.9808,-4.9883,-5.0152,-5.0631,-5.0823,-5.1109,-5.1618,-5.2097,-5.2127,0.0,-5.0823,-5.1289,-5.2276,0.0,0.0,0.0,0.0,-5.2067,-5.1511,-5.1079,-5.0687,-5.0377,-4.8517,-4.7281,-4.7286,-4.5875,-4.4903,-4.4903,-4.48,-4.4591,-4.433,-4.3624,-4.3049,-4.2656,0.0,0.0,0.0,0.0,0.0,0.0,0.0,0.0,0.0,0.0,0.0,0.0,0.0,0.0,0.0,0.0,0.0,0.0,0.0,0.0,0.0,0.0,0.0,0.0,0.0,0.0,0.0,0.0,0.0,-5.1229,-5.1229,0.0,0.0,0.0,0.0,-5.2157,-5.2725,-5.3084,-5.3084,-5.3114,-5.3144,-5.3144,-5.3803,-5.4162,-5.4162,-5.5388,-5.6068,-5.6068,-5.6615,-5.6885,-5.6885,-5.6885,-5.6885,-5.6855,-5.6286,-5.6068,-5.5918,-5.3922,-5.3144,-5.3114,-5.3054,-5.3025,-5.3025,-5.2995,-5.2576,-5.2037,-5.2037,-5.1648,-5.1109,-5.1109,-5.1109,-5.1109,-5.1079,-5.1079,0.0,0.0,-5.1079,-5.1109,-5.1109,-5.1588,-5.2067,-5.2097,-5.2576,-5.3054,-5.3084,-5.3114,-5.2935,0.0,-5.2606,-5.3054,-5.3114,0.0,-5.4102,-5.4102,-5.461,-5.497,-5.494,-5.491,-5.4446,-5.3331,-5.1632,-4.99,-4.8273,-4.6537,-4.5529,-4.5529,-4.5036,-4.4903,-4.5506,-4.4434,-4.3807,-4.3834,-4.2761,0.0,0.0,0.0,0.0,0.0,0.0,0.0,0.0,0.0,0.0,0.0,0.0,0.0,0.0,0.0,0.0,0.0,0.0,0.0,0.0,0.0,0.0,0.0,0.0,0.0,0.0,0.0,0.0,-5.1858,-5.2217,0.0,-5.2486,-5.2695,-5.2815,-5.2815,-5.3054,-5.3384,-5.3832,-5.4251,-5.467,-5.5089,-5.5718,-5.6077,-5.6077,-5.6974,-5.7423,-5.7423,-5.8082,-5.8171,-5.7752,-5.7752,-5.7513,-5.7094,-5.6855,-5.6765,-5.6675,-5.5568,-5.461,-5.3803,-5.3354,-5.3174,-5.3174,-5.3174,-5.3025,-5.2815,-5.2815,-5.2665,-5.2486,-5.2486,-5.2486,-5.2486,-5.2486,-5.2486,-5.2486,-5.2486,-5.2486,-5.2486,-5.2486,-5.2665,-5.2935,-5.3384,-5.3683,-5.3952,-5.4371,-5.4461,-5.4401,-5.4162,-5.3982,-5.3982,-5.4401,-5.467,-5.47,-5.4281,-5.4401,-5.4401,-5.3952,-5.3892,-5.3466,-5.2297,-5.0981,-4.9763,-4.879,-4.7145,-4.6186,-4.6186,-4.5976,-4.5794,-4.5637,-4.5218,-4.5009,-4.5009,-4.4225,-4.3441,0.0,0.0,0.0,0.0,0.0,0.0,0.0,0.0,0.0,0.0,0.0,0.0,0.0,0.0,0.0,0.0,0.0,0.0,0.0,0.0,0.0,0.0,0.0,0.0,0.0,0.0,-5.2546,-5.2546,-5.2905,-5.3174,-5.3174,-5.3593,-5.3862,-5.3862,-5.4251,-5.47,-5.5149,-5.5807,-5.6376,-5.6825,-5.7663,-5.8112,-5.8112,-5.88,-5.9129,-5.9129,-5.9578,-5.9548,-5.9129,-5.9129,-5.889,-5.8441,-5.8201,-5.7962,-5.7723,-5.7094,-5.6166,-5.5089,-5.4221,-5.3862,-5.3862,-5.3862,-5.3862,-5.3862,-5.3862,-5.3862,-5.3862,-5.3862,-5.3862,-5.3862,-5.3862,-5.3862,-5.3862,-5.3862,-5.3862,-5.3862,-5.3862,-5.3862,-5.3982,-5.4431,-5.4551,-5.467,-5.5089,-5.5179,-5.5179,-5.5179,-5.485,-5.467,-5.5119,-5.5179,-5.5029,-5.461,-5.4551,-5.4371,-5.3922,-5.3862,-5.3257,-5.1724,-5.0691,-4.9657,-4.8503,-4.7238,-4.6552,-4.6761,-4.6395,-4.6186,-4.6156,-4.5764,-4.5715,-4.5924,-4.5323,-4.446,-4.331,0.0,0.0,0.0,0.0,0.0,0.0,0.0,0.0,0.0,0.0,0.0,0.0,0.0,0.0,0.0,0.0,0.0,0.0,0.0,0.0,0.0,0.0,0.0,-5.3204,-5.3204,-5.3204,-5.3234,-5.3264,-5.3264,-5.3294,-5.4491,-5.5269,-5.5269,-5.6436,-5.7154,-5.7184,-5.7812,-5.8201,-5.8201,-5.9458,-6.0116,-6.0116,-6.0805,-6.1134,-6.1134,-6.1164,-6.1164,-6.1134,-6.1134,-6.1134,-6.1074,-6.0416,-5.9757,-5.9129,-5.8471,-5.7782,-5.7034,-5.5748,-5.5239,-5.5239,-5.5239,-5.5239,-5.5209,-5.5209,-5.5209,-5.5179,-5.5179,-5.5179,-5.5179,-5.5179,-5.5179,-5.5179,-5.5179,-5.5179,-5.5179,-5.5179,-5.5179,-5.5209,-5.5209,-5.5209,-5.5239,-5.5239,-5.5239,-5.5239,-5.5239,-5.5239,-5.5239,-5.5209,-5.5209,-5.5209,-5.5209,-5.5239,0.0,-5.5239,-5.5239,-5.4363,-5.203,-5.1197,-4.994,-4.756,-4.6865,-4.6761,-4.7252,-4.6234,-4.6104,-4.72,-4.6208,-4.5924,-4.6473,-4.5924,-4.5062,-4.3885,0.0,0.0,0.0,0.0,0.0,0.0,0.0,0.0,0.0,0.0,0.0,0.0,0.0,0.0,0.0,0.0,0.0,0.0,0.0,0.0,0.0,-5.464,-5.4281,-5.3324,-5.3623,-5.4102,-5.4581,-5.5059,-5.5538,-5.5987,-5.6346,-5.6765,-5.7274,-5.7633,-5.8261,-5.9219,-5.9428,-5.9787,-6.0266,-6.0655,-6.0835,-6.0835,-6.1493,-6.1822,-6.1822,-6.2301,-6.2301,-6.1822,-6.1822,-6.1553,-6.1104,-6.0924,-6.0715,-6.0505,-5.9817,-5.9159,-5.8411,-5.7094,-5.6585,-5.6585,-5.6585,-5.6286,-5.5897,-5.5897,-5.5598,-5.5179,-5.5179,-5.5179,-5.5179,-5.5179,-5.5179,-5.5179,-5.5179,-5.5179,-5.5179,-5.5179,-5.5179,-5.5299,-5.5777,-5.5897,-5.6017,-5.6466,-5.6585,-5.6585,-5.6585,-5.6585,-5.6286,-5.5359,-5.5598,-5.5897,-5.5897,-5.6286,0.0,-5.6585,-5.6585,-5.5689,-5.3246,-5.2854,-5.1651,-4.8852,-4.8068,-4.7597,-4.7304,-4.6991,-4.6813,-4.6708,-4.6813,-4.6734,-4.6473,-4.5924,-4.5245,0.0,0.0,0.0,0.0,0.0,0.0,0.0,0.0,0.0,0.0,0.0,0.0,0.0,0.0,0.0,0.0,0.0,0.0,0.0,0.0,0.0,0.0,-5.5418,-5.5329,-5.4551,-5.479,-5.5179,-5.5568,-5.6166,-5.6825,-5.7453,-5.7782,-5.8231,-5.889,-5.9219,-5.9727,-6.0475,-6.0775,-6.1104,-6.1523,-6.1792,-6.1942,-6.1942,-6.2301,-6.251,-6.251,-6.2899,-6.2869,-6.251,-6.251,-6.2301,-6.1942,-6.1942,-6.1792,-6.1493,-6.1104,-6.0535,0.0,0.0,0.0,0.0,0.0,-5.6855,-5.6555,-5.6555,-5.6316,-5.5987,-5.5987,-5.5987,-5.5987,-5.5987,-5.5987,-5.5987,-5.5987,-5.5987,-5.5987,-5.5987,-5.5987,-5.6077,-5.6466,-5.6555,-5.6645,-5.7004,-5.7094,-5.7094,-5.7094,-5.7094,0.0,-5.6107,-5.6316,-5.6555,-5.6555,-5.6855,-5.6937,-5.6379,-5.6326,-5.5438,-5.3019,-5.2733,-5.1874,-4.9606,-4.9087,0.0,0.0,0.0,-4.744,-4.6865,-4.7153,0.0,0.0,0.0,-4.582,-4.5454,0.0,0.0,0.0,-4.3101,-4.2579,0.0,0.0,0.0,0.0,0.0,0.0,0.0,0.0,0.0,0.0,0.0,0.0,0.0,0.0,0.0,0.0,-5.5777,-5.6248,-5.6308,-5.6406,-5.6547,-5.6547,-5.6974,-5.7633,-5.8381,-5.8979,-5.9608,-6.0266,-6.0894,-6.1253,-6.1343,0.0,0.0,0.0,0.0,-6.3169,-6.3169,-6.3258,-6.3288,-6.3288,-6.3288,-6.3288,-6.3288,-6.3228,-6.3169,-6.3169,-6.3109,-6.275,-6.2211,-6.2211,-6.1822,-6.1044,-5.9189,-5.8052,-5.7423,-5.7423,-5.7334,-5.7214,-5.7214,0.0,0.0,-5.7094,-5.7094,-5.7094,-5.7094,-5.7094,-5.7094,-5.7094,-5.7094,-5.7094,-5.7094,-5.7094,-5.7124,-5.7184,-5.7214,-5.7244,-5.7304,-5.7334,-5.7334,-5.7334,-5.7334,-5.7334,-5.7334,-5.7244,-5.7214,-5.7214,-5.7274,-5.6882,-5.5671,-5.5507,-5.4596,-5.2171,0.0,0.0,-5.0123,-5.0002,-4.9949,-4.9897,-4.8878,-4.8094,-4.7592,-4.7435,-4.744,-4.744,-4.6865,-4.6552,-4.6473,-4.5976,-4.5715,-4.5689,-4.4513,-4.3702,0.0,0.0,0.0,0.0,0.0,0.0,0.0,0.0,0.0,0.0,0.0,0.0,0.0,0.0,0.0,-5.5948,-5.6128,-5.6346,-5.6855,-5.7842,-5.853,-5.853,-5.865,-5.9189,-6.0416,-6.0655,-6.0984,-6.1642,-6.1822,-6.2121,-6.266,-6.281,-6.2899,-6.2899,-6.3498,-6.3827,-6.3827,-6.4366,-6.4635,-6.4635,0.0,0.0,-6.4635,-6.4066,-6.3827,-6.3797,-6.3288,-6.3019,-6.2899,-6.2899,-6.251,-6.1822,-6.0894,-6.0116,-5.9518,-5.9518,-5.883,-5.7932,-5.7932,-5.7573,-5.7094,-5.7094,-5.7094,-5.7094,-5.7094,-5.7094,0.0,-5.7094,-5.7094,-5.7094,-5.7094,-5.7094,-5.7244,-5.7782,-5.7932,-5.8052,-5.859,-5.871,-5.871,-5.871,-5.871,-5.871,-5.871,-5.8261,-5.7932,-5.7932,-5.8381,-5.8248,-5.7006,-5.6839,-5.5852,-5.3397,-5.3158,-5.2453,-5.0778,-5.0629,-5.042,-4.9923,-4.927,-4.9061,-4.9374,-4.8512,-4.8015,-4.8015,-4.7466,-4.6944,-4.6473,-4.6369,-4.6316,-4.629,-4.5114,-4.4513,0.0,0.0,0.0,0.0,0.0,0.0,0.0,0.0,0.0,0.0,0.0,-5.5179,-5.5179,0.0,-5.5777,-5.6188,-5.6705,-5.7363,-5.8022,-5.8949,-5.9488,-5.9129,-5.9697,-6.0505,-6.1493,-6.1613,-6.1882,-6.254,-6.2869,-6.3199,-6.3528,-6.3857,-6.4066,-6.4066,-6.4366,-6.4515,-6.4515,-6.4844,-6.5024,-6.5024,-6.5024,-6.5024,-6.5024,-6.4665,-6.4515,-6.4485,-6.4186,-6.3857,-6.3528,-6.3199,-6.2869,-6.254,-6.2241,-6.1493,-6.0595,-6.0595,-6.0176,-5.9608,-5.9608,-5.9159,-5.859,-5.859,-5.8351,-5.8112,-5.8112,-5.8112,-5.8112,-5.8112,-5.8112,-5.8112,-5.8112,-5.8112,-5.8201,-5.853,-5.862,-5.871,-5.9039,-5.9099,-5.9099,-5.9099,-5.9099,-5.9219,-5.9548,-5.9308,-5.889,-5.8231,-5.7897,-5.7163,-5.5563,-5.5111,-5.4207,-5.2379,-5.2375,-5.2209,-5.1266,-5.1204,-5.0943,-5.0368,-5.008,-4.9923,-4.9897,-4.9087,-4.8773,-4.9035,-4.8486,-4.8068,-4.778,-4.7466,-4.7179,-4.6891,-4.6003,-4.5454,0.0,0.0,0.0,0.0,0.0,0.0,0.0,0.0,-5.5179,-5.5179,-5.5179,-5.5239,-5.5359,-5.5807,-5.6308,-5.6496,-5.7543,-5.853,-5.9189,-5.9967,-6.0266,-5.9757,-6.0655,-6.1553,-6.2211,-6.2391,-6.269,-6.3199,-6.3827,-6.4186,-6.4186,-6.4725,-6.5024,-6.5024,-6.5144,-6.5233,-6.5233,-6.5353,-6.5413,-6.5413,-6.5413,-6.5413,-6.5413,-6.5263,-6.5233,-6.5203,-6.5084,-6.4695,-6.4156,-6.3528,-6.3258,-6.3258,-6.3139,-6.2421,-6.1493,-6.1343,-6.1224,-6.1104,-6.1104,-6.0745,-6.0266,-6.0266,-5.9937,-5.9488,-5.9488,-5.9488,-5.9488,-5.9488,-5.9488,-5.9488,-5.9488,-5.9488,-5.9488,-5.9488,-5.9488,-5.9488,-5.9488,-5.9488,-5.9488,-5.9488,-5.9488,-5.9668,-6.0206,-6.0266,-5.9937,-5.886,-5.7892,-5.6524,-5.4318,-5.3533,-5.2626,-5.1128,-5.123,-5.1492,-5.1596,-5.1596,-5.1413,-5.0969,-5.0943,-5.0734,-5.0237,-4.9714,-4.9557,-4.9871,-4.9453,-4.9191,-4.9087,-4.8695,-4.8224,-4.7649,-4.7074,-4.6447,-5.2905,-5.3503,-5.4162,-5.491,-5.5089,-5.5089,0.0,0.0,-5.5179,-5.5179,-5.5179,-5.5359,-5.6008,-5.6188,-5.6555,-5.7723,-5.853,-5.9219,-5.9877,-6.1074,-6.1852,-6.1762,-6.1882,-6.2241,-6.2899,-6.3468,-6.3827,-6.3887,-6.4515,-6.4904,-6.4904,-6.4994,-6.5024,-6.5024,-6.5592,-6.5892,-6.5892,-6.649,-6.6759,-6.6759,-6.6759,-6.6759,-6.6759,-6.6161,-6.5892,-6.5862,-6.5293,-6.4994,-6.4874,-6.4186,-6.3887,-6.3827,-6.3288,-6.2989,-6.278,-6.2211,-6.1613,-6.1104,-6.1104,-6.1074,-6.1014,-6.1014,-6.0954,-6.0894,-6.0894,-6.0894,-6.0894,-6.0894,-6.0894,-6.0894,-6.0894,-6.0894,-6.0894,-6.0894,-6.0894,-6.0894,-6.0894,-6.0894,-6.0894,-6.0894,-6.0894,-6.0924,-6.0984,-6.1014,-6.0954,-6.0805,-6.0663,-5.9468,-5.6439,-5.5552,-5.4244,-5.1803,-5.1126,-5.1073,-5.1544,-5.1596,-5.157,-5.1518,-5.1518,-5.1465,-5.1413,-5.089,-5.0368,-4.9897,-4.9819,-4.9557,-4.9087,-4.9505,-4.9427,-4.8878,-4.8277,-4.7414,-5.3593,-5.4281,-5.485,0.0,-5.5179,-5.5179,-5.5179,-5.5179,-5.5299,-5.5688,-5.5777,-5.5957,-5.6585,-5.7034,-5.7603,0.0,-5.9249,-6.0057,-6.1104,-6.1732,-6.2361,-6.3109,-6.3199,-6.3318,-6.3588,-6.4216,-6.4605,-6.4605,-6.5233,-6.5592,-6.5592,-6.5951,-6.6161,-6.6161,-6.643,-6.658,-6.658,-6.6849,-6.6999,-6.6999,-6.6999,-6.6999,-6.6969,-6.67,-6.658,-6.655,-6.5892,-6.5592,-6.5533,-6.4874,-6.4605,-6.4545,-6.3857,-6.3617,-6.3528,-6.2899,-6.248,-6.2241,-6.2241,-6.2002,-6.1672,-6.1672,-6.1433,-6.1104,-6.1104,-6.1104,-6.1104,-6.1104,-6.1104,-6.1104,-6.1104,-6.1104,-6.1104,-6.1104,-6.1104,-6.1104,-6.1104,-6.1104,-6.1104,-6.1104,-6.1104,-6.1224,-6.1613,-6.1672,-6.1565,-6.1144,-5.951,-5.7742,-5.6037,-5.4611,-5.3377,-5.2245,-5.1596,-5.1361,-5.157,-5.1596,-5.1596,-5.1596,-5.1596,-5.1596,-5.1596,-5.1387,-5.1152,-5.089,-5.089,-5.0629,-5.008,-5.0315,-5.0106,-4.9557,-4.9296,-4.8747,-5.4341,-5.482,0.0,-5.5179,-5.5179,-5.5239,-5.5418,-5.5478,-5.5658,-5.6286,-5.6436,-5.6615,-5.7274,-5.7932,-5.862,-5.9279,-6.0086,-6.1044,-6.2211,-6.251,-6.3019,-6.4156,-6.4455,-6.4545,-6.4545,-6.4994,-6.5293,-6.5293,-6.5922,-6.6281,-6.6281,-6.6729,-6.6999,-6.6999,-6.6999,-6.6999,-6.6999,-6.6999,-6.6999,-6.6999,-6.6999,-6.6999,-6.6999,-6.6999,-6.6999,-6.6969,-6.649,-6.6281,-6.6221,-6.5562,-6.5293,-6.5233,-6.4545,-6.4276,-6.4216,-6.3558,-6.3228,-6.3079,-6.3079,-6.278,-6.2361,-6.2361,-6.2061,-6.1642,-6.1642,-6.1642,-6.1642,-6.1642,-6.1642,-6.1642,-6.1642,-6.1642,-6.1642,-6.1642,-6.1642,-6.1642,-6.1642,-6.1642,-6.1642,-6.1642,-6.1642,-6.1822,-6.2271,-6.2361,-6.2223,-6.1703,-5.9116,-5.6785,-5.575,-5.3957,-5.2668,-5.2511,-5.2119,-5.1858,-5.1858,-5.1701,-5.1596,-5.1596,-5.1596,-5.1596,-5.1596,-5.1596,-5.1596,-5.1596,-5.1596,-5.1413,-5.1021,-5.1021,-5.0707,-5.0132,-5.0132,-4.9845,-5.5149,0.0,-5.5179,-5.5179,-5.5179,-5.5359,-5.5987,-5.6188,-5.6316,-5.6944,-5.7064,-5.7274,-5.7962,-5.862,-5.9279,-5.9937,-6.1164,-6.2271,-6.2959,-6.3558,-6.4216,-6.4904,-6.5562,-6.5951,0.0,-6.5951,-6.5981,-6.5981,-6.658,-6.6969,-6.6969,-6.6969,-6.6999,-6.6999,-6.6999,-6.6999,-6.6999,-6.6999,-6.6999,-6.6999,-6.6999,-6.6999,-6.6999,-6.6999,-6.6999,-6.6999,-6.6969,-6.6969,-6.6909,-6.6251,-6.5981,-6.5922,-6.5263,-6.4994,-6.4904,-6.4216,-6.3588,-6.3079,-6.3079,-6.3079,-6.3049,-6.3049,-6.3019,-6.3019,-6.3019,-6.3019,-6.3019,-6.3019,-6.3019,-6.3019,-6.3019,-6.3019,-6.3019,-6.3019,-6.3019,-6.3019,-6.3019,-6.3019,-6.3019,-6.3019,-6.3019,-6.3019,-6.3049,-6.3049,-6.3049,-6.3079,-6.075,-5.832,-5.6396,-5.4538,-5.3138,-5.2563,-5.2485,-5.2459,-5.2459,-5.1936,-5.1596,-5.1596,-5.1596,-5.1596,-5.1596,-5.1596,-5.1596,-5.1596,-5.1596,-5.1596,-5.157,-5.157,-5.1282,-5.076,-5.076,-5.0446,-5.5179,0.0,-5.5299,-5.5718,-5.5837,-5.6017,-5.6645,-5.6795,-5.6974,-5.7633,-5.8112,-5.862,-5.9308,-5.9967,-6.0655,-6.1313,-6.1792,-6.248,-6.3528,-6.3857,-6.4425,-6.5533,-6.5862,0.0,0.0,0.0,0.0,-6.667,-6.6879,-6.6999,-6.6999,-6.6999,-6.6999,-6.6999,-6.6999,-6.6999,-6.6999,-6.6999,-6.6999,-6.6999,-6.6999,-6.6999,-6.6999,-6.6999,-6.6999,-6.6999,-6.6999,-6.6999,-6.6969,-6.6759,-6.667,-6.661,-6.5951,-6.5682,-6.5592,-6.4934,-6.4545,-6.4246,-6.3378,-6.3079,-6.3079,-6.3079,-6.3079,-6.3079,-6.3079,-6.3079,-6.3079,-6.3079,-6.3079,-6.3079,-6.3079,-6.3079,-6.3079,-6.3079,-6.3079,-6.3079,-6.3079,-6.3079,-6.3079,-6.3079,-6.3079,-6.3079,-6.3079,-6.3079,-6.2497,-6.0687,-5.9683,-5.823,-5.5812,-5.459,-5.3844,-5.3635,-5.3295,-5.2929,-5.2537,-5.2302,-5.2014,-5.1622,-5.1596,-5.1596,-5.1596,-5.1596,-5.1596,-5.1596,-5.1596,-5.1596,-5.1596,-5.1596,-5.1309,-5.0786,-5.0786,-5.0472,-5.5478,-5.5538,-5.5688,-5.6346,-5.6496,-5.6675,-5.7304,-5.7453,-5.7663,-5.8351,-5.9009,-5.9578,-5.9997,-6.0835,-6.1672,-6.2331,-6.263,-6.3228,-6.4545,-6.4725,-6.5114,-6.6221,-6.637,-6.652,0.0,0.0,0.0,-6.6999,-6.6999,-6.6999,-6.6999,-6.6999,-6.6999,-6.6999,-6.6999,-6.6999,-6.6999,-6.6999,-6.6999,-6.6999,-6.6999,-6.6999,-6.6999,-6.6999,-6.6999,-6.6999,-6.6999,-6.6999,-6.6999,-6.6999,-6.6999,-6.6939,-6.652,-6.637,-6.6281,-6.5622,-6.5383,-6.5173,-6.3857,-6.3408,-6.3378,-6.3139,-6.3079,-6.3079,-6.3079,-6.3079,-6.3079,-6.3079,-6.3079,-6.3079,-6.3079,-6.3079,-6.3079,-6.3079,-6.3079,-6.3079,-6.3079,-6.3079,-6.3079,-6.3079,-6.3079,-6.2989,-6.278,-6.2344,-6.1144,-5.8479,-5.8237,-5.7578,-5.5405,-5.4759,-5.4524,-5.4524,-5.4027,-5.353,-5.3138,-5.272,-5.2328,-5.1936,-5.1727,-5.1596,-5.1596,-5.1596,-5.1596,-5.1596,-5.1596,-5.1596,-5.1596,-5.1596,-5.1413,-5.1073,-5.1073,-5.0864,-5.6068,-5.6248,-5.6376,-5.7004,-5.7154,-5.7334,-5.8022,-5.8171,-5.8351,-5.9009,-5.9668,-6.0146,0.0,0.0,-6.2361,-6.2989,-6.3588,-6.4455,-6.5772,-6.5981,-6.6251,0.0,0.0,0.0,0.0,0.0,0.0,-6.6999,0.0,-6.6999,-6.6999,-6.6999,-6.6999,-6.6999,-6.6999,-6.6999,-6.6999,-6.6999,-6.6999,-6.6999,-6.6999,-6.6999,-6.6999,-6.6999,-6.6999,-6.6999,-6.6999,-6.6999,-6.6999,-6.6999,-6.6999,-6.6999,-6.6999,-6.6999,-6.6909,-6.6281,-6.6071,-6.5862,-6.4545,-6.4066,-6.3917,-6.3318,-6.3109,-6.3079,-6.3079,-6.3079,-6.3079,-6.3079,-6.3079,-6.3079,-6.3079,-6.3079,-6.3079,-6.3079,-6.3079,-6.3079,-6.3079,-6.3079,-6.3079,-6.3079,-6.3021,-6.2812,-6.2154,-6.0881,-5.9076,-5.6585,-5.6685,-5.6536,-5.5299,-5.5099,-5.5099,-5.5099,-5.4602,-5.4236,-5.421,-5.3191,-5.2537,-5.2485,-5.1936,-5.1596,-5.1596,-5.1596,-5.1596,-5.1596,-5.1596,-5.1596,-5.1596,-5.1596,-5.157,-5.1544,-5.1544,-5.1544,-5.6188,-5.6496,-5.7034,-5.7693,-5.7872,-5.8052,-5.871,-5.886,-5.9039,-5.9697,-6.0386,-6.1014,0.0,0.0,0.0,-6.3049,-6.3588,0.0,-6.5173,-6.5712,0.0,-6.6909,0.0,-6.6999,-6.6999,-6.6999,0.0,0.0,-6.6999,-6.6999,-6.6999,-6.6999,-6.6999,-6.6999,-6.6999,-6.6999,-6.6999,-6.6999,-6.6999,-6.6999,-6.6999,-6.6999,-6.6999,-6.6999,-6.6999,-6.6999,-6.6999,-6.6999,-6.6999,-6.6999,-6.6999,-6.6999,-6.6999,-6.6999,-6.6969,-6.6819,-6.6759,-6.661,-6.5772,-6.4844,-6.3977,-6.3827,-6.3468,-6.3079,-6.3079,-6.3079,-6.3079,-6.3079,-6.3079,-6.3079,-6.3079,-6.3079,-6.3079,-6.3079,-6.3079,-6.3079,-6.3079,-6.3079,-6.3079,-6.3079,-6.2263,-6.1438,-6.0765,-5.9144,-5.7512,-5.6351,-5.5874,-5.5472,-5.5165,-5.5099,-5.5099,-5.5099,-5.4968,-5.468,-5.4236,-5.3556,-5.2981,-5.2537,-5.1936,-5.1596,-5.1596,-5.1596,-5.1596,-5.1596,-5.1596,-5.1596,-5.1596,-5.1596,-5.1387,-5.0995,-5.0995,-5.0995,-5.6885,-5.7274,-5.7693,-5.8381,-5.856,-5.865,-5.9009,-5.9099,-5.9279,-5.9937,-6.0625,0.0,-6.1972,-6.263,0.0,0.0,0.0,0.0,-6.5742,-6.6191,-6.658,0.0,-6.6999,0.0,-6.6999,-6.6999,-6.6999,0.0,-6.6999,-6.6999,-6.6999,-6.6999,-6.6999,-6.6999,-6.6999,-6.6999,-6.6999,-6.6999,-6.6999,-6.6999,-6.6999,-6.6999,-6.6999,-6.6999,-6.6999,-6.6999,0.0,-6.6999,-6.6999,-6.6999,-6.6999,-6.6999,-6.6999,-6.6999,-6.6999,-6.6999,-6.6999,-6.6939,-6.658,-6.5742,-6.4844,-6.4545,-6.4006,-6.3468,-6.3468,-6.3288,-6.3079,-6.3079,-6.3079,-6.3079,-6.3079,-6.3079,-6.3079,-6.3079,-6.3079,-6.3079,-6.3079,-6.3079,-6.3079,-6.3079,-6.1792,-6.0347,-5.9494,-5.7577,-5.606,-5.543,-5.4971,-5.4811,-5.5072,-5.5099,-5.5099,-5.5099,-5.5099,-5.4968,-5.4628,-5.4079,-5.3504,-5.2929,-5.2328,-5.1884,-5.1596,-5.1596,-5.1596,-5.1596,-5.1596,-5.1596,-5.1596,-5.1596,-5.1439,-5.1152,-5.1152,-5.1152,-5.7782,-5.8171,-5.8381,-5.8949,-5.9099,-5.9099,-5.9099,-5.9099,-5.9308,-6.0057,0.0,-6.1343,-6.2091,-6.269,-6.3468,-6.4695,0.0,-6.5473,-6.67,-6.6939,-6.6999,-6.6999,-6.6999,-6.6999,-6.6999,-6.6999,-6.6999,-6.6999,-6.6999,-6.6999,-6.6999,-6.6999,-6.6999,-6.6999,-6.6999,-6.6999,-6.6999,-6.6999,-6.6999,-6.6999,-6.6999,-6.6999,-6.6999,-6.6999,-6.6999,-6.6999,-6.6999,-6.6999,-6.6999,-6.6999,-6.6999,-6.6999,-6.6999,-6.6999,-6.6999,-6.6999,-6.6999,-6.6999,-6.6999,-6.661,-6.6041,-6.5383,-6.4695,-6.4126,-6.4126,-6.3707,-6.3199,-6.3199,-6.3139,-6.3079,-6.3079,-6.3079,-6.3079,-6.3079,-6.3079,-6.3079,-6.3079,-6.3079,-6.3079,-6.2875,-6.1292,-5.9523,-5.8165,-5.6416,-5.4985,-5.4328,-5.4262,-5.4497,-5.5046,-5.5099,-5.5099,-5.5099,-5.5099,-5.5099,-5.5099,-5.455,-5.4001,-5.353,-5.2877,-5.2276,-5.1727,-5.1648,-5.1596,-5.1596,-5.1596,-5.1596,-5.1596,-5.1596,-5.1596,-5.1596,-5.1596,-5.1596,-5.7902,-5.853,-5.8949,-5.9069,-5.9099,-5.9099,-5.9099,-5.9099,0.0,0.0,-6.1044,-6.1493,-6.269,-6.2989,-6.3318,-6.4066,-6.4665,-6.5293,-6.6071,-6.664,-6.6999,0.0,-6.6999,-6.6999,-6.6999,-6.6999,0.0,0.0,-6.6999,-6.6999,-6.6999,-6.6999,-6.6999,-6.6999,-6.6999,-6.6999,-6.6999,-6.6999,-6.6999,-6.6999,-6.6999,-6.6999,-6.6999,-6.6999,-6.6999,-6.6999,-6.6999,0.0,-6.6999,-6.6999,-6.6999,-6.6999,-6.6999,-6.6999,-6.6999,-6.6999,-6.6999,-6.6999,-6.6999,-6.6909,-6.67,-6.6041,-6.5383,-6.4844,-6.4844,-6.4366,-6.3827,-6.3827,-6.3468,-6.3079,-6.3079,-6.3079,-6.3079,-6.3079,-6.3079,-6.3079,-6.3079,-6.3079,-6.2759,-6.1643,-6.0298,-5.8665,-5.6856,-5.5751,-5.4919,-5.4262,-5.4628,-5.4994,-5.5099,-5.5099,-5.5099,-5.5099,-5.5099,-5.5099,-5.5099,-5.455,-5.4158,-5.4079,-5.3086,-5.2459,-5.2354,-5.1858,-5.1596,-5.1596,-5.1596,-5.1596,-5.1596,-5.1596,-5.1596,-5.1596,-5.1596,-5.1596,-5.8351,-5.886,-5.9099,-5.9099,-5.9099,-5.9099,-5.9099,0.0,0.0,0.0,-6.1104,-6.1523,-6.2839,-6.3079,0.0,-6.4366,-6.4814,-6.5383,-6.637,-6.6789,0.0,0.0,0.0,0.0,0.0,-6.6999,-6.6999,-6.6999,0.0,-6.6999,-6.6999,-6.6999,-6.6999,-6.6999,-6.6999,-6.6999,-6.6999,-6.6999,-6.6999,-6.6999,-6.6999,-6.6999,-6.6999,-6.6999,-6.6999,-6.6999,-6.6999,0.0,-6.6999,-6.6999,-6.6999,-6.6999,-6.6999,-6.6999,-6.6999,-6.6999,-6.6999,-6.6999,-6.6999,-6.6999,-6.6939,-6.661,-6.6071,-6.5533,-6.5533,-6.5054,-6.4455,-6.4096,-6.3767,-6.3498,-6.3169,-6.3079,-6.3079,-6.3079,-6.3079,-6.3079,-6.3079,-6.3079,-6.2701,-6.1346,-6.0018,-5.8606,-5.6941,-5.5522,-5.4524,-5.4236,-5.4445,-5.4628,-5.4628,-5.4916,-5.5099,-5.5099,-5.5099,-5.5099,-5.5099,-5.4837,-5.4524,-5.421,-5.3426,-5.2825,-5.2511,-5.191,-5.1596,-5.1596,-5.1596,-5.1596,-5.1596,-5.1596,-5.1596,-5.1596,-5.1596,-5.1596,-5.874,-5.9099,-5.9099,-5.9099,-5.9099,-5.9099,-5.9099,-5.9099,0.0,-6.0655,-6.1014,-6.1463,-6.266,-6.2989,-6.3498,0.0,-6.5024,-6.5473,-6.6819,0.0,0.0,0.0,0.0,0.0,0.0,0.0,0.0,0.0,0.0,0.0,-6.6999,-6.6999,-6.6999,-6.6999,-6.6999,-6.6999,-6.6999,-6.6999,-6.6999,-6.6999,-6.6999,-6.6999,-6.6999,-6.6999,-6.6999,-6.6999,-6.6999,0.0,0.0,-6.6999,-6.6999,-6.6999,-6.6999,-6.6999,-6.6999,-6.6999,-6.6999,-6.6999,-6.6999,-6.6999,-6.6999,-6.6999,-6.664,-6.6221,-6.6221,-6.5772,-6.5114,-6.4575,-6.4336,-6.4066,-6.3438,-6.3258,-6.3228,-6.3109,-6.3079,-6.3079,-6.3079,-6.3079,-6.2643,-6.0957,-5.9834,-5.8564,-5.6963,-5.5379,-5.4367,-5.421,-5.4314,-5.4341,-5.421,-5.4733,-5.5099,-5.5099,-5.5099,-5.5099,-5.5099,-5.5099,-5.4916,-5.4419,-5.387,-5.3295,-5.272,-5.2119,-5.1727,-5.1596,-5.1596,-5.1596,-5.1596,-5.1596,-5.1596,-5.1596,-5.1596,-5.1596,-5.874,-5.9099,-5.9099,-5.9099,-5.9099,-5.9099,-5.9099,0.0,0.0,-6.0027,-6.0685,-6.1343,-6.2061,-6.266,-6.3498,-6.4814,-6.5024,-6.5473,-6.6819,0.0,0.0,0.0,0.0,0.0,0.0,0.0,0.0,0.0,0.0,0.0,-6.6999,-6.6999,-6.6999,-6.6999,-6.6999,-6.6999,-6.6999,-6.6999,-6.6999,-6.6999,-6.6999,-6.6999,-6.6999,-6.6999,-6.6999,-6.6999,-6.6999,0.0,0.0,-6.6999,-6.6999,-6.6999,-6.6999,-6.6999,-6.6999,-6.6999,-6.6999,-6.6999,-6.6999,-6.6999,-6.6999,-6.6999,-6.6939,-6.6909,-6.6909,-6.643,-6.5892,-6.5832,-6.5383,-6.4784,-6.4096,-6.3917,-6.3767,-6.3199,-6.3079,-6.3079,-6.3079,-6.3079,-6.2321,-5.9745,-5.9189,-5.825,-5.571,-5.5113,-5.4837,-5.4288,-5.468,-5.4811,-5.4262,-5.4733,-5.5099,-5.5099,-5.5099,-5.5099,-5.5099,-5.5099,-5.5072,-5.502,-5.4445,-5.387,-5.3347,-5.272,-5.2145,-5.1596,-5.1596,-5.1596,-5.1596,-5.1596,-5.1596,-5.1596,-5.1596,-5.1596,-5.8261,-5.88,-5.9099,-5.9099,-5.9099,-5.9099,-5.9099,0.0,-5.9279,-5.9937,-6.0625,-6.1313,-6.1972,-6.263,-6.3498,-6.4814,-6.5024,-6.5473,-6.6819,0.0,0.0,0.0,0.0,0.0,0.0,0.0,0.0,0.0,0.0,0.0,-6.6999,-6.6999,-6.6999,-6.6999,-6.6999,-6.6999,-6.6999,-6.6999,-6.6999,-6.6999,-6.6999,-6.6999,-6.6999,-6.6999,-6.6999,-6.6999,-6.6999,0.0,0.0,-6.6999,-6.6999,-6.6999,-6.6999,-6.6999,-6.6999,-6.6999,-6.6999,-6.6999,-6.6999,-6.6999,-6.6999,-6.6999,-6.6999,-6.6999,-6.6999,-6.6819,-6.652,-6.6131,-6.5832,-6.5473,-6.4784,-6.4306,-6.3947,-6.3677,-6.3348,-6.3079,-6.3079,-6.2468,-6.1316,-5.9436,-5.8439,-5.7258,-5.5405,-5.5099,-5.4889,-5.4288,-5.4707,-5.4889,-5.4288,-5.4733,-5.5099,-5.5099,-5.5099,-5.5099,-5.5099,-5.5099,-5.5099,-5.5099,-5.4524,-5.3949,-5.3426,-5.2825,-5.2223,-5.1596,-5.1596,-5.1596,-5.1596,-5.1596,-5.1596,-5.1596,-5.1596,-5.1596,-5.7872,-5.8471,-5.886,-5.9069,-5.9099,-5.9099,0.0,0.0,-5.9249,-5.9697,-6.0505,-6.1253,-6.1732,-6.251,-6.3498,-6.4814,-6.5024,-6.5473,-6.6819,-6.6999,0.0,0.0,0.0,-6.6999,0.0,-6.6999,-6.6999,0.0,0.0,0.0,-6.6999,-6.6999,-6.6999,-6.6999,-6.6999,-6.6999,-6.6999,-6.6999,-6.6999,-6.6999,-6.6999,-6.6999,-6.6999,-6.6999,-6.6999,-6.6999,-6.6999,0.0,0.0,-6.6999,-6.6999,-6.6999,-6.6999,-6.6999,-6.6999,-6.6999,-6.6999,-6.6999,-6.6999,-6.6999,-6.6999,-6.6999,-6.6999,-6.6999,-6.6999,-6.6999,-6.6879,-6.643,-6.6161,-6.5892,-6.5443,-6.4814,-6.4246,-6.4036,-6.3677,-6.323,-6.2615,-6.1762,-6.0595,-5.8815,-5.777,-5.6639,-5.5365,-5.5099,-5.4889,-5.4288,-5.4707,-5.4889,-5.4288,-5.4733,-5.5099,-5.5099,-5.5099,-5.5099,-5.5099,-5.5099,-5.5099,-5.5099,-5.4707,-5.421,-5.3661,-5.3086,-5.2485,-5.1884,-5.1675,-5.1596,-5.1596,-5.1596,-5.1596,-5.1596,-5.1596,-5.1596,-5.7782,-5.8141,-5.8291,-5.8949,-5.9099,-5.9099,0.0,-5.9099,-5.9099,-5.9129,-6.0176,-6.1104,-6.1134,-6.2181,-6.3498,-6.4814,-6.5024,-6.5473,-6.6819,-6.6999,0.0,0.0,0.0,-6.6999,-6.6999,-6.6999,0.0,0.0,0.0,0.0,-6.6999,-6.6999,-6.6999,-6.6999,-6.6999,-6.6999,-6.6999,-6.6999,-6.6999,-6.6999,-6.6999,-6.6999,-6.6999,-6.6999,-6.6999,0.0,0.0,0.0,0.0,-6.6999,-6.6999,-6.6999,-6.6999,-6.6999,-6.6999,-6.6999,-6.6999,-6.6999,-6.6999,-6.6999,-6.6999,-6.6999,-6.6999,-6.6999,-6.6999,-6.6999,-6.6999,-6.6969,-6.652,-6.6011,-6.6011,-6.5503,-6.4844,-6.4156,-6.4006,-6.3445,-6.1522,-6.1106,-6.0352,-5.7642,-5.7092,-5.6639,-5.5365,-5.5099,-5.4889,-5.4288,-5.4707,-5.4889,-5.4288,-5.4733,-5.5099,-5.5099,-5.5099,-5.5099,-5.5099,-5.5099,-5.5099,-5.5099,-5.5099,-5.4811,-5.421,-5.3687,-5.3112,-5.2485,-5.191,-5.1596,-5.1596,-5.1596,-5.1596,-5.1596,-5.1596,-5.1596,-5.6675,-5.7453,-5.8171,-5.8381,-5.877,-5.9099,-5.9099,-5.9099,-5.9099,-5.9099,-6.0176,-6.1104,-6.1104,-6.2181,-6.3498,-6.4814,-6.5024,-6.5473,0.0,0.0,0.0,-6.6999,-6.6999,-6.6999,0.0,0.0,-6.6999,0.0,0.0,0.0,-6.6999,-6.6999,-6.6999,-6.6999,-6.6999,-6.6999,-6.6999,-6.6999,-6.6999,-6.6999,-6.6999,-6.6999,-6.6999,-6.6999,-6.6999,0.0,0.0,0.0,0.0,-6.6999,-6.6999,-6.6999,-6.6999,-6.6999,-6.6999,-6.6999,-6.6999,-6.6999,-6.6999,-6.6999,-6.6999,-6.6999,-6.6999,-6.6999,-6.6999,-6.6999,-6.6999,-6.6999,-6.6849,-6.667,-6.667,-6.6191,-6.5652,-6.5413,-6.4665,-6.3564,-6.2047,-6.0671,-5.9189,-5.7451,-5.634,-5.5604,-5.5165,-5.5099,-5.5046,-5.4837,-5.4628,-5.4576,-5.4785,-5.4628,-5.4654,-5.5072,-5.5099,-5.5099,-5.5099,-5.5099,-5.5099,-5.5099,-5.5099,-5.4837,-5.4236,-5.3687,-5.3112,-5.2511,-5.191,-5.1596,-5.1596,-5.1596,-5.1596,-5.1596,-5.1596,-5.1596,-5.6107,-5.6765,-5.7513,-5.7992,-5.8441,-5.88,-5.9039,-5.9099,-5.9099,-5.9099,-6.0176,-6.1104,-6.1104,-6.2181,-6.3498,-6.4814,-6.5024,-6.5473,0.0,0.0,0.0,-6.6999,0.0,0.0,0.0,-6.6999,-6.6999,-6.6999,0.0,0.0,-6.6999,-6.6999,-6.6999,-6.6999,-6.6999,-6.6999,-6.6999,-6.6999,-6.6999,-6.6999,-6.6999,-6.6999,-6.6999,-6.6999,-6.6999,0.0,0.0,0.0,0.0,-6.6999,-6.6999,-6.6999,-6.6999,-6.6999,-6.6999,-6.6999,-6.6999,-6.6999,-6.6999,-6.6999,-6.6999,-6.6999,-6.6999,-6.6999,-6.6999,-6.6999,-6.6999,-6.6999,-6.6999,-6.6999,-6.6999,-6.67,-6.6311,-6.6071,-6.5173,-6.3803,-6.1729,-6.0137,-5.8564,-5.6704,-5.567,-5.5099,-5.5099,-5.5099,-5.5099,-5.5099,-5.4968,-5.4916,-5.5072,-5.4942,-5.4916,-5.5072,-5.5099,-5.5099,-5.5099,-5.5099,-5.5099,-5.5099,-5.5099,-5.4942,-5.455,-5.4001,-5.3426,-5.2851,-5.225,-5.1831,-5.1596,-5.1596,-5.1596,-5.1596,-5.1831,-5.1936,0.0,-5.6188,-5.6466,-5.7723,-5.8082,-5.8291,-5.8949,-5.9099,0.0,-5.9159,-6.0206,-6.1134,-6.1164,-6.2211,-6.3498,-6.4814,-6.5024,0.0,0.0,-6.6999,0.0,0.0,-6.6999,0.0,-6.6999,-6.6999,-6.6999,-6.6999,0.0,0.0,-6.6999,-6.6999,-6.6999,-6.6999,-6.6999,-6.6999,-6.6999,-6.6999,-6.6999,-6.6999,-6.6999,-6.6999,-6.6999,-6.6999,-6.6999,0.0,0.0,0.0,0.0,-6.6999,-6.6999,-6.6999,-6.6999,-6.6999,-6.6999,-6.6999,-6.6999,-6.6999,-6.6999,-6.6999,-6.6999,-6.6999,-6.6999,-6.6999,-6.6999,-6.6999,-6.6999,-6.6999,-6.6999,-6.6999,-6.6999,-6.6999,-6.6819,-6.6221,-6.5473,-6.3976,-6.0847,-5.9542,-5.8186,-5.5604,-5.5099,-5.5099,-5.5099,-5.5099,-5.5125,-5.5151,-5.5543,-5.5674,-5.5229,-5.5569,-5.5647,-5.5151,-5.5099,-5.5099,-5.5099,-5.5099,-5.5099,-5.5099,-5.5099,-5.5099,-5.5099,-5.4524,-5.3949,-5.34,-5.2798,-5.2223,-5.1648,-5.1701,-5.1727,-5.1727,-5.2302,-5.2563,-5.5388,0.0,-5.6346,-5.7124,-5.7723,-5.8291,0.0,-5.9099,-5.9249,-5.9757,-6.0535,-6.1283,-6.1762,-6.254,-6.3498,-6.4814,-6.5024,-6.5473,-6.6819,0.0,0.0,-6.6999,-6.6999,-6.6999,-6.6999,-6.6999,-6.6999,0.0,0.0,-6.6999,-6.6999,-6.6999,-6.6999,-6.6999,-6.6999,-6.6999,-6.6999,-6.6999,-6.6999,-6.6999,-6.6999,-6.6999,-6.6999,-6.6999,-6.6999,0.0,0.0,0.0,-6.6999,-6.6999,-6.6999,-6.6999,-6.6999,-6.6999,-6.6999,-6.6999,-6.6999,-6.6999,-6.6999,-6.6999,-6.6999,-6.6999,-6.6999,-6.6999,-6.6999,-6.6999,-6.6999,-6.6999,-6.6999,-6.6999,-6.6999,-6.6999,-6.6939,-6.6789,-6.5074,-6.2968,-6.1168,-5.909,-5.7092,-5.5405,-5.5099,-5.5099,-5.5099,-5.5099,-5.5255,-5.5647,-5.5465,-5.5386,-5.5674,-5.5465,-5.5255,-5.5125,-5.5099,-5.5099,-5.5099,-5.5099,-5.5099,-5.5099,-5.5099,-5.5099,-5.5099,-5.4524,-5.3949,-5.34,-5.2798,-5.2433,-5.2276,-5.2746,-5.2981,-5.2981,-5.3112,-5.3191,-5.5179,-5.5658,-5.6316,-5.6944,-5.7603,-5.8291,-5.8949,-5.9099,-5.9279,-5.9937,-6.0625,-6.1313,-6.1972,-6.2869,-6.3827,-6.4874,-6.5293,0.0,0.0,0.0,-6.6999,-6.6999,-6.6999,-6.6999,0.0,-6.6999,-6.6999,0.0,0.0,-6.6999,-6.6999,-6.6999,-6.6999,-6.6999,-6.6999,-6.6999,-6.6999,-6.6999,-6.6999,-6.6999,-6.6999,-6.6999,-6.6999,-6.6999,-6.6999,0.0,0.0,0.0,-6.6999,-6.6999,-6.6999,-6.6999,-6.6999,-6.6999,-6.6999,-6.6999,-6.6999,-6.6999,-6.6999,-6.6999,-6.6999,-6.6999,-6.6999,-6.6999,-6.6999,-6.6999,-6.6999,-6.6999,-6.6999,-6.6999,-6.6999,-6.6999,-6.6846,-6.6198,-6.4455,-6.25,-6.044,-5.8492,-5.6704,-5.5339,-5.5099,-5.5099,-5.5099,-5.5099,-5.5282,-5.583,-5.5883,-5.5987,-5.6275,-5.6066,-5.5778,-5.5517,-5.5255,-5.5099,-5.5099,-5.5099,-5.5099,-5.5099,-5.5099,-5.5099,-5.5099,-5.4785,-5.4341,-5.3792,-5.3191,-5.2903,-5.2903,-5.3243,-5.34,-5.34,-5.3635,-5.3766,-5.5179,-5.5748,-5.6436,-5.6974,-5.7603,-5.8291,-5.8949,-5.9189,-5.9428,-6.0086,-6.0805,-6.1463,-6.2121,-6.3199,-6.4216,-6.4904,-6.5652,0.0,-6.6909,-6.6999,-6.6999,-6.6999,-6.6999,0.0,-6.6999,-6.6999,-6.6999,0.0,0.0,-6.6999,-6.6999,-6.6999,-6.6999,-6.6999,-6.6999,-6.6999,-6.6999,-6.6999,-6.6999,-6.6999,-6.6999,-6.6999,-6.6999,-6.6999,-6.6999,-6.6999,0.0,0.0,-6.6999,-6.6999,-6.6999,-6.6999,-6.6999,-6.6999,-6.6999,-6.6999,-6.6999,-6.6999,-6.6999,-6.6999,-6.6999,-6.6999,-6.6999,-6.6999,-6.6999,-6.6999,-6.6999,-6.6999,-6.6999,-6.6999,-6.6999,-6.6846,-6.6384,-6.5198,-6.3612,-6.1719,-5.9424,-5.7802,-5.6471,-5.5299,-5.5099,-5.5099,-5.5099,-5.5177,-5.5412,-5.5961,-5.6562,-5.6928,-5.6928,-5.6876,-5.6588,-5.5961,-5.5412,-5.5099,-5.5099,-5.5099,-5.5099,-5.5099,-5.5099,-5.5099,-5.5099,-5.502,-5.4733,-5.421,-5.3739,-5.353,-5.353,-5.3609,-5.3661,-5.3661,-5.4131,-5.4341,-5.5179,-5.6047,-5.6974,-5.7064,-5.7603,-5.8291,-5.8949,-5.9548,-6.0146,-6.0805,-6.1493,-6.2151,-6.281,-6.3498,-6.4216,-6.4904,-6.6041,-6.6879,0.0,0.0,-6.6999,-6.6999,0.0,-6.6999,-6.6999,-6.6999,-6.6999,0.0,0.0,-6.6999,-6.6999,-6.6999,-6.6999,-6.6999,-6.6999,-6.6999,-6.6999,-6.6999,-6.6999,-6.6999,-6.6999,-6.6999,-6.6999,-6.6999,-6.6999,-6.6999,0.0,-6.6999,-6.6999,-6.6999,-6.6999,-6.6999,-6.6999,-6.6999,-6.6999,-6.6999,-6.6999,-6.6999,-6.6999,-6.6999,-6.6999,-6.6999,-6.6999,-6.6999,-6.6999,-6.6999,-6.6999,-6.6999,-6.6999,-6.6999,-6.6999,-6.6136,-6.5134,-6.4944,-6.2143,-5.9424,-5.8989,-5.7037,-5.5365,-5.5165,-5.5099,-5.5099,-5.5099,-5.5491,-5.5987,-5.6588,-5.7163,-5.7529,-5.7529,-5.7111,-5.6588,-5.5961,-5.5412,-5.5099,-5.5099,-5.5099,-5.5099,-5.5099,-5.5099,-5.5099,-5.5099,-5.4602,-5.4288,-5.421,-5.4131,-5.4079,-5.4079,-5.4602,-5.4837,-5.4837,-5.4916,-5.4968,-5.5179,-5.6107,-5.7094,-5.7094,-5.7872,-5.883,-5.9488,-5.9877,-6.0386,-6.1433,-6.1882,-6.2391,-6.3378,-6.4126,-6.4904,-6.5922,-6.661,-6.6999,-6.6999,-6.6999,-6.6999,0.0,0.0,-6.6999,-6.6999,-6.6999,0.0,0.0,0.0,0.0,-6.6999,-6.6999,-6.6999,-6.6999,-6.6999,-6.6999,-6.6999,-6.6999,-6.6999,-6.6999,-6.6999,-6.6999,-6.6999,-6.6999,-6.6999,-6.6999,0.0,-6.6999,-6.6999,-6.6999,-6.6999,-6.6999,-6.6999,-6.6999,-6.6999,-6.6999,-6.6999,-6.6999,-6.6999,-6.6999,-6.6999,-6.6999,-6.6999,-6.6999,-6.6999,-6.6999,-6.6999,-6.6999,-6.6999,-6.6785,-6.6073,-6.5416,-6.4496,-6.2943,-6.0701,-5.8656,-5.7904,-5.6355,-5.5099,-5.5099,-5.5099,-5.5099,-5.5099,-5.5543,-5.6118,-5.6719,-5.7294,-5.7765,-5.8078,-5.7346,-5.6693,-5.6432,-5.5621,-5.5099,-5.5099,-5.5099,-5.5099,-5.5099,-5.5099,-5.5099,-5.5099,-5.4837,-5.468,-5.468,-5.468,-5.468,-5.468,-5.4968,-5.5099,-5.5099,-5.5099,-5.5099,-5.5388,-5.6226,-5.7124,-5.7304,-5.8231,-5.9279,-5.9937,-6.0206,-6.0655,-6.1852,-6.2211,-6.266,-6.3797,-6.4695,-6.5652,-6.6819,-6.6999,-6.6999,-6.6999,-6.6999,-6.6999,-6.6999,-6.6999,-6.6999,-6.6999,-6.6999,0.0,0.0,0.0,0.0,-6.6999,-6.6999,-6.6999,-6.6999,-6.6999,-6.6999,-6.6999,-6.6999,-6.6999,-6.6999,-6.6999,-6.6999,-6.6999,-6.6999,-6.6999,-6.6999,-6.6999,-6.6999,-6.6999,-6.6999,-6.6999,-6.6999,-6.6999,-6.6999,-6.6999,-6.6999,-6.6999,-6.6999,-6.6999,-6.6999,-6.6999,-6.6999,-6.6999,-6.6999,-6.6999,-6.6999,-6.6999,-6.6999,-6.6785,-6.626,-6.5198,-6.4403,-6.3366,-6.1165,-5.9454,-5.808,-5.7004,-5.5909,-5.5099,-5.5099,-5.5099,-5.5151,-5.5282,-5.5752,-5.6327,-5.6928,-5.7503,-5.8026,-5.8444,-5.7634,-5.6954,-5.6824,-5.5909,-5.5229,-5.5125,-5.5099,-5.5099,-5.5099,-5.5099,-5.5099,-5.5099,-5.5099,-5.5099,-5.5099,-5.5099,-5.5099,-5.5099,-5.5099,-5.5099,-5.5099,-5.5099,-5.5099,-5.5927,-5.6585,-5.7244,-5.7902,-5.859,-5.9279,-5.9937,-6.0565,-6.1253,-6.1942,-6.257,-6.3199,-6.3887,-6.5054,-6.6161,-6.6879,-6.6999,-6.6999,-6.6999,0.0,-6.6999,-6.6999,-6.6999,-6.6999,-6.6999,0.0,0.0,0.0,0.0,0.0,-6.6999,-6.6999,-6.6999,-6.6999,-6.6999,-6.6999,-6.6999,-6.6999,-6.6999,-6.6999,-6.6999,-6.6999,-6.6999,-6.6999,-6.6999,-6.6999,-6.6999,-6.6999,-6.6999,-6.6999,-6.6999,-6.6999,-6.6999,-6.6999,-6.6999,-6.6999,-6.6999,-6.6999,-6.6999,-6.6999,-6.6999,-6.6999,-6.6999,-6.6999,-6.6999,-6.6999,-6.6999,-6.6999,-6.6073,-6.5007,-6.4944,-6.2877,-6.0893,-6.062,-5.8731,-5.6935,-5.6798,-5.5909,-5.5099,-5.5099,-5.5099,-5.5255,-5.5778,-5.6353,-5.6928,-5.7503,-5.8078,-5.847,-5.8497,-5.7974,-5.7399,-5.6876,-5.6223,-5.5647,-5.5151,-5.5099,-5.5099,-5.5099,-5.5099,-5.5099,-5.5099,-5.5099,-5.5099,-5.5099,-5.5099,-5.5099,-5.5099,-5.5099,-5.5099,-5.5099,-5.5099,-5.5099,-5.6038,-5.6615,-5.7363,-5.8471,-5.9219,-5.9907,-6.0565,-6.1253,-6.1912,-6.257,-6.3199,-6.3977,-6.5054,-6.6011,-6.67,-6.6939,-6.6999,-6.6999,-6.6999,-6.6999,-6.6999,-6.6999,-6.6999,-6.6999,-6.6999,0.0,0.0,0.0,0.0,0.0,-6.6999,-6.6999,-6.6999,-6.6999,-6.6999,-6.6999,-6.6999,-6.6999,-6.6999,-6.6999,-6.6999,-6.6999,-6.6999,-6.6999,-6.6999,-6.6999,-6.6999,-6.6999,-6.6999,-6.6999,-6.6999,-6.6999,-6.6999,-6.6999,-6.6999,-6.6999,-6.6999,-6.6999,-6.6999,-6.6999,-6.6999,-6.6999,-6.6999,-6.6999,-6.6999,-6.6999,-6.6785,-6.5948,-6.4688,-6.3562,-6.3562,-6.2081,-6.0345,-5.9498,-5.8315,-5.7242,-5.6876,-5.617,-5.5517,-5.5177,-5.5099,-5.5282,-5.583,-5.6405,-5.7007,-5.7651,-5.8157,-5.8523,-5.8523,-5.8,-5.7451,-5.6876,-5.5961,-5.5334,-5.5125,-5.5099,-5.5099,-5.5099,-5.5099,-5.5099,-5.5099,-5.5099,-5.5099,-5.5099,-5.5099,-5.5099,-5.5099,-5.5099,-5.5099,-5.5099,-5.5099,-5.5099,-5.6286,-5.6944,-5.7752,-5.9069,-5.9907,-6.0595,-6.1253,-6.1762,-6.2331,-6.3199,-6.4036,-6.4904,-6.5832,-6.655,-6.6999,0.0,-6.6999,-6.6999,-6.6999,-6.6999,-6.6999,-6.6999,-6.6999,-6.6999,0.0,0.0,0.0,0.0,0.0,0.0,0.0,-6.6999,-6.6999,-6.6999,-6.6999,-6.6999,-6.6999,-6.6999,-6.6999,-6.6999,-6.6999,-6.6999,-6.6999,-6.6999,-6.6999,-6.6999,-6.6999,-6.6999,-6.6999,-6.6999,-6.6999,-6.6999,-6.6999,-6.6999,-6.6999,-6.6999,-6.6999,-6.6999,-6.6999,-6.6999,-6.6999,-6.6999,-6.6999,-6.6999,-6.6999,-6.6999,-6.6723,-6.529,-6.3887,-6.2707,-6.2242,-6.1029,-5.9707,-5.8709,-5.8078,-5.7625,-5.7163,-5.6458,-5.5857,-5.5674,-5.5491,-5.5595,-5.6327,-5.6798,-5.7268,-5.7843,-5.8261,-5.8523,-5.8523,-5.8183,-5.7634,-5.6876,-5.5935,-5.5282,-5.5125,-5.5099,-5.5099,-5.5099,-5.5099,-5.5099,-5.5099,-5.5099,-5.5099,-5.5099,-5.5099,-5.5099,-5.5099,-5.5099,-5.5099,-5.5099,-5.5099,-5.5099,-5.6944,-5.7603,-5.8441,-5.9757,-6.0625,-6.1283,-6.1942,-6.2121,-6.248,-6.3767,-6.5084,-6.6011,-6.6011,-6.655,0.0,-6.6999,-6.6999,-6.6999,-6.6999,-6.6999,-6.6999,-6.6999,-6.6999,-6.6999,0.0,0.0,0.0,0.0,0.0,0.0,0.0,-6.6999,-6.6999,-6.6999,-6.6999,-6.6999,-6.6999,-6.6999,-6.6999,-6.6999,-6.6999,-6.6999,-6.6999,-6.6999,-6.6999,-6.6999,-6.6999,-6.6999,-6.6999,-6.6999,-6.6999,-6.6999,-6.6999,-6.6999,-6.6999,-6.6999,-6.6999,-6.6999,-6.6999,-6.6999,-6.6999,-6.6999,-6.6999,-6.6999,-6.6999,-6.6999,-6.6661,-6.529,-6.3887,-6.2442,-6.0961,-5.9568,-5.8523,-5.8523,-5.8078,-5.773,-5.773,-5.6745,-5.6092,-5.6693,-5.6327,-5.6275,-5.7451,-5.773,-5.7843,-5.8418,-5.8523,-5.8523,-5.8523,-5.8497,-5.8078,-5.6928,-5.6275,-5.57,-5.5151,-5.5099,-5.5099,-5.5099,-5.5099,-5.5099,-5.5099,-5.5099,-5.5099,-5.5099,-5.5099,-5.5099,-5.5099,-5.5099,-5.5099,-5.5099,-5.5099,-5.5099,-5.7513,-5.7962,-5.856,-6.0356,-6.0954,-6.1403,-6.254,-6.3109,-6.3797,-6.5144,-6.5712,-6.6161,-6.661,-6.6849,0.0,-6.6999,-6.6999,-6.6999,-6.6999,-6.6999,-6.6999,-6.6999,0.0,0.0,0.0,0.0,0.0,0.0,0.0,0.0,0.0,-6.6999,-6.6999,-6.6999,-6.6999,-6.6999,-6.6999,-6.6999,-6.6999,-6.6999,-6.6999,-6.6999,-6.6999,-6.6999,-6.6999,-6.6999,-6.6999,-6.6999,-6.6999,-6.6999,-6.6999,-6.6999,-6.6999,-6.6999,-6.6999,-6.6999,-6.6999,-6.6999,-6.6999,-6.6999,-6.6999,-6.6999,-6.6999,-6.6999,-6.6999,-6.6322,-6.5227,-6.3822,-6.2375,-6.0893,-5.9498,-5.885,-5.8523,-5.8523,-5.8392,-5.8157,-5.7808,-5.7442,-5.7085,-5.685,-5.6667,-5.6771,-5.7599,-5.773,-5.7843,-5.8418,-5.8523,-5.8523,-5.8523,-5.8157,-5.7634,-5.6876,-5.6275,-5.57,-5.5151,-5.5099,-5.5099,-5.5099,-5.5099,-5.5099,-5.5099,-5.5099,-5.5099,-5.5099,-5.5099,-5.5099,-5.5099,-5.5099,-5.5099,-5.5099,-5.5099,-5.5099,-5.7902,-5.8501,-5.9249,-6.0745,-6.1313,-6.1912,-6.3498,-6.4156,-6.4725,-6.5772,-6.6221,-6.652,-6.6909,-6.6999,0.0,-6.6999,-6.6999,-6.6999,-6.6999,-6.6999,-6.6999,0.0,0.0,0.0,0.0,0.0,0.0,0.0,0.0,0.0,0.0,-6.6999,-6.6999,-6.6999,-6.6999,-6.6999,-6.6999,-6.6999,-6.6999,-6.6999,-6.6999,-6.6999,-6.6999,-6.6999,-6.6999,-6.6999,-6.6999,-6.6999,-6.6999,-6.6999,-6.6999,-6.6999,-6.6999,-6.6999,-6.6999,-6.6999,-6.6999,-6.6999,-6.6999,-6.6999,-6.6999,-6.6999,-6.6999,-6.6999,-6.6999,-6.6011,-6.4624,-6.3169,-6.1773,-6.0303,-5.885,-5.8523,-5.8523,-5.8523,-5.8523,-5.8418,-5.8078,-5.7817,-5.7634,-5.7503,-5.7294,-5.732,-5.7895,-5.8,-5.8104,-5.847,-5.8523,-5.8523,-5.8523,-5.8209,-5.7791,-5.7216,-5.6615,-5.604,-5.5465,-5.5229,-5.5099,-5.5099,-5.5099,-5.5099,-5.5099,-5.5099,-5.5099,-5.5099,-5.5099,-5.5099,-5.5099,-5.5099,-5.5099,-5.5099,-5.5099,-5.5099,-5.8201,-5.9129,-6.0236,-6.0954,-6.1642,-6.269,-6.4605,-6.5024,-6.5233,-6.5951,-6.658,-6.6999,-6.6999,-6.6999,-6.6999,-6.6999,-6.6999,-6.6999,-6.6999,-6.6999,0.0,0.0,0.0,0.0,0.0,0.0,0.0,0.0,0.0,0.0,0.0,-6.6999,-6.6999,-6.6999,-6.6999,-6.6999,-6.6999,-6.6999,-6.6999,-6.6999,-6.6999,-6.6999,-6.6999,-6.6999,-6.6999,-6.6999,-6.6999,-6.6999,-6.6999,-6.6999,-6.6999,-6.6999,-6.6999,-6.6999,-6.6999,-6.6999,-6.6999,-6.6999,-6.6999,-6.6999,-6.6999,-6.6999,-6.6999,-6.6999,-6.6846,-6.5794,-6.4432,-6.2972,-6.1571,-6.0096,-5.885,-5.8523,-5.8523,-5.8523,-5.8523,-5.8523,-5.8523,-5.8104,-5.7895,-5.8418,-5.8104,-5.7895,-5.8418,-5.8523,-5.8523,-5.8523,-5.8523,-5.8523,-5.8523,-5.8523,-5.8287,-5.7782,-5.7137,-5.6562,-5.5961,-5.5412,-5.5099,-5.5099,-5.5099,-5.5099,-5.5099,-5.5099,-5.5099,-5.5099,-5.5099,-5.5099,-5.5099,-5.5099,-5.5099,-5.5099,-5.5099,-5.5099,-5.874,-5.9488,-6.0236,-6.0954,-6.2002,-6.3258,-6.4695,-6.5024,-6.5353,-6.655,-6.6879,-6.6999,-6.6999,-6.6999,-6.6999,-6.6999,-6.6999,-6.6999,-6.6999,-6.6999,0.0,0.0,0.0,0.0,0.0,0.0,0.0,0.0,0.0,0.0,-6.6999,-6.6999,-6.6999,-6.6999,-6.6999,-6.6999,-6.6999,-6.6999,-6.6999,0.0,-6.6999,-6.6999,-6.6999,-6.6999,-6.6999,-6.6999,-6.6999,-6.6999,-6.6999,-6.6999,-6.6999,-6.6999,-6.6999,-6.6999,-6.6999,-6.6999,-6.6999,-6.6999,-6.6999,-6.6999,-6.6999,-6.6999,-6.6999,-6.6785,-6.5668,-6.4368,-6.2972,-6.1504,-6.0027,-5.892,-5.8594,-5.8523,-5.8523,-5.8523,-5.8523,-5.8523,-5.8523,-5.8418,-5.8366,-5.8497,-5.8418,-5.8366,-5.8497,-5.8523,-5.8523,-5.8523,-5.8523,-5.8523,-5.8523,-5.8523,-5.8287,-5.7782,-5.7137,-5.6562,-5.5961,-5.5412,-5.5099,-5.5099,-5.5099,-5.5099,-5.5099,-5.5099,-5.5099,-5.5099,-5.5099,-5.5099,-5.5099,-5.5099,-5.5099,-5.5099,-5.5099,-5.5099,-5.9398,-6.0057,-6.0805,-6.1822,-6.278,-6.3767,-6.4814,-6.5263,-6.5772,-6.6789,-6.6999,-6.6999,-6.6999,-6.6999,-6.6999,-6.6999,-6.6999,-6.6999,0.0,0.0,0.0,0.0,0.0,0.0,0.0,0.0,0.0,0.0,0.0,-6.6999,-6.6999,-6.6999,-6.6999,-6.6999,-6.6999,-6.6999,-6.6999,-6.6999,-6.6999,-6.6999,-6.6999,-6.6999,-6.6999,-6.6999,-6.6999,-6.6999,-6.6999,-6.6999,-6.6999,-6.6999,-6.6999,-6.6999,-6.6999,-6.6999,-6.6999,-6.6999,-6.6999,-6.6999,-6.6999,-6.6538,-6.5981,-6.5981,-6.5543,-6.488,-6.4081,-6.2906,-6.1571,-6.0825,-5.9568,-5.8523,-5.8523,-5.8523,-5.8523,-5.8523,-5.8523,-5.8523,-5.8523,-5.8523,-5.8523,-5.8523,-5.8523,-5.8523,-5.8523,-5.8523,-5.8523,-5.8523,-5.8523,-5.8523,-5.8523,-5.8523,-5.8392,-5.8104,-5.7556,-5.6981,-5.6379,-5.583,-5.5386,-5.5125,-5.5099,-5.5099,-5.5099,-5.5099,-5.5099,-5.5099,-5.5099,-5.5099,-5.5099,-5.5099,-5.5099,-5.5099,-5.5099,-5.5099,-5.9797,-6.0685,-6.1583,-6.278,-6.3528,0.0,-6.4874,-6.5533,-6.6191,-6.6849,-6.6999,-6.6999,-6.6999,-6.6999,-6.6999,-6.6999,-6.6999,0.0,0.0,0.0,0.0,0.0,0.0,0.0,0.0,0.0,0.0,0.0,0.0,-6.6999,-6.6999,-6.6999,-6.6999,-6.6999,-6.6999,-6.6999,-6.6999,-6.6999,-6.6999,-6.6999,-6.6999,-6.6999,-6.6999,-6.6999,-6.6999,-6.6999,-6.6999,-6.6999,-6.6999,-6.6999,-6.6999,-6.6999,-6.6999,-6.6999,-6.6999,-6.6999,-6.6999,-6.6999,-6.6999,-6.6073,-6.488,-6.488,-6.3952,-6.2773,-6.2508,-6.1571,-6.0551,-6.0303,-5.9359,-5.8523,-5.8523,-5.8523,-5.8523,-5.8523,-5.8523,-5.8523,-5.8523,-5.8523,-5.8523,-5.8523,-5.8523,-5.8523,-5.8523,-5.8523,-5.8523,-5.8523,-5.8523,-5.8523,-5.8523,-5.8523,-5.8523,-5.8523,-5.8,-5.7477,-5.7007,-5.6327,-5.5726,-5.5282,-5.5151,-5.5099,-5.5099,-5.5099,-5.5099,-5.5099,-5.5099,-5.5099,-5.5099,-5.5099,-5.5099,-5.5099,-5.5099,-5.5032,-5.9325,-6.1014,-6.2151,-6.2899,-6.3528,-6.4186,0.0,0.0,-6.6191,0.0,-6.6999,-6.6999,-6.6999,-6.6999,-6.6999,0.0,0.0,0.0,0.0,0.0,0.0,0.0,0.0,0.0,0.0,0.0,0.0,0.0,-6.6999,-6.6999,-6.6999,-6.6999,-6.6999,-6.6999,-6.6999,-6.6999,-6.6999,-6.6999,-6.6999,-6.6999,-6.6999,-6.6999,-6.6999,-6.6999,-6.6999,-6.6999,-6.6999,-6.6999,-6.6999,-6.6999,-6.6999,-6.6999,-6.6999,-6.6999,-6.6999,-6.6999,-6.6999,-6.6999,-6.6999,-6.6073,-6.488,-6.488,-6.3952,-6.2575,-6.1301,-6.0756,-6.0372,-5.9105,-5.8638,-5.8523,-5.8523,-5.8523,-5.8523,-5.8523,-5.8523,-5.8523,-5.8523,-5.8523,-5.8523,-5.8523,-5.8523,-5.8523,-5.8523,-5.8523,-5.8523,-5.8523,-5.8523,-5.8523,-5.8523,-5.8523,-5.8523,-5.8523,-5.8,-5.7704,-5.7625,-5.6536,-5.5883,-5.5804,-5.536,-5.5099,-5.5099,-5.5099,-5.5099,-5.5099,-5.5099,-5.5099,-5.5099,-5.5099,-5.5099,-5.5099,-5.5099,-5.4872,-5.9333,-6.1339,-6.272,0.0,-6.3827,-6.4665,-6.4964,-6.5832,-6.664,-6.6939,-6.6999,-6.6999,-6.6999,0.0,0.0,0.0,0.0,0.0,0.0,0.0,0.0,0.0,0.0,0.0,0.0,0.0,0.0,0.0,-6.6999,-6.6999,-6.6999,-6.6999,-6.6999,-6.6999,-6.6999,-6.6999,-6.6999,-6.6999,-6.6999,-6.6999,-6.6999,-6.6999,-6.6999,-6.6999,-6.6999,-6.6999,-6.6999,-6.6999,-6.6999,-6.6999,-6.6999,-6.6999,-6.6999,-6.6999,-6.6999,-6.6999,-6.6999,-6.6999,-6.6999,-6.5543,-6.3692,-6.3692,-6.2242,-6.0234,-5.9638,-5.9429,-5.9315,-5.8638,-5.8523,-5.8523,-5.8523,-5.8523,-5.8523,-5.8523,-5.8523,-5.8523,-5.8523,-5.8523,-5.8523,-5.8523,-5.8523,-5.8523,-5.8523,-5.8523,-5.8523,-5.8523,-5.8523,-5.8523,-5.8523,-5.8523,-5.8523,-5.8523,-5.8287,-5.8,-5.7756,-5.6902,-5.6275,-5.5935,-5.5412,-5.5099,-5.5099,-5.5099,-5.5099,-5.5099,-5.5099,-5.5099,-5.5099,-5.5099,-5.5099,-5.5099,-5.5099,-5.4872,-5.909,0.0,-6.2263,-6.2933,-6.3801,-6.4576,0.0,0.0,-6.6999,0.0,-6.6999,0.0,0.0,0.0,0.0,0.0,0.0,0.0,0.0,0.0,0.0,0.0,0.0,0.0,0.0,0.0,0.0,0.0,-6.6999,-6.6999,-6.6999,-6.6999,-6.6999,-6.6999,-6.6999,-6.6999,-6.6999,-6.6999,-6.6999,-6.6999,-6.6999,-6.6999,-6.6999,-6.6999,-6.6785,-6.6476,-6.6846,-6.6999,-6.6999,-6.6999,-6.6999,-6.6999,-6.6999,-6.6785,-6.6476,-6.6476,-6.6476,-6.6476,-6.6476,-6.488,-6.2773,-6.2773,-6.0852,-5.8523,-5.8523,-5.8523,-5.8523,-5.8523,-5.8523,-5.8523,-5.8523,-5.8523,-5.8523,-5.8523,-5.8523,-5.8523,-5.8523,-5.8523,-5.8523,-5.8523,-5.8523,-5.8523,-5.8523,-5.8523,-5.8523,-5.8523,-5.8523,-5.8523,-5.8523,-5.8523,-5.8523,-5.8523,-5.8523,-5.834,-5.7921,-5.7346,-5.6771,-5.617,-5.5621,-5.5255,-5.5125,-5.5032,-5.5032,-5.5099,-5.4898,-5.4898,-5.4939,-5.4898,-5.4872,-5.4939,-5.4939,-5.4738,0.0,-5.8772,0.0,-6.2438,-6.309,0.0,0.0,0.0,0.0,0.0,0.0,0.0,0.0,0.0,0.0,0.0,0.0,0.0,0.0,0.0,0.0,0.0,0.0,0.0,0.0,0.0,0.0,0.0,-6.6999,-6.6999,-6.6999,-6.6999,-6.6999,-6.6999,-6.6999,-6.6999,-6.6999,-6.6999,-6.6999,-6.6999,-6.6999,-6.6999,-6.6999,-6.6999,-6.626,-6.5071,-6.6384,-6.6999,-6.6999,-6.6999,-6.6999,-6.6999,-6.6999,-6.6198,-6.5007,-6.5007,-6.5007,-6.5007,-6.5007,-6.4016,-6.2773,-6.2773,-6.0852,-5.8523,-5.8523,-5.8523,-5.8523,-5.8523,-5.8523,-5.8523,-5.8523,-5.8523,-5.8523,-5.8523,-5.8523,-5.8523,-5.8523,-5.8523,-5.8523,-5.8523,-5.8523,-5.8523,-5.8523,-5.8523,-5.8523,-5.8523,-5.8523,-5.8523,-5.8523,-5.8523,-5.8523,-5.8523,-5.8523,-5.8497,-5.847,-5.7948,-5.7373,-5.6798,-5.6196,-5.5647,-5.5125,-5.4712,-5.4712,-5.5099,-5.4402,-5.4174,-5.4511,-5.4174,-5.4241,-5.4511,-5.4511,-5.4376,0.0,0.0,0.0,-6.0323,-6.1762,-6.312,-6.3579,-6.5435,-6.6999,0.0,0.0,0.0,0.0,0.0,0.0,0.0,0.0,0.0,0.0,0.0,0.0,0.0,0.0,0.0,0.0,0.0,0.0,0.0,0.0,-6.6999,-6.6999,-6.6999,-6.6999,-6.6999,-6.6999,-6.6999,-6.6999,-6.6999,-6.6538,-6.5668,-6.5668,-6.5668,-6.5668,-6.5668,-6.5416,-6.4944,-6.5416,-6.5668,-6.5668,-6.5668,-6.6198,-6.6999,-6.6999,-6.6136,-6.488,-6.488,-6.4368,-6.3562,-6.3562,-6.2641,-6.1369,-6.1369,-6.0096,-5.8523,-5.8523,-5.8523,-5.8523,-5.8523,-5.8523,-5.8523,-5.8523,-5.8523,-5.8523,-5.8523,-5.8523,-5.8523,-5.8523,-5.8523,-5.8523,-5.8523,-5.8523,-5.8523,-5.8523,-5.8523,-5.8523,-5.8523,-5.8523,-5.8523,-5.8523,-5.8523,-5.8523,-5.8523,-5.8523,-5.8523,-5.8523,-5.8,-5.7651,-5.7373,-5.6798,-5.6086,-5.5336,-5.5148,-5.4831,-5.4402,-5.3929,-5.3929,-5.4511,-5.4174,-5.4064,-5.4174,-5.4174,-5.3997,-5.6855,0.0,0.0,0.0,0.0,-6.1845,-6.2811,0.0,0.0,0.0,0.0,0.0,0.0,0.0,0.0,0.0,0.0,0.0,0.0,0.0,0.0,0.0,0.0,0.0,0.0,0.0,0.0,0.0,0.0,0.0,-6.6999,-6.6999,-6.6999,-6.6999,-6.6999,-6.6999,-6.6999,-6.6538,-6.5794,-6.488,-6.4432,-6.4239,-6.421,-6.4688,-6.4339,-6.3468,-6.3952,-6.4239,-6.421,-6.4688,-6.548,-6.626,-6.626,-6.5416,-6.4146,-6.3627,-6.2877,-6.2042,-6.2042,-6.1436,-6.062,-6.062,-5.9638,-5.8523,-5.8523,-5.8523,-5.8523,-5.8523,-5.8523,-5.8523,-5.8523,-5.8523,-5.8523,-5.8523,-5.8523,-5.8523,-5.8523,-5.8523,-5.8523,-5.8523,-5.8523,-5.8523,-5.8523,-5.8523,-5.8523,-5.8523,-5.8523,-5.8523,-5.8523,-5.8523,-5.8523,-5.8523,-5.8523,-5.8523,-5.8523,-5.8157,-5.7869,-5.773,-5.7294,-5.6686,-5.5701,-5.5357,-5.4937,-5.4279,-5.3622,-5.3589,-5.4174,-5.3793,-5.3725,-5.3793,-5.3793,-5.3725,0.0,0.0,0.0,0.0,0.0,0.0,-6.2284,0.0,-6.5227,0.0,0.0,0.0,0.0,0.0,0.0,0.0,0.0,0.0,0.0,0.0,0.0,0.0,0.0,0.0,0.0,0.0,0.0,0.0,-6.6999,-6.6999,-6.6937,-6.6937,-6.6876,-6.6876,-6.6937,-6.6937,-6.6876,-6.5543,-6.488,-6.4752,-6.3366,-6.2707,-6.2773,-6.4146,-6.3206,-6.0688,-6.2109,-6.2707,-6.2773,-6.421,-6.4816,-6.4816,-6.4816,-6.3952,-6.2575,-6.1165,-6.0551,-6.0551,-6.0551,-6.0551,-6.0551,-6.0551,-5.9638,-5.8523,-5.8523,-5.8523,-5.8523,-5.8523,-5.8523,-5.8523,-5.8523,-5.8523,-5.8523,-5.8523,-5.8523,-5.8523,-5.8523,-5.8523,-5.8523,-5.8523,-5.8523,-5.8523,-5.8523,-5.8523,-5.8523,-5.8523,-5.8523,-5.8523,-5.8523,-5.8523,-5.8523,-5.8523,-5.8523,-5.8523,-5.8523,-5.8523,-5.8287,-5.7782,-5.7686,-5.7286,-5.6227,-5.5409,-5.4894,-5.4799,-5.3576,-5.3092,-5.3503,-5.3067,-5.3136,-5.3478,-5.3478,-5.3478,-5.502,0.0,0.0,0.0,0.0,0.0,-5.9883,-6.1744,-6.3757,0.0,0.0,0.0,0.0,0.0,0.0,0.0,0.0,0.0,0.0,0.0,0.0,0.0,0.0,0.0,0.0,0.0,0.0,0.0,-6.6999,-6.6538,-6.5543,-6.4496,-6.3952,-6.3952,-6.4944,-6.5007,-6.3952,-6.4624,-6.3887,-6.1746,-6.1369,-6.1233,-6.1233,-6.1611,-6.1341,-6.062,-6.1029,-6.0647,-5.9777,-6.1233,-6.2414,-6.3366,-6.3366,-6.2508,-6.1165,-6.0756,-5.9958,-5.9105,-5.9105,-5.9105,-5.9105,-5.9105,-5.885,-5.8523,-5.8523,-5.8523,-5.8523,-5.8523,-5.8523,-5.8523,-5.8523,-5.8523,-5.8523,-5.8523,-5.8523,-5.8523,-5.8523,-5.8523,-5.8523,-5.8523,-5.8523,-5.8523,-5.8523,-5.8523,-5.8523,-5.8523,-5.8523,-5.8523,-5.8523,-5.8523,-5.8523,-5.8523,-5.8523,-5.8523,-5.8523,-5.8523,-5.8444,-5.8287,-5.7978,-5.7436,-5.6444,-5.5938,-5.5375,-5.4688,-5.3853,-5.3551,-5.3621,-5.3105,-5.2929,-5.3067,-5.3067,-5.3067,-5.4894,-5.4937,0.0,0.0,0.0,0.0,-5.9102,-6.0615,-6.2309,0.0,0.0,0.0,0.0,0.0,0.0,0.0,0.0,0.0,0.0,0.0,0.0,0.0,0.0,0.0,0.0,-6.6136,-6.6136,-6.6136,-6.6136,-6.5731,-6.4944,-6.4081,-6.3431,-6.284,-6.3562,-6.3627,-6.2773,-6.3037,-6.2281,-6.062,-6.0027,-5.9707,-5.9777,-6.0372,-6.0303,-5.9777,-6.0372,-5.9777,-5.8567,-5.9359,-6.0578,-6.1908,-6.1908,-6.1369,-6.0551,-5.9958,-5.9175,-5.8523,-5.8523,-5.8523,-5.8523,-5.8523,-5.8523,-5.8523,-5.8523,-5.8523,-5.8523,-5.8523,-5.8381,-5.831,-5.8452,-5.8381,-5.8284,-5.8452,-5.8523,-5.8523,-5.8523,-5.8523,-5.8523,-5.8523,-5.8523,-5.8523,-5.8523,-5.8523,-5.8523,-5.8523,-5.8523,-5.8523,-5.8523,-5.8523,-5.8523,-5.8523,-5.8523,-5.8452,-5.8284,-5.8212,-5.8167,-5.8025,-5.781,-5.7369,-5.6652,-5.6234,-5.5669,-5.4913,-5.4361,-5.3934,-5.3708,-5.3181,-5.2929,-5.2929,-5.2929,-5.2929,-5.5523,-5.5523,-5.5618,0.0,0.0,0.0,-5.9073,-5.9845,-6.0688,-6.2175,0.0,0.0,0.0,0.0,0.0,0.0,0.0,0.0,0.0,0.0,0.0,0.0,0.0,0.0,-6.4688,-6.4816,-6.4816,-6.4688,-6.4496,-6.4403,-6.4403,-6.4274,-6.3627,-6.2375,-6.2442,-6.2508,-6.2309,-6.1165,-6.0483,-6.0345,-5.9105,-5.8523,-5.8523,-5.9777,-5.9707,-5.8594,-5.982,-5.9638,-5.8523,-5.8523,-5.9245,-6.0345,-6.0345,-6.0345,-6.0234,-5.8965,-5.8523,-5.8523,-5.8523,-5.8523,-5.8523,-5.8523,-5.8523,-5.8523,-5.8523,-5.8523,-5.8523,-5.8452,-5.8141,-5.7999,-5.831,-5.8141,-5.7999,-5.8381,-5.8452,-5.8452,-5.8452,-5.8355,-5.8381,-5.8452,-5.8452,-5.8452,-5.8452,-5.8452,-5.8452,-5.8452,-5.8452,-5.8452,-5.8523,-5.8452,-5.8452,-5.8523,-5.8452,-5.831,-5.7927,-5.7856,-5.7713,-5.7451,-5.7379,-5.7163,-5.6801,-5.6319,-5.585,-5.5491,-5.4938,-5.4386,-5.3808,-5.3281,-5.298,-5.2929,-5.2929,-5.2929,0.0,0.0,0.0,0.0,0.0,0.0,-5.7047,-5.7629,-5.8541,0.0,0.0,0.0,0.0,0.0,0.0,0.0,0.0,0.0,0.0,0.0,0.0,0.0,0.0,0.0,-6.3235,-6.421,-6.4432,-6.33,-6.2081,-6.1409,-6.1409,-6.0372,-5.9638,-5.9385,-6.0441,-6.051,-5.9385,-6.0165,-6.0027,-5.892,-5.8638,-5.8523,-5.8523,-5.8779,-5.8779,-5.8523,-5.8779,-5.8779,-5.8523,-5.8523,-5.8638,-5.892,-5.892,-5.892,-5.885,-5.8567,-5.8523,-5.8523,-5.8523,-5.8523,-5.8523,-5.8523,-5.8523,-5.8523,-5.8523,-5.8523,-5.8452,-5.807,-5.7927,-5.7856,-5.7667,-5.7739,-5.7927,-5.7999,-5.7999,-5.7999,-5.7999,-5.781,-5.7667,-5.7927,-5.7999,-5.7999,-5.7999,-5.7999,-5.7999,-5.7999,-5.7999,-5.8141,-5.8452,-5.8212,-5.8141,-5.8452,-5.8212,-5.7999,-5.7927,-5.7667,-5.7451,-5.7379,-5.7091,-5.6874,-5.6801,-5.641,-5.6116,-5.6043,-5.5516,-5.4938,-5.4386,-5.3833,-5.3331,-5.2929,-5.2929,-5.2929,0.0,0.0,0.0,-5.6107,0.0,0.0,0.0,-5.7174,-5.7667,0.0,0.0,0.0,0.0,0.0,0.0,0.0,0.0,0.0,0.0,0.0,0.0,0.0,0.0,0.0,-6.1706,-6.2347,-6.248,-6.1773,-6.1029,-6.062,-6.062,-5.9889,-5.9245,-5.8523,-5.9175,-5.9245,-5.8523,-5.9175,-5.9175,-5.8523,-5.8523,-5.8523,-5.8523,-5.8523,-5.8523,-5.8523,-5.8523,-5.8523,-5.8523,-5.8523,-5.8523,-5.8523,-5.8523,-5.8523,-5.8523,-5.8523,-5.8523,-5.8523,-5.8523,-5.8523,-5.8523,-5.8523,-5.8355,-5.8212,-5.8212,-5.8096,-5.7882,-5.7739,-5.7523,-5.7379,-5.7379,-5.7379,-5.7354,-5.7595,-5.7667,-5.7667,-5.7667,-5.7523,-5.7451,-5.7595,-5.7498,-5.7498,-5.7856,-5.7927,-5.7856,-5.7667,-5.7784,-5.7927,-5.7953,-5.7927,-5.7927,-5.7953,-5.7927,-5.7713,-5.7354,-5.7235,-5.7019,-5.6801,-5.6583,-5.651,-5.651,-5.6292,-5.6219,-5.6219,-5.5942,-5.5516,-5.4988,-5.4687,-5.411,-5.3306,-5.3306,-5.3181,0.0,0.0,0.0,0.0,0.0,-5.6801,0.0,0.0,0.0,0.0,0.0,0.0,0.0,0.0,0.0,0.0,0.0,0.0,0.0,0.0,0.0,0.0,0.0,0.0,0.0,-6.0234,-6.0303,-6.0551,-6.0345,-6.0234,-6.0234,-6.0234,-5.9707,-5.8523,-5.8523,-5.8523,-5.8523,-5.8523,-5.8523,-5.8523,-5.8523,-5.8523,-5.8523,-5.8523,-5.8523,-5.8523,-5.8523,-5.8523,-5.8523,-5.8523,-5.8523,-5.8523,-5.8523,-5.8523,-5.8523,-5.8523,-5.8523,-5.8523,-5.8426,-5.8452,-5.8523,-5.8452,-5.8141,-5.7856,-5.7784,-5.7595,-5.7379,-5.7307,-5.7019,-5.6874,-5.7091,-5.7019,-5.6874,-5.7235,-5.7307,-5.7307,-5.7307,-5.7235,-5.7163,-5.7235,-5.6946,-5.6946,-5.7569,-5.7713,-5.7569,-5.7307,-5.7523,-5.7641,-5.7451,-5.7595,-5.7569,-5.7451,-5.7595,-5.7426,-5.6874,-5.6729,-5.6583,-5.6219,-5.6219,-5.6219,-5.6219,-5.6219,-5.6219,-5.6219,-5.6219,-5.5993,-5.5541,-5.5541,-5.4963,-5.3858,-5.3858,-5.3582,0.0,0.0,0.0,0.0,-5.6292,0.0,0.0,0.0,0.0,0.0,0.0,0.0,0.0,0.0,0.0,0.0,0.0,0.0,0.0,0.0,0.0,0.0,0.0,0.0,0.0,-5.8709,-5.9245,-6.0483,-5.9429,-5.8709,-5.8709,-5.8709,-5.8638,-5.8523,-5.8523,-5.8523,-5.8523,-5.8523,-5.8523,-5.8523,-5.8523,-5.8523,-5.8523,-5.8523,-5.8523,-5.8523,-5.8523,-5.8523,-5.8523,-5.8523,-5.8523,-5.8523,-5.8523,-5.8523,-5.8523,-5.8523,-5.8523,-5.8452,-5.807,-5.8212,-5.8452,-5.807,-5.7927,-5.7856,-5.7523,-5.7451,-5.7307,-5.6946,-5.6874,-5.6729,-5.6438,-5.6583,-5.6801,-5.6874,-5.6874,-5.6874,-5.6874,-5.6583,-5.6438,-5.6801,-5.6583,-5.6438,-5.6874,-5.6946,-5.6946,-5.6874,-5.6874,-5.7019,-5.7379,-5.7091,-5.7019,-5.7379,-5.7091,-5.6874,-5.6801,-5.651,-5.6292,-5.6219,-5.6219,-5.6219,-5.6219,-5.6219,-5.6219,-5.6219,-5.6219,-5.6168,-5.6118,-5.6118,-5.5541,-5.4461,-5.4461,-5.416,0.0,0.0,0.0,0.0,0.0,0.0,-5.6292,0.0,-5.6292,0.0,0.0,0.0,0.0,0.0,0.0,0.0,0.0,0.0,0.0,0.0,0.0,0.0,0.0,0.0,0.0,0.0,0.0,0.0,-5.885,-5.8523,-5.8523,-5.8523,-5.8523,-5.8523,-5.8523,-5.8523,-5.8523,-5.8523,-5.8523,-5.8523,-5.8523,-5.8523,-5.8523,-5.8523,-5.8523,-5.8523,-5.8523,-5.8523,-5.8523,-5.8523,-5.8355,-5.8141,-5.8141,-5.8284,-5.8523,-5.8523,-5.8355,-5.8141,-5.7927,-5.7856,-5.781,-5.7354,-5.7282,-5.721,-5.6801,-5.6729,-5.6656,-5.651,-5.6438,-5.6438,-5.6219,-5.6365,-5.6438,-5.6438,-5.6438,-5.6438,-5.6438,-5.6292,-5.6292,-5.6438,-5.6292,-5.6292,-5.6438,-5.6656,-5.6729,-5.651,-5.6656,-5.6801,-5.6729,-5.6801,-5.6801,-5.6729,-5.6801,-5.6729,-5.651,-5.6292,-5.6219,-5.6219,-5.6219,-5.6219,-5.6219,-5.6219,-5.6219,-5.6219,-5.6219,-5.6219,-5.6219,-5.6219,-5.5968,-5.5516,-5.5189,-5.4737,-5.6558,0.0,0.0,0.0,0.0,0.0,0.0,0.0,0.0,0.0,0.0,0.0,0.0,0.0,0.0,0.0,0.0,0.0,0.0,0.0,0.0,0.0,0.0,0.0,0.0,0.0,0.0,0.0,0.0,-5.8523,-5.8523,-5.8523,-5.8523,-5.8523,-5.8523,-5.8523,-5.8523,-5.8523,-5.8523,-5.8523,-5.8523,-5.8523,-5.8523,-5.8523,-5.8523,-5.8523,-5.8523,-5.8523,-5.8523,-5.8381,-5.8141,-5.7856,-5.7784,-5.7927,-5.8239,-5.8239,-5.807,-5.7856,-5.7641,-5.7451,-5.7163,-5.6874,-5.6801,-5.6729,-5.6292,-5.6219,-5.6219,-5.6219,-5.6219,-5.6219,-5.6219,-5.6219,-5.6219,-5.6219,-5.6219,-5.6219,-5.6219,-5.6219,-5.6219,-5.6219,-5.6219,-5.6219,-5.6219,-5.6438,-5.651,-5.6219,-5.6438,-5.651,-5.6219,-5.6438,-5.651,-5.6219,-5.6438,-5.651,-5.6219,-5.6219,-5.6219,-5.6219,-5.6219,-5.6219,-5.6219,-5.6219,-5.6219,-5.6219,-5.6219,-5.6219,-5.6219,-5.6219,-5.6219,-5.6194,-5.5792,-5.5315,0.0,0.0,0.0,-5.6219,0.0,0.0,0.0,0.0,-5.6219,0.0,0.0,0.0,0.0,0.0,0.0,-5.4059,0.0,0.0,0.0,0.0,0.0,0.0,0.0,0.0,0.0,0.0,0.0,0.0,0.0,0.0,-5.8523,-5.8523,-5.8523,-5.8523,-5.8523,-5.8523,-5.8523,-5.8523,-5.8523,-5.8523,-5.8523,-5.8523,-5.8523,-5.8523,-5.8523,-5.8523,-5.8523,-5.8523,-5.8452,-5.807,-5.7927,-5.7856,-5.7523,-5.7451,-5.7451,-5.7451,-5.7667,-5.7784,-5.7065,-5.6801,-5.6801,-5.6801,-5.6801,-5.6729,-5.6292,-5.6219,-5.6219,-5.6219,-5.6219,-5.6219,-5.6219,-5.6219,-5.6219,-5.6219,-5.6219,-5.6219,-5.6219,-5.6219,-5.6219,-5.6219,-5.6219,-5.6219,-5.6219,-5.6219,-5.6219,-5.6219,-5.6219,-5.6219,-5.6219,-5.6219,-5.6219,-5.6219,-5.6219,-5.6219,-5.6219,-5.6219,-5.6219,-5.6219,-5.6219,-5.6219,-5.6219,-5.6219,-5.6219,-5.6219,-5.6219,-5.6219,-5.6219,-5.6219,-5.6219,-5.6219,-5.6194,-5.5892,0.0,0.0,-5.651,-5.6292,0.0,0.0,0.0,0.0,0.0,0.0,0.0,0.0,0.0,0.0,-5.6018,-5.5465,-5.5365,0.0,0.0,0.0,0.0,0.0,0.0,0.0,0.0,0.0,0.0,0.0,0.0,0.0,0.0,-5.8523,-5.8523,-5.8523,-5.8523,-5.8523,-5.8523,-5.8523,-5.8523,-5.8523,-5.8523,-5.8523,-5.8523,-5.8523,-5.8523,-5.8523,-5.8523,-5.8523,-5.8452,-5.807,-5.7784,-5.7523,-5.7163,-5.7019,-5.7019,-5.7307,-5.7307,-5.7091,-5.6583,-5.6438,-5.6438,-5.6438,-5.6438,-5.6365,-5.6219,-5.6219,-5.6219,-5.6219,-5.6219,-5.6219,-5.6219,-5.6219,-5.6219,-5.6219,-5.6219,-5.6219,-5.6219,-5.6219,-5.6219,-5.6219,-5.6219,-5.6219,-5.6219,-5.6219,-5.6219,-5.6219,-5.6219,-5.6219,-5.6219,-5.6219,-5.6219,-5.6219,-5.6219,-5.6219,-5.6219,-5.6219,-5.6219,-5.6219,-5.6219,-5.6219,-5.6219,-5.6219,-5.6219,-5.6219,-5.6219,-5.6219,-5.6219,-5.6219,-5.6219,-5.6219,-5.6219,-5.6118,-5.7299,-5.6928,0.0,-5.6292,-5.6365,0.0,-5.6292,0.0,0.0,0.0,0.0,0.0,0.0,0.0,0.0,-5.6219,-5.5742,0.0,0.0,-5.3867,0.0,0.0,0.0,0.0,0.0,0.0,0.0,0.0,0.0,0.0,0.0,0.0,-5.8523,-5.8523,-5.8523,-5.8523,-5.8523,-5.8523,-5.8523,-5.8523,-5.8523,-5.8523,-5.8523,-5.8355,-5.831,-5.8284,-5.8167,-5.8096,-5.8096,-5.7641,-5.7354,-5.7163,-5.6729,-5.6583,-5.6656,-5.6874,-5.6801,-5.6583,-5.6292,-5.6219,-5.6219,-5.6219,-5.6219,-5.6219,-5.6219,-5.6219,-5.6219,-5.6219,-5.6219,-5.6219,-5.6219,-5.6219,-5.6219,-5.6219,-5.6219,-5.6219,-5.6219,-5.6219,-5.6219,-5.6219,-5.6219,-5.6219,-5.6219,-5.6219,-5.6219,-5.6219,-5.6219,-5.6219,-5.6219,-5.6219,-5.6219,-5.6219,-5.6219,-5.6219,-5.6219,-5.6219,-5.6219,-5.6219,-5.6219,-5.6219,-5.6219,-5.6219,-5.6294,-5.6495,-5.6319,-5.6319,-5.6495,-5.6319,-5.6219,-5.6219,-5.6219,-5.6219]},{"header":{"parameterUnit":"m.s-1","parameterCategory":1,"la1":30.6,"la2":29.2853,"lo1":-89.7004,"lo2":-87.6739,"dy":0.0162,"dx":0.0183,"nx":112,"ny":82,"refTime":"2024-04-22T12:00:00:Z","depth":0,"parameterNumber":3,"parameterNumberName":"V-component_of_WINDS"},"data":[0.0,0.0,0.0,0.0,0.0,0.0,0.0,0.0,0.0,0.0,0.0,0.0,0.0,0.0,0.0,0.0,0.0,0.0,0.0,0.0,0.0,0.0,0.0,0.0,0.0,0.0,0.0,0.0,0.0,0.0,0.0,0.0,0.0,0.0,0.0,0.0,0.0,0.0,0.0,0.0,0.0,0.0,0.0,0.0,0.0,0.0,0.0,0.0,0.0,0.0,0.0,0.0,0.0,0.0,0.0,0.0,0.0,0.0,0.0,0.0,0.0,0.0,0.0,0.0,0.0,0.0,0.0,0.0,0.0,0.0,0.0,0.0,0.0,0.0,0.0,0.0,0.0,0.0,0.0,0.0,0.0,0.0,0.0,0.0,0.0,0.0,0.0,0.0,0.0,0.0,0.0,3.7141,3.793,3.8405,3.8492,3.8405,3.8347,3.8347,0.0,0.0,0.0,0.0,0.0,0.0,0.0,0.0,0.0,0.0,0.0,0.0,0.0,0.0,0.0,0.0,0.0,0.0,0.0,0.0,0.0,0.0,0.0,0.0,0.0,0.0,0.0,0.0,0.0,0.0,0.0,0.0,0.0,0.0,0.0,0.0,0.0,0.0,0.0,0.0,0.0,0.0,0.0,0.0,0.0,0.0,0.0,0.0,0.0,0.0,0.0,0.0,0.0,0.0,0.0,0.0,0.0,0.0,0.0,0.0,0.0,0.0,0.0,0.0,0.0,0.0,0.0,0.0,0.0,0.0,0.0,0.0,0.0,0.0,0.0,0.0,0.0,0.0,0.0,0.0,0.0,0.0,0.0,0.0,0.0,0.0,0.0,0.0,0.0,0.0,0.0,0.0,0.0,0.0,0.0,0.0,0.0,0.0,0.0,0.0,0.0,0.0,0.0,0.0,3.642,3.8611,3.8967,3.9247,3.977,3.9334,3.9044,3.9044,0.0,0.0,0.0,0.0,0.0,0.0,0.0,0.0,0.0,0.0,0.0,0.0,0.0,0.0,0.0,0.0,0.0,0.0,0.0,0.0,0.0,0.0,0.0,0.0,0.0,0.0,0.0,0.0,0.0,0.0,0.0,0.0,0.0,0.0,0.0,0.0,0.0,0.0,0.0,0.0,0.0,0.0,0.0,0.0,0.0,0.0,0.0,0.0,0.0,0.0,0.0,0.0,0.0,0.0,0.0,0.0,0.0,0.0,0.0,0.0,0.0,0.0,0.0,0.0,0.0,0.0,0.0,0.0,0.0,0.0,0.0,0.0,0.0,0.0,0.0,0.0,0.0,0.0,0.0,0.0,0.0,0.0,0.0,0.0,0.0,0.0,0.0,0.0,0.0,0.0,0.0,0.0,0.0,0.0,0.0,0.0,0.0,0.0,0.0,0.0,0.0,0.0,0.0,3.7665,3.8484,3.9576,3.9683,3.9799,4.0089,3.9857,3.9683,3.9683,3.9392,0.0,0.0,0.0,0.0,0.0,0.0,0.0,0.0,0.0,0.0,0.0,0.0,0.0,0.0,0.0,0.0,0.0,0.0,0.0,0.0,0.0,0.0,0.0,0.0,0.0,0.0,0.0,0.0,0.0,0.0,0.0,0.0,0.0,0.0,0.0,0.0,0.0,0.0,0.0,0.0,0.0,0.0,0.0,0.0,0.0,0.0,0.0,0.0,0.0,0.0,0.0,0.0,0.0,0.0,0.0,0.0,0.0,0.0,0.0,0.0,0.0,0.0,0.0,0.0,0.0,0.0,0.0,0.0,0.0,0.0,0.0,0.0,0.0,0.0,0.0,0.0,0.0,0.0,0.0,0.0,0.0,0.0,0.0,0.0,0.0,0.0,0.0,0.0,0.0,0.0,0.0,0.0,0.0,0.0,0.0,0.0,0.0,0.0,0.0,0.0,0.0,0.0,3.898,4.0147,4.0321,4.0321,4.0408,4.0554,4.0437,4.0321,4.0321,4.0176,0.0,0.0,0.0,0.0,0.0,0.0,0.0,0.0,0.0,0.0,0.0,0.0,0.0,0.0,0.0,0.0,0.0,0.0,0.0,0.0,0.0,0.0,0.0,0.0,0.0,0.0,0.0,0.0,0.0,0.0,0.0,0.0,0.0,0.0,0.0,0.0,0.0,0.0,0.0,0.0,0.0,0.0,0.0,0.0,0.0,0.0,0.0,0.0,0.0,0.0,0.0,0.0,0.0,0.0,0.0,0.0,0.0,0.0,0.0,0.0,0.0,0.0,0.0,0.0,0.0,0.0,0.0,0.0,0.0,0.0,0.0,0.0,0.0,0.0,0.0,0.0,0.0,0.0,0.0,0.0,0.0,0.0,0.0,0.0,0.0,0.0,0.0,0.0,0.0,0.0,0.0,0.0,0.0,0.0,0.0,0.0,0.0,0.0,0.0,0.0,0.0,0.0,3.898,4.0321,4.096,4.1018,4.1279,4.1918,4.1395,4.1018,4.1018,4.0437,0.0,0.0,0.0,0.0,0.0,0.0,0.0,0.0,0.0,0.0,0.0,0.0,0.0,0.0,0.0,0.0,0.0,0.0,0.0,0.0,0.0,0.0,0.0,0.0,0.0,0.0,0.0,0.0,0.0,0.0,0.0,0.0,0.0,0.0,0.0,0.0,0.0,0.0,0.0,0.0,0.0,0.0,0.0,0.0,0.0,0.0,0.0,0.0,0.0,0.0,0.0,0.0,0.0,0.0,0.0,0.0,0.0,0.0,0.0,0.0,0.0,0.0,0.0,0.0,0.0,0.0,0.0,0.0,0.0,0.0,0.0,0.0,0.0,0.0,0.0,0.0,0.0,0.0,0.0,0.0,0.0,0.0,0.0,0.0,0.0,0.0,0.0,0.0,0.0,0.0,0.0,0.0,0.0,0.0,0.0,0.0,0.0,0.0,0.0,0.0,0.0,0.0,3.9265,4.0516,0.0,4.1357,4.1831,4.2063,4.186,4.1715,4.1715,0.0,0.0,0.0,0.0,0.0,0.0,0.0,0.0,0.0,0.0,0.0,0.0,0.0,0.0,0.0,0.0,0.0,0.0,0.0,0.0,0.0,0.0,0.0,0.0,0.0,0.0,0.0,0.0,0.0,0.0,0.0,0.0,0.0,0.0,0.0,0.0,0.0,0.0,0.0,0.0,0.0,0.0,0.0,0.0,0.0,0.0,0.0,0.0,0.0,0.0,0.0,0.0,0.0,0.0,0.0,0.0,0.0,0.0,0.0,0.0,0.0,0.0,0.0,0.0,0.0,0.0,0.0,0.0,0.0,0.0,0.0,0.0,0.0,0.0,0.0,0.0,0.0,0.0,0.0,0.0,0.0,0.0,0.0,0.0,0.0,0.0,0.0,0.0,0.0,0.0,0.0,0.0,0.0,0.0,0.0,0.0,0.0,0.0,0.0,0.0,0.0,0.0,3.8463,3.9925,4.1098,0.0,4.2307,4.2702,4.2702,4.2498,4.2382,4.2382,0.0,0.0,0.0,0.0,0.0,0.0,0.0,0.0,0.0,0.0,0.0,0.0,0.0,0.0,0.0,0.0,0.0,0.0,0.0,0.0,0.0,0.0,0.0,0.0,0.0,0.0,0.0,0.0,0.0,0.0,0.0,0.0,0.0,0.0,0.0,0.0,0.0,0.0,0.0,0.0,0.0,0.0,0.0,0.0,0.0,0.0,0.0,0.0,0.0,0.0,0.0,0.0,0.0,0.0,0.0,0.0,0.0,0.0,0.0,0.0,0.0,0.0,0.0,0.0,0.0,0.0,0.0,0.0,0.0,0.0,0.0,0.0,0.0,0.0,0.0,0.0,0.0,0.0,0.0,0.0,0.0,0.0,0.0,0.0,0.0,0.0,0.0,0.0,0.0,0.0,0.0,0.0,0.0,0.0,0.0,0.0,0.0,0.0,0.0,0.0,0.0,0.0,3.9988,4.0985,4.2191,4.3791,4.3979,4.3979,4.3979,4.3369,4.2992,0.0,0.0,0.0,0.0,0.0,0.0,0.0,0.0,0.0,0.0,0.0,0.0,0.0,0.0,0.0,0.0,0.0,0.0,0.0,0.0,0.0,0.0,0.0,0.0,0.0,0.0,0.0,0.0,0.0,0.0,0.0,0.0,0.0,0.0,0.0,0.0,0.0,0.0,0.0,0.0,0.0,0.0,0.0,0.0,0.0,0.0,0.0,0.0,0.0,0.0,0.0,0.0,0.0,0.0,0.0,0.0,0.0,0.0,0.0,0.0,0.0,0.0,0.0,0.0,0.0,0.0,0.0,0.0,0.0,0.0,0.0,0.0,0.0,0.0,0.0,0.0,0.0,0.0,0.0,0.0,0.0,0.0,0.0,0.0,0.0,0.0,0.0,0.0,0.0,0.0,0.0,0.0,0.0,0.0,0.0,0.0,0.0,0.0,0.0,0.0,0.0,0.0,0.0,3.8537,3.947,4.0507,4.1736,4.2486,4.318,4.3936,4.3805,4.3689,4.3689,0.0,0.0,0.0,0.0,0.0,0.0,0.0,0.0,0.0,0.0,0.0,0.0,0.0,0.0,0.0,0.0,0.0,0.0,0.0,0.0,0.0,0.0,0.0,0.0,0.0,0.0,0.0,0.0,0.0,0.0,0.0,0.0,0.0,0.0,0.0,0.0,0.0,0.0,0.0,0.0,0.0,0.0,0.0,0.0,0.0,0.0,0.0,0.0,0.0,0.0,0.0,0.0,0.0,0.0,0.0,0.0,0.0,0.0,0.0,0.0,0.0,0.0,0.0,0.0,0.0,0.0,0.0,0.0,0.0,0.0,0.0,0.0,0.0,0.0,0.0,0.0,0.0,0.0,0.0,0.0,0.0,0.0,0.0,0.0,0.0,0.0,0.0,0.0,0.0,0.0,0.0,0.0,0.0,0.0,0.0,0.0,0.0,0.0,0.0,0.0,0.0,0.0,3.8834,3.9472,4.0298,4.1612,4.2222,4.2988,4.4012,4.39,4.3933,4.4356,0.0,0.0,0.0,0.0,0.0,0.0,0.0,0.0,0.0,0.0,0.0,0.0,0.0,0.0,0.0,0.0,0.0,0.0,0.0,0.0,0.0,0.0,0.0,0.0,0.0,0.0,0.0,0.0,0.0,0.0,0.0,0.0,0.0,0.0,0.0,0.0,0.0,0.0,0.0,0.0,0.0,0.0,0.0,0.0,0.0,0.0,0.0,0.0,0.0,0.0,0.0,0.0,0.0,0.0,0.0,0.0,0.0,0.0,0.0,0.0,0.0,0.0,0.0,0.0,0.0,0.0,0.0,0.0,0.0,0.0,0.0,0.0,0.0,0.0,0.0,0.0,0.0,0.0,0.0,0.0,0.0,0.0,0.0,0.0,0.0,0.0,0.0,0.0,0.0,0.0,0.0,0.0,0.0,0.0,0.0,0.0,0.0,0.0,0.0,0.0,0.0,0.0,4.0138,4.0415,4.0992,4.2496,4.2744,4.3252,4.4303,4.3927,4.4072,4.5009,0.0,0.0,0.0,0.0,0.0,0.0,0.0,0.0,0.0,0.0,0.0,0.0,0.0,0.0,0.0,0.0,0.0,0.0,0.0,0.0,0.0,0.0,0.0,0.0,0.0,0.0,0.0,0.0,0.0,0.0,0.0,0.0,0.0,0.0,0.0,0.0,0.0,0.0,0.0,0.0,0.0,0.0,0.0,0.0,0.0,0.0,0.0,0.0,0.0,0.0,0.0,0.0,0.0,0.0,0.0,0.0,0.0,0.0,0.0,0.0,3.9772,0.0,0.0,0.0,0.0,0.0,0.0,0.0,0.0,0.0,0.0,0.0,0.0,0.0,0.0,0.0,0.0,0.0,0.0,0.0,0.0,0.0,0.0,0.0,0.0,0.0,0.0,0.0,0.0,0.0,0.0,0.0,0.0,0.0,0.0,0.0,0.0,0.0,0.0,0.0,0.0,0.0,3.9803,4.0235,4.0773,4.1445,4.2306,4.3417,4.4967,4.5281,4.564,4.6343,4.5343,0.0,0.0,0.0,0.0,0.0,0.0,0.0,0.0,0.0,0.0,0.0,0.0,0.0,0.0,0.0,0.0,0.0,0.0,0.0,0.0,0.0,0.0,0.0,0.0,0.0,0.0,0.0,0.0,0.0,0.0,0.0,0.0,0.0,0.0,0.0,0.0,0.0,0.0,0.0,0.0,0.0,0.0,0.0,0.0,0.0,0.0,0.0,0.0,0.0,0.0,0.0,0.0,0.0,0.0,0.0,0.0,0.0,0.0,0.0,0.0,4.0475,0.0,0.0,0.0,0.0,0.0,0.0,0.0,0.0,0.0,0.0,0.0,0.0,0.0,0.0,0.0,0.0,0.0,0.0,0.0,0.0,0.0,0.0,0.0,0.0,0.0,0.0,0.0,0.0,0.0,0.0,0.0,0.0,0.0,0.0,0.0,0.0,0.0,0.0,0.0,0.0,4.0099,4.0099,4.0206,4.044,4.1419,4.256,4.398,4.5054,4.5941,4.6749,4.6185,0.0,0.0,0.0,0.0,0.0,0.0,0.0,0.0,0.0,0.0,0.0,0.0,0.0,0.0,0.0,0.0,0.0,0.0,0.0,0.0,0.0,0.0,0.0,0.0,0.0,0.0,0.0,0.0,0.0,0.0,0.0,0.0,0.0,0.0,0.0,0.0,0.0,0.0,0.0,0.0,0.0,0.0,0.0,0.0,0.0,0.0,0.0,0.0,0.0,0.0,0.0,0.0,0.0,4.3212,4.3263,4.3237,4.2785,4.264,4.2615,4.2108,4.1652,4.1275,4.1275,0.0,0.0,0.0,0.0,0.0,0.0,0.0,0.0,0.0,0.0,0.0,0.0,0.0,0.0,0.0,0.0,0.0,0.0,0.0,0.0,0.0,0.0,0.0,0.0,3.8366,3.8467,0.0,0.0,0.0,0.0,0.0,0.0,0.0,0.0,0.0,0.0,0.0,0.0,4.0953,4.0626,4.0375,4.0275,4.1388,4.2475,4.3318,4.4968,4.6225,4.7079,4.701,4.6766,0.0,0.0,0.0,0.0,0.0,0.0,0.0,0.0,0.0,0.0,0.0,0.0,0.0,0.0,0.0,0.0,0.0,0.0,0.0,0.0,0.0,0.0,0.0,0.0,0.0,0.0,0.0,0.0,0.0,0.0,0.0,0.0,4.276,4.276,0.0,0.0,0.0,0.0,0.0,0.0,0.0,0.0,0.0,0.0,0.0,0.0,0.0,4.2785,4.2861,4.3338,4.3614,4.3689,4.4192,4.4418,4.4392,4.4342,4.4292,4.4292,4.4217,0.0,4.1275,4.1275,0.0,0.0,0.0,0.0,0.0,0.0,0.0,0.0,0.0,0.0,0.0,0.0,0.0,0.0,0.0,0.0,0.0,0.0,0.0,0.0,0.0,0.0,3.8868,3.9371,3.9848,4.0325,0.0,3.9772,3.8894,3.9371,3.9848,0.0,0.0,0.0,0.0,0.0,0.0,0.0,4.271,4.3011,4.3087,4.2585,4.4413,4.5703,4.5806,4.732,4.8335,4.8431,4.7956,4.7608,4.7521,4.6911,0.0,0.0,0.0,0.0,0.0,0.0,0.0,0.0,0.0,0.0,0.0,0.0,0.0,0.0,0.0,0.0,0.0,0.0,0.0,0.0,0.0,0.0,0.0,0.0,0.0,0.0,0.0,0.0,0.0,4.2866,4.2986,4.2986,4.2986,4.2986,0.0,0.0,0.0,0.0,0.0,0.0,0.0,0.0,0.0,4.3438,4.374,4.389,4.389,4.4141,4.4267,4.4267,4.4518,4.4618,4.4618,4.4618,4.4618,4.4618,4.4618,4.4066,4.3106,4.2861,4.2735,4.266,0.0,0.0,0.0,0.0,4.1125,4.0924,4.0924,4.0827,0.0,4.0626,0.0,0.0,0.0,0.0,0.0,0.0,0.0,0.0,0.0,0.0,4.04,4.0953,4.1254,4.158,4.2133,4.1932,4.153,0.0,4.1279,4.1706,4.2585,0.0,0.0,0.0,0.0,4.3137,4.264,4.2459,4.2333,4.2082,4.3993,4.5478,4.5804,4.7971,4.9262,4.9262,4.9001,4.8682,4.8333,4.7695,4.7056,0.0,0.0,0.0,0.0,0.0,0.0,0.0,0.0,0.0,0.0,0.0,0.0,0.0,0.0,0.0,0.0,0.0,0.0,0.0,0.0,0.0,0.0,0.0,0.0,0.0,0.0,0.0,0.0,4.2986,4.2986,4.2986,4.2986,4.2986,0.0,0.0,0.0,0.0,0.0,0.0,4.3388,4.379,4.4016,4.4016,4.4543,4.4844,4.4844,4.5121,4.5271,4.5271,4.5397,4.5472,4.5472,4.5472,4.5472,4.5447,4.5321,4.5271,4.5196,4.4367,4.4016,4.394,4.3112,4.2785,4.2735,4.2333,4.2028,4.1902,4.1902,4.1882,4.1702,4.1702,4.1702,4.1681,4.1279,0.0,0.0,0.0,0.0,4.1702,4.1702,4.1856,4.2082,4.2484,4.274,4.2886,4.3313,4.3714,4.374,0.0,4.274,4.3037,4.3865,0.0,0.0,0.0,0.0,4.3689,4.3319,4.2861,4.272,4.3026,4.4653,4.5959,4.6569,4.866,4.9979,4.9979,4.9756,4.9524,4.9233,4.8449,4.7811,4.7271,0.0,0.0,0.0,0.0,0.0,0.0,0.0,0.0,0.0,0.0,0.0,0.0,0.0,0.0,0.0,0.0,0.0,0.0,0.0,0.0,0.0,0.0,0.0,0.0,0.0,0.0,0.0,0.0,0.0,4.2986,4.2986,0.0,0.0,0.0,0.0,4.3765,4.4242,4.4543,4.4543,4.4568,4.4593,4.4593,4.5146,4.5447,4.5447,4.6476,4.6943,4.6943,4.7506,4.7732,4.7732,4.7732,4.7732,4.7707,4.723,4.6943,4.6817,4.5246,4.4593,4.4568,4.4518,4.4493,4.4493,4.4468,4.4116,4.3664,4.3664,4.3338,4.2886,4.2886,4.2886,4.2886,4.2861,4.2861,0.0,0.0,4.2861,4.2886,4.2886,4.3288,4.3689,4.3714,4.4116,4.4518,4.4543,4.4568,4.4418,0.0,4.4141,4.4518,4.4568,0.0,4.5397,4.5397,4.5824,4.6125,4.61,4.6075,4.6501,4.76,4.8359,4.9036,4.9553,5.0233,5.0676,5.0676,5.0017,4.9979,5.054,4.9349,4.8653,4.8576,4.7387,0.0,0.0,0.0,0.0,0.0,0.0,0.0,0.0,0.0,0.0,0.0,0.0,0.0,0.0,0.0,0.0,0.0,0.0,0.0,0.0,0.0,0.0,0.0,0.0,0.0,0.0,0.0,0.0,4.3514,4.3815,0.0,4.4041,4.4217,4.4317,4.4317,4.4518,4.4794,4.5171,4.5522,4.5874,4.6225,4.6753,4.7054,4.7054,4.7807,4.8184,4.8184,4.8736,4.8812,4.846,4.846,4.8259,4.7908,4.7707,4.7631,4.7556,4.6627,4.5824,4.5146,4.4769,4.4618,4.4618,4.4618,4.4493,4.4317,4.4317,4.4192,4.4041,4.4041,4.4041,4.4041,4.4041,4.4041,4.4041,4.4041,4.4041,4.4041,4.4041,4.4192,4.4418,4.4794,4.5045,4.5271,4.5623,4.5698,4.5648,4.5447,4.5296,4.5296,4.5648,4.5874,4.5899,4.5547,4.5648,4.5648,4.5271,4.5221,4.5664,4.6882,4.7854,4.9008,5.0413,5.1001,5.1294,5.1294,5.1062,5.0859,5.0685,5.022,4.9988,4.9988,4.9117,4.8246,0.0,0.0,0.0,0.0,0.0,0.0,0.0,0.0,0.0,0.0,0.0,0.0,0.0,0.0,0.0,0.0,0.0,0.0,0.0,0.0,0.0,0.0,0.0,0.0,0.0,0.0,4.4091,4.4091,4.4392,4.4618,4.4618,4.497,4.5196,4.5196,4.5522,4.5899,4.6276,4.6828,4.7305,4.7682,4.8385,4.8761,4.8761,4.9339,4.9615,4.9615,4.9992,4.9967,4.9615,4.9615,4.9414,4.9038,4.8837,4.8636,4.8435,4.7908,4.7129,4.6225,4.5497,4.5196,4.5196,4.5196,4.5196,4.5196,4.5196,4.5196,4.5196,4.5196,4.5196,4.5196,4.5196,4.5196,4.5196,4.5196,4.5196,4.5196,4.5196,4.5196,4.5296,4.5673,4.5773,4.5874,4.6225,4.6301,4.6301,4.6301,4.6024,4.5874,4.625,4.6301,4.6175,4.5824,4.5773,4.5623,4.5246,4.5196,4.5788,4.7397,4.8104,4.9226,5.1335,5.1552,5.1701,5.1933,5.1527,5.1294,5.1374,5.0938,5.0772,5.1004,5.0336,4.9378,4.8101,0.0,0.0,0.0,0.0,0.0,0.0,0.0,0.0,0.0,0.0,0.0,0.0,0.0,0.0,0.0,0.0,0.0,0.0,0.0,0.0,0.0,0.0,0.0,4.4644,4.4644,4.4644,4.4669,4.4694,4.4694,4.4719,4.5723,4.6376,4.6376,4.7355,4.7958,4.7983,4.851,4.8837,4.8837,4.9891,5.0444,5.0444,5.1021,5.1297,5.1297,5.1322,5.1322,5.1297,5.1297,5.1297,5.1247,5.0695,5.0142,4.9615,4.9063,4.8485,4.7857,4.6778,4.6351,4.6351,4.6351,4.6351,4.6326,4.6326,4.6326,4.6301,4.6301,4.6301,4.6301,4.6301,4.6301,4.6301,4.6301,4.6301,4.6301,4.6301,4.6301,4.6326,4.6326,4.6326,4.6351,4.6351,4.6351,4.6351,4.6351,4.6351,4.6351,4.6326,4.6326,4.6326,4.6326,4.6351,0.0,4.6351,4.6351,4.7257,4.97,4.944,5.0049,5.2474,5.2049,5.1933,5.2594,5.1461,5.1316,5.2536,5.1432,5.1004,5.1614,5.1004,5.0046,4.874,0.0,0.0,0.0,0.0,0.0,0.0,0.0,0.0,0.0,0.0,0.0,0.0,0.0,0.0,0.0,0.0,0.0,0.0,0.0,0.0,0.0,4.5849,4.5547,4.4744,4.4995,4.5397,4.5799,4.62,4.6602,4.6979,4.728,4.7631,4.8058,4.836,4.8887,4.969,4.9866,5.0167,5.0569,5.0896,5.1046,5.1046,5.1599,5.1875,5.1875,5.2277,5.2277,5.1875,5.1875,5.1649,5.1272,5.1122,5.0946,5.077,5.0193,4.964,4.9012,4.7908,4.7481,4.7481,4.7481,4.723,4.6903,4.6903,4.6652,4.6301,4.6301,4.6301,4.6301,4.6301,4.6301,4.6301,4.6301,4.6301,4.6301,4.6301,4.6301,4.6401,4.6803,4.6903,4.7004,4.738,4.7481,4.7481,4.7481,4.7481,4.723,4.6451,4.6652,4.6903,4.6903,4.723,0.0,4.7481,4.7481,4.841,5.0972,5.1041,5.1763,5.3781,5.3384,5.2862,5.2652,5.2304,5.1991,5.1875,5.1991,5.1904,5.1614,5.1004,5.0249,0.0,0.0,0.0,0.0,0.0,0.0,0.0,0.0,0.0,0.0,0.0,0.0,0.0,0.0,0.0,0.0,0.0,0.0,0.0,0.0,0.0,0.0,4.6502,4.6426,4.5773,4.5974,4.6301,4.6627,4.7129,4.7682,4.8209,4.8485,4.8862,4.9414,4.969,5.0117,5.0745,5.0996,5.1272,5.1624,5.185,5.1975,5.1975,5.2277,5.2452,5.2452,5.2779,5.2754,5.2452,5.2452,5.2277,5.1975,5.1975,5.185,5.1599,5.1272,5.0795,0.0,0.0,0.0,0.0,0.0,4.7707,4.7456,4.7456,4.7255,4.6979,4.6979,4.6979,4.6979,4.6979,4.6979,4.6979,4.6979,4.6979,4.6979,4.6979,4.6979,4.7054,4.738,4.7456,4.7531,4.7832,4.7908,4.7908,4.7908,4.7908,0.0,4.7079,4.7255,4.7456,4.7456,4.7707,4.8094,4.8687,4.8748,4.9698,5.2215,5.2504,5.3134,5.4732,5.4517,0.0,0.0,0.0,5.2688,5.2049,5.2368,0.0,0.0,0.0,5.0888,5.0481,0.0,0.0,0.0,4.7869,4.7288,0.0,0.0,0.0,0.0,0.0,0.0,0.0,0.0,0.0,0.0,0.0,0.0,0.0,0.0,0.0,0.0,4.6803,4.7093,4.7143,4.733,4.7344,4.7344,4.7807,4.836,4.8987,4.949,5.0017,5.0569,5.1096,5.1398,5.1473,0.0,0.0,0.0,0.0,5.3005,5.3005,5.308,5.3105,5.3105,5.3105,5.3105,5.3105,5.3055,5.3005,5.3005,5.2955,5.2653,5.2201,5.2201,5.1875,5.1222,4.9665,4.8711,4.8184,4.8184,4.8109,4.8008,4.8008,0.0,0.0,4.7908,4.7908,4.7908,4.7908,4.7908,4.7908,4.7908,4.7908,4.7908,4.7908,4.7908,4.7933,4.7983,4.8008,4.8033,4.8083,4.8109,4.8109,4.8109,4.8109,4.8109,4.8109,4.8033,4.8008,4.8008,4.8058,4.8582,4.9907,5.0088,5.1023,5.3555,0.0,0.0,5.5423,5.5533,5.5474,5.5416,5.4284,5.3413,5.2972,5.2798,5.2688,5.2688,5.2049,5.1701,5.1614,5.1062,5.0772,5.0743,4.9436,4.8537,0.0,0.0,0.0,0.0,0.0,0.0,0.0,0.0,0.0,0.0,0.0,0.0,0.0,0.0,0.0,4.6842,4.6993,4.728,4.7707,4.8535,4.9113,4.9113,4.9213,4.9665,5.0695,5.0896,5.1172,5.1724,5.1875,5.2126,5.2578,5.2703,5.2779,5.2779,5.3281,5.3557,5.3557,5.4009,5.4235,5.4235,0.0,0.0,5.4235,5.3758,5.3557,5.3532,5.3105,5.2879,5.2779,5.2779,5.2452,5.1875,5.1096,5.0444,4.9941,4.9941,4.9364,4.8611,4.8611,4.8309,4.7908,4.7908,4.7908,4.7908,4.7908,4.7908,0.0,4.7908,4.7908,4.7908,4.7908,4.7908,4.8033,4.8485,4.8611,4.8711,4.9163,4.9264,4.9264,4.9264,4.9264,4.9264,4.9264,4.8887,4.8611,4.8611,4.8987,4.9749,5.0992,5.1178,5.2196,5.4814,5.5046,5.5395,5.6148,5.6229,5.5997,5.5445,5.472,5.4487,5.4836,5.3878,5.3326,5.3326,5.2717,5.2136,5.1614,5.1497,5.1439,5.141,5.0104,4.9436,0.0,0.0,0.0,0.0,0.0,0.0,0.0,0.0,0.0,0.0,0.0,4.6301,4.6301,0.0,4.6803,4.7043,4.7581,4.8134,4.8686,4.9464,4.9916,4.9615,5.0092,5.077,5.1599,5.1699,5.1925,5.2477,5.2754,5.303,5.3306,5.3582,5.3758,5.3758,5.4009,5.4135,5.4135,5.4411,5.4561,5.4561,5.4561,5.4561,5.4561,5.426,5.4135,5.411,5.3858,5.3582,5.3306,5.303,5.2754,5.2477,5.2226,5.1599,5.0845,5.0845,5.0494,5.0017,5.0017,4.964,4.9163,4.9163,4.8962,4.8761,4.8761,4.8761,4.8761,4.8761,4.8761,4.8761,4.8761,4.8761,4.8837,4.9113,4.9188,4.9264,4.954,4.959,4.959,4.959,4.959,4.969,4.9967,4.9766,4.9414,4.8862,4.9558,5.0462,5.1474,5.2413,5.3736,5.568,5.6166,5.648,5.6812,5.6868,5.6578,5.5939,5.562,5.5445,5.5416,5.4517,5.4168,5.4458,5.3849,5.3384,5.3065,5.2717,5.2397,5.2078,5.1091,5.0481,0.0,0.0,0.0,0.0,0.0,0.0,0.0,0.0,4.6301,4.6301,4.6301,4.6351,4.6451,4.6828,4.7143,4.7405,4.8284,4.9113,4.9665,5.0318,5.0569,5.0142,5.0896,5.1649,5.2201,5.2352,5.2603,5.303,5.3557,5.3858,5.3858,5.431,5.4561,5.4561,5.4662,5.4737,5.4737,5.4838,5.4888,5.4888,5.4888,5.4888,5.4888,5.4762,5.4737,5.4712,5.4612,5.4285,5.3833,5.3306,5.308,5.308,5.298,5.2377,5.1599,5.1473,5.1373,5.1272,5.1272,5.0971,5.0569,5.0569,5.0293,4.9916,4.9916,4.9916,4.9916,4.9916,4.9916,4.9916,4.9916,4.9916,4.9916,4.9916,4.9916,4.9916,4.9916,4.9916,4.9916,4.9916,4.9916,5.0067,5.0519,5.0569,5.0293,4.9389,5.0103,5.1118,5.2112,5.3416,5.4853,5.6411,5.6897,5.7187,5.7303,5.7303,5.71,5.6607,5.6578,5.6345,5.5794,5.5213,5.5039,5.5387,5.4923,5.4633,5.4517,5.4081,5.3559,5.292,5.2281,5.1585,4.4392,4.4895,4.5447,4.6075,4.6225,4.6225,0.0,0.0,4.6301,4.6301,4.6301,4.6451,4.6892,4.7043,4.7456,4.8435,4.9113,4.969,5.0243,5.1247,5.19,5.1825,5.1925,5.2226,5.2779,5.3256,5.3557,5.3607,5.4135,5.4461,5.4461,5.4536,5.4561,5.4561,5.5039,5.529,5.529,5.5792,5.6018,5.6018,5.6018,5.6018,5.6018,5.5516,5.529,5.5265,5.4787,5.4536,5.4436,5.3858,5.3607,5.3557,5.3105,5.2854,5.2678,5.2201,5.1699,5.1272,5.1272,5.1247,5.1197,5.1197,5.1147,5.1096,5.1096,5.1096,5.1096,5.1096,5.1096,5.1096,5.1096,5.1096,5.1096,5.1096,5.1096,5.1096,5.1096,5.1096,5.1096,5.1096,5.1096,5.1122,5.1172,5.1197,5.1147,5.1021,5.1129,5.1923,5.3793,5.3646,5.4363,5.6905,5.6781,5.6723,5.7245,5.7303,5.7274,5.7216,5.7216,5.7158,5.71,5.652,5.5939,5.5416,5.5329,5.5039,5.4517,5.4981,5.4894,5.4284,5.3617,5.2659,4.497,4.5547,4.6024,0.0,4.6301,4.6301,4.6301,4.6301,4.6401,4.6728,4.6803,4.6954,4.7481,4.7857,4.8335,0.0,4.9715,5.0393,5.1272,5.18,5.2327,5.2955,5.303,5.313,5.3356,5.3884,5.421,5.421,5.4737,5.5039,5.5039,5.534,5.5516,5.5516,5.5742,5.5867,5.5867,5.6093,5.6219,5.6219,5.6219,5.6219,5.6194,5.5968,5.5867,5.5842,5.529,5.5039,5.4988,5.4436,5.421,5.416,5.3582,5.3381,5.3306,5.2779,5.2427,5.2226,5.2226,5.2026,5.1749,5.1749,5.1548,5.1272,5.1272,5.1272,5.1272,5.1272,5.1272,5.1272,5.1272,5.1272,5.1272,5.1272,5.1272,5.1272,5.1272,5.1272,5.1272,5.1272,5.1272,5.1373,5.1699,5.1749,5.2119,5.3269,5.3231,5.326,5.3761,5.521,5.6618,5.777,5.7303,5.7042,5.7274,5.7303,5.7303,5.7303,5.7303,5.7303,5.7303,5.7071,5.681,5.652,5.652,5.6229,5.562,5.5881,5.5649,5.5039,5.4749,5.4139,4.5598,4.5999,0.0,4.6301,4.6301,4.6351,4.6502,4.6552,4.6702,4.723,4.7355,4.7506,4.8058,4.8611,4.9188,4.9741,5.0419,5.1222,5.2201,5.2452,5.2879,5.3833,5.4084,5.416,5.416,5.4536,5.4787,5.4787,5.5315,5.5616,5.5616,5.5993,5.6219,5.6219,5.6219,5.6219,5.6219,5.6219,5.6219,5.6219,5.6219,5.6219,5.6219,5.6219,5.6219,5.6194,5.5792,5.5616,5.5566,5.5013,5.4787,5.4737,5.416,5.3934,5.3884,5.3331,5.3055,5.2929,5.2929,5.2678,5.2327,5.2327,5.2076,5.1724,5.1724,5.1724,5.1724,5.1724,5.1724,5.1724,5.1724,5.1724,5.1724,5.1724,5.1724,5.1724,5.1724,5.1724,5.1724,5.1724,5.1724,5.1875,5.2251,5.2327,5.2793,5.4231,5.4766,5.4956,5.4786,5.6984,5.8493,5.8319,5.7884,5.7594,5.7594,5.7419,5.7303,5.7303,5.7303,5.7303,5.7303,5.7303,5.7303,5.7303,5.7303,5.71,5.6665,5.6665,5.6316,5.5678,5.5678,5.5358,4.6276,0.0,4.6301,4.6301,4.6301,4.6451,4.6979,4.7043,4.7255,4.7782,4.7883,4.8058,4.8636,4.9188,4.9741,5.0293,5.1322,5.2251,5.2829,5.3331,5.3884,5.4461,5.5013,5.534,0.0,5.534,5.5365,5.5365,5.5867,5.6194,5.6194,5.6194,5.6219,5.6219,5.6219,5.6219,5.6219,5.6219,5.6219,5.6219,5.6219,5.6219,5.6219,5.6219,5.6219,5.6219,5.6194,5.6194,5.6143,5.5591,5.5365,5.5315,5.4762,5.4536,5.4461,5.3884,5.3356,5.2929,5.2929,5.2929,5.2904,5.2904,5.2879,5.2879,5.2879,5.2879,5.2879,5.2879,5.2879,5.2879,5.2879,5.2879,5.2879,5.2879,5.2879,5.2879,5.2879,5.2879,5.2879,5.2879,5.2879,5.2879,5.2904,5.2904,5.2904,5.2929,5.5181,5.7186,5.7892,5.8742,5.9016,5.8377,5.829,5.8261,5.8261,5.7681,5.7303,5.7303,5.7303,5.7303,5.7303,5.7303,5.7303,5.7303,5.7303,5.7303,5.7274,5.7274,5.6955,5.6374,5.6374,5.6026,4.6301,0.0,4.6401,4.6753,4.6853,4.7004,4.7531,4.7657,4.7807,4.836,4.8761,4.9188,4.9766,5.0318,5.0896,5.1448,5.185,5.2427,5.3306,5.3582,5.4059,5.4988,5.5265,0.0,0.0,0.0,0.0,5.5942,5.6118,5.6219,5.6219,5.6219,5.6219,5.6219,5.6219,5.6219,5.6219,5.6219,5.6219,5.6219,5.6219,5.6219,5.6219,5.6219,5.6219,5.6219,5.6219,5.6219,5.6194,5.6018,5.5942,5.5892,5.534,5.5114,5.5039,5.4486,5.416,5.3909,5.3181,5.2929,5.2929,5.2929,5.2929,5.2929,5.2929,5.2929,5.2929,5.2929,5.2929,5.2929,5.2929,5.2929,5.2929,5.2929,5.2929,5.2929,5.2929,5.2929,5.2929,5.2929,5.2929,5.2929,5.2929,5.2929,5.3495,5.5366,5.639,5.7724,5.9851,5.9967,5.98,5.9568,5.919,5.8784,5.8348,5.8087,5.7768,5.7332,5.7303,5.7303,5.7303,5.7303,5.7303,5.7303,5.7303,5.7303,5.7303,5.7303,5.6984,5.6403,5.6403,5.6055,4.6552,4.6602,4.6728,4.728,4.7405,4.7556,4.8083,4.8209,4.8385,4.8962,4.9515,4.9992,5.0343,5.1046,5.1749,5.2302,5.2553,5.3055,5.416,5.431,5.4637,5.5566,5.5691,5.5817,0.0,0.0,0.0,5.6219,5.6219,5.6219,5.6219,5.6219,5.6219,5.6219,5.6219,5.6219,5.6219,5.6219,5.6219,5.6219,5.6219,5.6219,5.6219,5.6219,5.6219,5.6219,5.6219,5.6219,5.6219,5.6219,5.6219,5.6168,5.5817,5.5691,5.5616,5.5064,5.4863,5.4687,5.3582,5.3206,5.3181,5.298,5.2929,5.2929,5.2929,5.2929,5.2929,5.2929,5.2929,5.2929,5.2929,5.2929,5.2929,5.2929,5.2929,5.2929,5.2929,5.2929,5.2929,5.2929,5.2929,5.2854,5.2678,5.3012,5.4215,5.6968,5.7605,5.8592,6.0863,6.0816,6.0555,6.0555,6.0003,5.9451,5.9016,5.8552,5.8116,5.7681,5.7448,5.7303,5.7303,5.7303,5.7303,5.7303,5.7303,5.7303,5.7303,5.7303,5.71,5.6723,5.6723,5.649,4.6943,4.7093,4.7305,4.7832,4.7958,4.8109,4.8686,4.8812,4.8962,4.9515,5.0067,5.0469,0.0,0.0,5.2327,5.2854,5.3356,5.4084,5.5189,5.5365,5.5591,0.0,0.0,0.0,0.0,0.0,0.0,5.6219,0.0,5.6219,5.6219,5.6219,5.6219,5.6219,5.6219,5.6219,5.6219,5.6219,5.6219,5.6219,5.6219,5.6219,5.6219,5.6219,5.6219,5.6219,5.6219,5.6219,5.6219,5.6219,5.6219,5.6219,5.6219,5.6219,5.6143,5.5616,5.544,5.5265,5.416,5.3758,5.3632,5.313,5.2955,5.2929,5.2929,5.2929,5.2929,5.2929,5.2929,5.2929,5.2929,5.2929,5.2929,5.2929,5.2929,5.2929,5.2929,5.2929,5.2929,5.2929,5.2998,5.2822,5.2269,5.3391,5.521,5.7707,5.8699,5.9707,6.1013,6.1193,6.1193,6.1193,6.0642,6.0235,6.0206,5.9074,5.8348,5.829,5.7681,5.7303,5.7303,5.7303,5.7303,5.7303,5.7303,5.7303,5.7303,5.7303,5.7274,5.7245,5.7245,5.7245,4.7043,4.7405,4.7857,4.841,4.856,4.8711,4.9264,4.9389,4.954,5.0092,5.067,5.1197,0.0,0.0,0.0,5.2904,5.3356,0.0,5.4687,5.5139,0.0,5.6143,0.0,5.6219,5.6219,5.6219,0.0,0.0,5.6219,5.6219,5.6219,5.6219,5.6219,5.6219,5.6219,5.6219,5.6219,5.6219,5.6219,5.6219,5.6219,5.6219,5.6219,5.6219,5.6219,5.6219,5.6219,5.6219,5.6219,5.6219,5.6219,5.6219,5.6219,5.6219,5.6194,5.6068,5.6018,5.5892,5.5189,5.4411,5.3683,5.3557,5.3256,5.2929,5.2929,5.2929,5.2929,5.2929,5.2929,5.2929,5.2929,5.2929,5.2929,5.2929,5.2929,5.2929,5.2929,5.2929,5.2929,5.2929,5.3768,5.4237,5.3642,5.588,5.7889,5.8099,5.9526,6.0802,6.1133,6.1193,6.1193,6.1193,6.1048,6.0729,6.0235,5.948,5.8842,5.8348,5.7681,5.7303,5.7303,5.7303,5.7303,5.7303,5.7303,5.7303,5.7303,5.7303,5.7071,5.6636,5.6636,5.6636,4.7732,4.8058,4.841,4.8987,4.9138,4.9213,4.9515,4.959,4.9741,5.0293,5.087,0.0,5.2,5.2553,0.0,0.0,0.0,0.0,5.5164,5.5541,5.5867,0.0,5.6219,0.0,5.6219,5.6219,5.6219,0.0,5.6219,5.6219,5.6219,5.6219,5.6219,5.6219,5.6219,5.6219,5.6219,5.6219,5.6219,5.6219,5.6219,5.6219,5.6219,5.6219,5.6219,5.6219,0.0,5.6219,5.6219,5.6219,5.6219,5.6219,5.6219,5.6219,5.6219,5.6219,5.6219,5.6168,5.5867,5.5164,5.4411,5.416,5.3708,5.3256,5.3256,5.3105,5.2929,5.2929,5.2929,5.2929,5.2929,5.2929,5.2929,5.2929,5.2929,5.2929,5.2929,5.2929,5.2929,5.2929,5.3833,5.4695,5.4875,5.6828,5.8433,5.8924,5.999,6.0874,6.1164,6.1193,6.1193,6.1193,6.1193,6.1048,6.0671,6.0061,5.9422,5.8784,5.8116,5.7623,5.7303,5.7303,5.7303,5.7303,5.7303,5.7303,5.7303,5.7303,5.7129,5.681,5.681,5.681,4.8485,4.8812,4.8987,4.9464,4.959,4.959,4.959,4.959,4.9766,5.0393,0.0,5.1473,5.2101,5.2603,5.3256,5.4285,0.0,5.4938,5.5968,5.6168,5.6219,5.6219,5.6219,5.6219,5.6219,5.6219,5.6219,5.6219,5.6219,5.6219,5.6219,5.6219,5.6219,5.6219,5.6219,5.6219,5.6219,5.6219,5.6219,5.6219,5.6219,5.6219,5.6219,5.6219,5.6219,5.6219,5.6219,5.6219,5.6219,5.6219,5.6219,5.6219,5.6219,5.6219,5.6219,5.6219,5.6219,5.6219,5.6219,5.5892,5.5415,5.4863,5.4285,5.3808,5.3808,5.3457,5.303,5.303,5.298,5.2929,5.2929,5.2929,5.2929,5.2929,5.2929,5.2929,5.2929,5.2929,5.2929,5.311,5.387,5.4902,5.617,5.716,5.8323,5.9942,6.0264,6.0526,6.1135,6.1193,6.1193,6.1193,6.1193,6.1193,6.1193,6.0584,5.9974,5.9451,5.8726,5.8058,5.7448,5.7361,5.7303,5.7303,5.7303,5.7303,5.7303,5.7303,5.7303,5.7303,5.7303,5.7303,4.8586,4.9113,4.9464,4.9565,4.959,4.959,4.959,4.959,0.0,0.0,5.1222,5.1599,5.2603,5.2854,5.313,5.3758,5.426,5.4787,5.544,5.5917,5.6219,0.0,5.6219,5.6219,5.6219,5.6219,0.0,0.0,5.6219,5.6219,5.6219,5.6219,5.6219,5.6219,5.6219,5.6219,5.6219,5.6219,5.6219,5.6219,5.6219,5.6219,5.6219,5.6219,5.6219,5.6219,5.6219,0.0,5.6219,5.6219,5.6219,5.6219,5.6219,5.6219,5.6219,5.6219,5.6219,5.6219,5.6219,5.6143,5.5968,5.5415,5.4863,5.4411,5.4411,5.4009,5.3557,5.3557,5.3256,5.2929,5.2929,5.2929,5.2929,5.2929,5.2929,5.2929,5.2929,5.2929,5.3247,5.4418,5.5617,5.6776,5.7605,5.9265,6.0461,6.0264,6.0671,6.1077,6.1193,6.1193,6.1193,6.1193,6.1193,6.1193,6.1193,6.0584,6.0148,6.0061,5.8958,5.8261,5.8145,5.7594,5.7303,5.7303,5.7303,5.7303,5.7303,5.7303,5.7303,5.7303,5.7303,5.7303,4.8962,4.9389,4.959,4.959,4.959,4.959,4.959,0.0,0.0,0.0,5.1272,5.1624,5.2729,5.2929,0.0,5.4009,5.4386,5.4863,5.5691,5.6043,0.0,0.0,0.0,0.0,0.0,5.6219,5.6219,5.6219,0.0,5.6219,5.6219,5.6219,5.6219,5.6219,5.6219,5.6219,5.6219,5.6219,5.6219,5.6219,5.6219,5.6219,5.6219,5.6219,5.6219,5.6219,5.6219,0.0,5.6219,5.6219,5.6219,5.6219,5.6219,5.6219,5.6219,5.6219,5.6219,5.6219,5.6219,5.6219,5.6168,5.5892,5.544,5.4988,5.4988,5.4587,5.4084,5.3783,5.3507,5.3281,5.3005,5.2929,5.2929,5.2929,5.2929,5.2929,5.2929,5.2929,5.3316,5.4753,5.609,5.7341,5.8451,5.9801,6.0555,6.0235,6.0467,6.0671,6.0671,6.099,6.1193,6.1193,6.1193,6.1193,6.1193,6.0903,6.0555,6.0206,5.9335,5.8668,5.8319,5.7652,5.7303,5.7303,5.7303,5.7303,5.7303,5.7303,5.7303,5.7303,5.7303,5.7303,4.9289,4.959,4.959,4.959,4.959,4.959,4.959,4.959,0.0,5.0896,5.1197,5.1574,5.2578,5.2854,5.3281,0.0,5.4561,5.4938,5.6068,0.0,0.0,0.0,0.0,0.0,0.0,0.0,0.0,0.0,0.0,0.0,5.6219,5.6219,5.6219,5.6219,5.6219,5.6219,5.6219,5.6219,5.6219,5.6219,5.6219,5.6219,5.6219,5.6219,5.6219,5.6219,5.6219,0.0,0.0,5.6219,5.6219,5.6219,5.6219,5.6219,5.6219,5.6219,5.6219,5.6219,5.6219,5.6219,5.6219,5.6219,5.5917,5.5566,5.5566,5.5189,5.4637,5.4185,5.3984,5.3758,5.3231,5.308,5.3055,5.2955,5.2929,5.2929,5.2929,5.2929,5.3384,5.5127,5.6287,5.7551,5.9245,6.004,6.038,6.0206,6.0322,6.0351,6.0206,6.0787,6.1193,6.1193,6.1193,6.1193,6.1193,6.1193,6.099,6.0438,5.9829,5.919,5.8552,5.7884,5.7448,5.7303,5.7303,5.7303,5.7303,5.7303,5.7303,5.7303,5.7303,5.7303,4.9289,4.959,4.959,4.959,4.959,4.959,4.959,0.0,0.0,5.0368,5.0921,5.1473,5.2076,5.2578,5.3281,5.4386,5.4561,5.4938,5.6068,0.0,0.0,0.0,0.0,0.0,0.0,0.0,0.0,0.0,0.0,0.0,5.6219,5.6219,5.6219,5.6219,5.6219,5.6219,5.6219,5.6219,5.6219,5.6219,5.6219,5.6219,5.6219,5.6219,5.6219,5.6219,5.6219,0.0,0.0,5.6219,5.6219,5.6219,5.6219,5.6219,5.6219,5.6219,5.6219,5.6219,5.6219,5.6219,5.6219,5.6219,5.6168,5.6143,5.6143,5.5742,5.529,5.5239,5.4863,5.4361,5.3783,5.3632,5.3507,5.303,5.2929,5.2929,5.2929,5.2929,5.37,5.6325,5.6909,5.787,6.0531,6.1075,6.0903,6.0293,6.0729,6.0874,6.0264,6.0787,6.1193,6.1193,6.1193,6.1193,6.1193,6.1193,6.1164,6.1106,6.0467,5.9829,5.9248,5.8552,5.7913,5.7303,5.7303,5.7303,5.7303,5.7303,5.7303,5.7303,5.7303,5.7303,4.8887,4.9339,4.959,4.959,4.959,4.959,4.959,0.0,4.9741,5.0293,5.087,5.1448,5.2,5.2553,5.3281,5.4386,5.4561,5.4938,5.6068,0.0,0.0,0.0,0.0,0.0,0.0,0.0,0.0,0.0,0.0,0.0,5.6219,5.6219,5.6219,5.6219,5.6219,5.6219,5.6219,5.6219,5.6219,5.6219,5.6219,5.6219,5.6219,5.6219,5.6219,5.6219,5.6219,0.0,0.0,5.6219,5.6219,5.6219,5.6219,5.6219,5.6219,5.6219,5.6219,5.6219,5.6219,5.6219,5.6219,5.6219,5.6219,5.6219,5.6219,5.6068,5.5817,5.5491,5.5239,5.4938,5.4361,5.3959,5.3658,5.3432,5.3155,5.2929,5.2929,5.3589,5.4727,5.665,5.7679,5.8905,6.0863,6.1193,6.0961,6.0293,6.0758,6.0961,6.0293,6.0787,6.1193,6.1193,6.1193,6.1193,6.1193,6.1193,6.1193,6.1193,6.0555,5.9916,5.9335,5.8668,5.8,5.7303,5.7303,5.7303,5.7303,5.7303,5.7303,5.7303,5.7303,5.7303,4.856,4.9063,4.9389,4.9565,4.959,4.959,0.0,0.0,4.9715,5.0092,5.077,5.1398,5.18,5.2452,5.3281,5.4386,5.4561,5.4938,5.6068,5.6219,0.0,0.0,0.0,5.6219,0.0,5.6219,5.6219,0.0,0.0,0.0,5.6219,5.6219,5.6219,5.6219,5.6219,5.6219,5.6219,5.6219,5.6219,5.6219,5.6219,5.6219,5.6219,5.6219,5.6219,5.6219,5.6219,0.0,0.0,5.6219,5.6219,5.6219,5.6219,5.6219,5.6219,5.6219,5.6219,5.6219,5.6219,5.6219,5.6219,5.6219,5.6219,5.6219,5.6219,5.6219,5.6118,5.5742,5.5516,5.529,5.4913,5.4386,5.3909,5.3733,5.3432,5.3174,5.3478,5.4283,5.5525,5.7295,5.8404,5.9555,6.0952,6.1193,6.0961,6.0293,6.0758,6.0961,6.0293,6.0787,6.1193,6.1193,6.1193,6.1193,6.1193,6.1193,6.1193,6.1193,6.0758,6.0206,5.9597,5.8958,5.829,5.7623,5.739,5.7303,5.7303,5.7303,5.7303,5.7303,5.7303,5.7303,4.8485,4.8786,4.8912,4.9464,4.959,4.959,0.0,4.959,4.959,4.9615,5.0494,5.1272,5.1297,5.2176,5.3281,5.4386,5.4561,5.4938,5.6068,5.6219,0.0,0.0,0.0,5.6219,5.6219,5.6219,0.0,0.0,0.0,0.0,5.6219,5.6219,5.6219,5.6219,5.6219,5.6219,5.6219,5.6219,5.6219,5.6219,5.6219,5.6219,5.6219,5.6219,5.6219,0.0,0.0,0.0,0.0,5.6219,5.6219,5.6219,5.6219,5.6219,5.6219,5.6219,5.6219,5.6219,5.6219,5.6219,5.6219,5.6219,5.6219,5.6219,5.6219,5.6219,5.6219,5.6194,5.5817,5.539,5.539,5.4963,5.4411,5.3833,5.3708,5.3948,5.479,5.502,5.5789,5.8529,5.9121,5.9555,6.0952,6.1193,6.0961,6.0293,6.0758,6.0961,6.0293,6.0787,6.1193,6.1193,6.1193,6.1193,6.1193,6.1193,6.1193,6.1193,6.1193,6.0874,6.0206,5.9626,5.8987,5.829,5.7652,5.7303,5.7303,5.7303,5.7303,5.7303,5.7303,5.7303,4.7556,4.8209,4.8812,4.8987,4.9314,4.959,4.959,4.959,4.959,4.959,5.0494,5.1272,5.1272,5.2176,5.3281,5.4386,5.4561,5.4938,0.0,0.0,0.0,5.6219,5.6219,5.6219,0.0,0.0,5.6219,0.0,0.0,0.0,5.6219,5.6219,5.6219,5.6219,5.6219,5.6219,5.6219,5.6219,5.6219,5.6219,5.6219,5.6219,5.6219,5.6219,5.6219,0.0,0.0,0.0,0.0,5.6219,5.6219,5.6219,5.6219,5.6219,5.6219,5.6219,5.6219,5.6219,5.6219,5.6219,5.6219,5.6219,5.6219,5.6219,5.6219,5.6219,5.6219,5.6219,5.6093,5.5942,5.5942,5.5541,5.5089,5.4888,5.426,5.405,5.5258,5.5961,5.6909,5.8718,5.9891,6.0681,6.1133,6.1193,6.1135,6.0903,6.0671,6.0613,6.0845,6.0671,6.07,6.1164,6.1193,6.1193,6.1193,6.1193,6.1193,6.1193,6.1193,6.0903,6.0235,5.9626,5.8987,5.8319,5.7652,5.7303,5.7303,5.7303,5.7303,5.7303,5.7303,5.7303,4.7079,4.7631,4.8259,4.8661,4.9038,4.9339,4.954,4.959,4.959,4.959,5.0494,5.1272,5.1272,5.2176,5.3281,5.4386,5.4561,5.4938,0.0,0.0,0.0,5.6219,0.0,0.0,0.0,5.6219,5.6219,5.6219,0.0,0.0,5.6219,5.6219,5.6219,5.6219,5.6219,5.6219,5.6219,5.6219,5.6219,5.6219,5.6219,5.6219,5.6219,5.6219,5.6219,0.0,0.0,0.0,0.0,5.6219,5.6219,5.6219,5.6219,5.6219,5.6219,5.6219,5.6219,5.6219,5.6219,5.6219,5.6219,5.6219,5.6219,5.6219,5.6219,5.6219,5.6219,5.6219,5.6219,5.6219,5.6219,5.5968,5.5641,5.544,5.4687,5.4493,5.6194,5.6819,5.7551,5.9493,6.0621,6.1193,6.1193,6.1193,6.1193,6.1193,6.1048,6.099,6.1164,6.1019,6.099,6.1164,6.1193,6.1193,6.1193,6.1193,6.1193,6.1193,6.1193,6.1019,6.0584,5.9974,5.9335,5.8697,5.8029,5.7565,5.7303,5.7303,5.7303,5.7303,5.7565,5.7681,0.0,4.7043,4.738,4.8435,4.8736,4.8912,4.9464,4.959,0.0,4.964,5.0519,5.1297,5.1322,5.2201,5.3281,5.4386,5.4561,0.0,0.0,5.6219,0.0,0.0,5.6219,0.0,5.6219,5.6219,5.6219,5.6219,0.0,0.0,5.6219,5.6219,5.6219,5.6219,5.6219,5.6219,5.6219,5.6219,5.6219,5.6219,5.6219,5.6219,5.6219,5.6219,5.6219,0.0,0.0,0.0,0.0,5.6219,5.6219,5.6219,5.6219,5.6219,5.6219,5.6219,5.6219,5.6219,5.6219,5.6219,5.6219,5.6219,5.6219,5.6219,5.6219,5.6219,5.6219,5.6219,5.6219,5.6219,5.6219,5.6219,5.6068,5.5566,5.506,5.5369,5.749,5.7499,5.7933,6.0681,6.1193,6.1193,6.1193,6.1193,6.1222,6.1251,6.1687,6.1832,6.1338,6.1716,6.1803,6.1251,6.1193,6.1193,6.1193,6.1193,6.1193,6.1193,6.1193,6.1193,6.1193,6.0555,5.9916,5.9306,5.8639,5.8,5.7361,5.7419,5.7448,5.7448,5.8087,5.8377,4.6476,0.0,4.728,4.7933,4.8435,4.8912,0.0,4.959,4.9715,5.0142,5.0795,5.1423,5.1825,5.2477,5.3281,5.4386,5.4561,5.4938,5.6068,0.0,0.0,5.6219,5.6219,5.6219,5.6219,5.6219,5.6219,0.0,0.0,5.6219,5.6219,5.6219,5.6219,5.6219,5.6219,5.6219,5.6219,5.6219,5.6219,5.6219,5.6219,5.6219,5.6219,5.6219,5.6219,0.0,0.0,0.0,5.6219,5.6219,5.6219,5.6219,5.6219,5.6219,5.6219,5.6219,5.6219,5.6219,5.6219,5.6219,5.6219,5.6219,5.6219,5.6219,5.6219,5.6219,5.6219,5.6219,5.6219,5.6219,5.6219,5.6219,5.6168,5.6043,5.6071,5.6572,5.8173,5.8576,5.9121,6.0863,6.1193,6.1193,6.1193,6.1193,6.1367,6.1803,6.16,6.1513,6.1832,6.16,6.1367,6.1222,6.1193,6.1193,6.1193,6.1193,6.1193,6.1193,6.1193,6.1193,6.1193,6.0555,5.9916,5.9306,5.8639,5.8232,5.8058,5.8581,5.8842,5.8842,5.8987,5.9074,4.6301,4.6702,4.7255,4.7782,4.8335,4.8912,4.9464,4.959,4.9741,5.0293,5.087,5.1448,5.2,5.2754,5.3557,5.4436,5.4787,0.0,0.0,0.0,5.6219,5.6219,5.6219,5.6219,0.0,5.6219,5.6219,0.0,0.0,5.6219,5.6219,5.6219,5.6219,5.6219,5.6219,5.6219,5.6219,5.6219,5.6219,5.6219,5.6219,5.6219,5.6219,5.6219,5.6219,0.0,0.0,0.0,5.6219,5.6219,5.6219,5.6219,5.6219,5.6219,5.6219,5.6219,5.6219,5.6219,5.6219,5.6219,5.6219,5.6219,5.6219,5.6219,5.6219,5.6219,5.6219,5.6219,5.6219,5.6219,5.6219,5.6219,5.634,5.704,5.6899,5.7146,5.9265,5.9392,5.9493,6.0923,6.1193,6.1193,6.1193,6.1193,6.1396,6.2006,6.2064,6.218,6.2499,6.2267,6.1948,6.1658,6.1367,6.1193,6.1193,6.1193,6.1193,6.1193,6.1193,6.1193,6.1193,6.0845,6.0351,5.9742,5.9074,5.8755,5.8755,5.9132,5.9306,5.9306,5.9568,5.9713,4.6301,4.6778,4.7355,4.7807,4.8335,4.8912,4.9464,4.9665,4.9866,5.0419,5.1021,5.1574,5.2126,5.303,5.3884,5.4461,5.5089,0.0,5.6143,5.6219,5.6219,5.6219,5.6219,0.0,5.6219,5.6219,5.6219,0.0,0.0,5.6219,5.6219,5.6219,5.6219,5.6219,5.6219,5.6219,5.6219,5.6219,5.6219,5.6219,5.6219,5.6219,5.6219,5.6219,5.6219,5.6219,0.0,0.0,5.6219,5.6219,5.6219,5.6219,5.6219,5.6219,5.6219,5.6219,5.6219,5.6219,5.6219,5.6219,5.6219,5.6219,5.6219,5.6219,5.6219,5.6219,5.6219,5.6219,5.6219,5.6219,5.6219,5.634,5.6823,5.8063,5.7781,5.7932,6.0338,6.0118,5.9768,6.1013,6.1193,6.1193,6.1193,6.128,6.1542,6.2151,6.2819,6.3225,6.3225,6.3167,6.2848,6.2151,6.1542,6.1193,6.1193,6.1193,6.1193,6.1193,6.1193,6.1193,6.1193,6.1106,6.0787,6.0206,5.9684,5.9451,5.9451,5.9539,5.9597,5.9597,6.0119,6.0351,4.6301,4.7029,4.7807,4.7883,4.8335,4.8912,4.9464,4.9967,5.0469,5.1021,5.1599,5.2151,5.2703,5.3281,5.3884,5.4461,5.5415,5.6118,0.0,0.0,5.6219,5.6219,0.0,5.6219,5.6219,5.6219,5.6219,0.0,0.0,5.6219,5.6219,5.6219,5.6219,5.6219,5.6219,5.6219,5.6219,5.6219,5.6219,5.6219,5.6219,5.6219,5.6219,5.6219,5.6219,5.6219,0.0,5.6219,5.6219,5.6219,5.6219,5.6219,5.6219,5.6219,5.6219,5.6219,5.6219,5.6219,5.6219,5.6219,5.6219,5.6219,5.6219,5.6219,5.6219,5.6219,5.6219,5.6219,5.6219,5.6219,5.6219,5.7112,5.8134,5.8347,5.9359,6.0338,6.0818,6.0898,6.0952,6.1133,6.1193,6.1193,6.1193,6.1629,6.218,6.2848,6.3486,6.3893,6.3893,6.3428,6.2848,6.2151,6.1542,6.1193,6.1193,6.1193,6.1193,6.1193,6.1193,6.1193,6.1193,6.0642,6.0293,6.0206,6.0119,6.0061,6.0061,6.0642,6.0903,6.0903,6.099,6.1048,4.6301,4.7079,4.7908,4.7908,4.856,4.9364,4.9916,5.0243,5.067,5.1548,5.1925,5.2352,5.3181,5.3808,5.4461,5.5315,5.5892,5.6219,5.6219,5.6219,5.6219,0.0,0.0,5.6219,5.6219,5.6219,0.0,0.0,0.0,0.0,5.6219,5.6219,5.6219,5.6219,5.6219,5.6219,5.6219,5.6219,5.6219,5.6219,5.6219,5.6219,5.6219,5.6219,5.6219,5.6219,0.0,5.6219,5.6219,5.6219,5.6219,5.6219,5.6219,5.6219,5.6219,5.6219,5.6219,5.6219,5.6219,5.6219,5.6219,5.6219,5.6219,5.6219,5.6219,5.6219,5.6219,5.6219,5.6219,5.6412,5.7184,5.7876,5.8841,6.0387,6.0833,6.1139,6.1959,6.1636,6.1193,6.1193,6.1193,6.1193,6.1193,6.1687,6.2325,6.2993,6.3632,6.4154,6.4502,6.369,6.2964,6.2674,6.1774,6.1193,6.1193,6.1193,6.1193,6.1193,6.1193,6.1193,6.1193,6.0903,6.0729,6.0729,6.0729,6.0729,6.0729,6.1048,6.1193,6.1193,6.1193,6.1193,4.6476,4.7179,4.7933,4.8083,4.8862,4.9741,5.0293,5.0519,5.0896,5.19,5.2201,5.2578,5.3532,5.4285,5.5089,5.6068,5.6219,5.6219,5.6219,5.6219,5.6219,5.6219,5.6219,5.6219,5.6219,5.6219,0.0,0.0,0.0,0.0,5.6219,5.6219,5.6219,5.6219,5.6219,5.6219,5.6219,5.6219,5.6219,5.6219,5.6219,5.6219,5.6219,5.6219,5.6219,5.6219,5.6219,5.6219,5.6219,5.6219,5.6219,5.6219,5.6219,5.6219,5.6219,5.6219,5.6219,5.6219,5.6219,5.6219,5.6219,5.6219,5.6219,5.6219,5.6219,5.6219,5.6219,5.6219,5.6412,5.6968,5.8063,5.8885,6.0,6.2242,6.2106,6.1741,6.2894,6.2093,6.1193,6.1193,6.1193,6.1251,6.1396,6.1919,6.2558,6.3225,6.3864,6.4444,6.4909,6.4009,6.3254,6.3109,6.2093,6.1338,6.1222,6.1193,6.1193,6.1193,6.1193,6.1193,6.1193,6.1193,6.1193,6.1193,6.1193,6.1193,6.1193,6.1193,6.1193,6.1193,6.1193,6.1193,4.6928,4.7481,4.8033,4.8586,4.9163,4.9741,5.0293,5.082,5.1398,5.1975,5.2503,5.303,5.3607,5.4587,5.5516,5.6118,5.6219,5.6219,5.6219,0.0,5.6219,5.6219,5.6219,5.6219,5.6219,0.0,0.0,0.0,0.0,0.0,5.6219,5.6219,5.6219,5.6219,5.6219,5.6219,5.6219,5.6219,5.6219,5.6219,5.6219,5.6219,5.6219,5.6219,5.6219,5.6219,5.6219,5.6219,5.6219,5.6219,5.6219,5.6219,5.6219,5.6219,5.6219,5.6219,5.6219,5.6219,5.6219,5.6219,5.6219,5.6219,5.6219,5.6219,5.6219,5.6219,5.6219,5.6219,5.7184,5.8276,5.8347,6.0455,6.2508,6.2773,6.2844,6.2956,6.308,6.2093,6.1193,6.1193,6.1193,6.1367,6.1948,6.2587,6.3225,6.3864,6.4502,6.4938,6.4967,6.4386,6.3748,6.3167,6.2441,6.1803,6.1251,6.1193,6.1193,6.1193,6.1193,6.1193,6.1193,6.1193,6.1193,6.1193,6.1193,6.1193,6.1193,6.1193,6.1193,6.1193,6.1193,6.1193,4.6918,4.7506,4.8134,4.9063,4.969,5.0268,5.082,5.1398,5.195,5.2503,5.303,5.3683,5.4587,5.539,5.5968,5.6168,5.6219,5.6219,5.6219,5.6219,5.6219,5.6219,5.6219,5.6219,5.6219,0.0,0.0,0.0,0.0,0.0,5.6219,5.6219,5.6219,5.6219,5.6219,5.6219,5.6219,5.6219,5.6219,5.6219,5.6219,5.6219,5.6219,5.6219,5.6219,5.6219,5.6219,5.6219,5.6219,5.6219,5.6219,5.6219,5.6219,5.6219,5.6219,5.6219,5.6219,5.6219,5.6219,5.6219,5.6219,5.6219,5.6219,5.6219,5.6219,5.6219,5.6412,5.7328,5.863,5.9793,5.9793,6.1273,6.3037,6.3944,6.3919,6.3574,6.3167,6.2383,6.1658,6.128,6.1193,6.1396,6.2006,6.2645,6.3312,6.3888,6.459,6.4996,6.4996,6.4415,6.3806,6.3167,6.2151,6.1454,6.1222,6.1193,6.1193,6.1193,6.1193,6.1193,6.1193,6.1193,6.1193,6.1193,6.1193,6.1193,6.1193,6.1193,6.1193,6.1193,6.1193,6.1193,4.723,4.7782,4.846,4.9565,5.0268,5.0845,5.1398,5.1825,5.2302,5.303,5.3733,5.4461,5.5239,5.5842,5.6219,0.0,5.6219,5.6219,5.6219,5.6219,5.6219,5.6219,5.6219,5.6219,0.0,0.0,0.0,0.0,0.0,0.0,0.0,5.6219,5.6219,5.6219,5.6219,5.6219,5.6219,5.6219,5.6219,5.6219,5.6219,5.6219,5.6219,5.6219,5.6219,5.6219,5.6219,5.6219,5.6219,5.6219,5.6219,5.6219,5.6219,5.6219,5.6219,5.6219,5.6219,5.6219,5.6219,5.6219,5.6219,5.6219,5.6219,5.6219,5.6219,5.6219,5.6485,5.8018,5.9445,6.0688,6.1165,6.2375,6.3749,6.4775,6.4502,6.3859,6.3486,6.2703,6.2035,6.1832,6.1629,6.1745,6.2558,6.308,6.3603,6.4241,6.4706,6.4996,6.4996,6.4619,6.4009,6.3167,6.2122,6.1396,6.1222,6.1193,6.1193,6.1193,6.1193,6.1193,6.1193,6.1193,6.1193,6.1193,6.1193,6.1193,6.1193,6.1193,6.1193,6.1193,6.1193,6.1193,4.7782,4.8335,4.9038,5.0142,5.087,5.1423,5.1975,5.2126,5.2427,5.3507,5.4612,5.539,5.539,5.5842,0.0,5.6219,5.6219,5.6219,5.6219,5.6219,5.6219,5.6219,5.6219,5.6219,0.0,0.0,0.0,0.0,0.0,0.0,0.0,5.6219,5.6219,5.6219,5.6219,5.6219,5.6219,5.6219,5.6219,5.6219,5.6219,5.6219,5.6219,5.6219,5.6219,5.6219,5.6219,5.6219,5.6219,5.6219,5.6219,5.6219,5.6219,5.6219,5.6219,5.6219,5.6219,5.6219,5.6219,5.6219,5.6219,5.6219,5.6219,5.6219,5.6219,5.6219,5.6558,5.8018,5.9445,6.0961,6.2442,6.3879,6.4996,6.4996,6.4502,6.3975,6.3975,6.3022,6.2296,6.2964,6.2558,6.2499,6.3806,6.3975,6.4241,6.488,6.4996,6.4996,6.4996,6.4967,6.4502,6.3225,6.2499,6.1861,6.1251,6.1193,6.1193,6.1193,6.1193,6.1193,6.1193,6.1193,6.1193,6.1193,6.1193,6.1193,6.1193,6.1193,6.1193,6.1193,6.1193,6.1193,4.8259,4.8636,4.9138,5.0645,5.1147,5.1523,5.2477,5.2955,5.3532,5.4662,5.5139,5.5516,5.5892,5.6093,0.0,5.6219,5.6219,5.6219,5.6219,5.6219,5.6219,5.6219,0.0,0.0,0.0,0.0,0.0,0.0,0.0,0.0,0.0,5.6219,5.6219,5.6219,5.6219,5.6219,5.6219,5.6219,5.6219,5.6219,5.6219,5.6219,5.6219,5.6219,5.6219,5.6219,5.6219,5.6219,5.6219,5.6219,5.6219,5.6219,5.6219,5.6219,5.6219,5.6219,5.6219,5.6219,5.6219,5.6219,5.6219,5.6219,5.6219,5.6219,5.6219,5.6895,5.8089,5.9515,6.1029,6.2508,6.3944,6.4647,6.4996,6.4996,6.4851,6.459,6.4062,6.3656,6.3399,6.3138,6.2935,6.3051,6.383,6.3975,6.4241,6.488,6.4996,6.4996,6.4996,6.459,6.4009,6.3167,6.2499,6.1861,6.1251,6.1193,6.1193,6.1193,6.1193,6.1193,6.1193,6.1193,6.1193,6.1193,6.1193,6.1193,6.1193,6.1193,6.1193,6.1193,6.1193,6.1193,4.8586,4.9088,4.9715,5.0971,5.1448,5.195,5.3281,5.3833,5.431,5.5189,5.5566,5.5817,5.6143,5.6219,0.0,5.6219,5.6219,5.6219,5.6219,5.6219,5.6219,0.0,0.0,0.0,0.0,0.0,0.0,0.0,0.0,0.0,0.0,5.6219,5.6219,5.6219,5.6219,5.6219,5.6219,5.6219,5.6219,5.6219,5.6219,5.6219,5.6219,5.6219,5.6219,5.6219,5.6219,5.6219,5.6219,5.6219,5.6219,5.6219,5.6219,5.6219,5.6219,5.6219,5.6219,5.6219,5.6219,5.6219,5.6219,5.6219,5.6219,5.6219,5.6219,5.7256,5.8701,6.0208,6.1639,6.3131,6.4647,6.4996,6.4996,6.4996,6.4996,6.488,6.4502,6.4212,6.4009,6.3864,6.3632,6.3661,6.4299,6.4415,6.4532,6.4938,6.4996,6.4996,6.4996,6.4648,6.4183,6.3545,6.2877,6.2238,6.16,6.1338,6.1193,6.1193,6.1193,6.1193,6.1193,6.1193,6.1193,6.1193,6.1193,6.1193,6.1193,6.1193,6.1193,6.1193,6.1193,6.1193,4.8837,4.9615,5.0544,5.1147,5.1724,5.2603,5.421,5.4561,5.4737,5.534,5.5867,5.6219,5.6219,5.6219,5.6219,5.6219,5.6219,5.6219,5.6219,5.6219,0.0,0.0,0.0,0.0,0.0,0.0,0.0,0.0,0.0,0.0,0.0,5.6219,5.6219,5.6219,5.6219,5.6219,5.6219,5.6219,5.6219,5.6219,5.6219,5.6219,5.6219,5.6219,5.6219,5.6219,5.6219,5.6219,5.6219,5.6219,5.6219,5.6219,5.6219,5.6219,5.6219,5.6219,5.6219,5.6219,5.6219,5.6219,5.6219,5.6219,5.6219,5.6219,5.634,5.7446,5.8912,6.0414,6.184,6.3328,6.4647,6.4996,6.4996,6.4996,6.4996,6.4996,6.4996,6.4532,6.4299,6.488,6.4532,6.4299,6.488,6.4996,6.4996,6.4996,6.4996,6.4996,6.4996,6.4996,6.4735,6.4033,6.3457,6.2819,6.2151,6.1542,6.1193,6.1193,6.1193,6.1193,6.1193,6.1193,6.1193,6.1193,6.1193,6.1193,6.1193,6.1193,6.1193,6.1193,6.1193,6.1193,4.9289,4.9916,5.0544,5.1147,5.2026,5.308,5.4285,5.4561,5.4838,5.5842,5.6118,5.6219,5.6219,5.6219,5.6219,5.6219,5.6219,5.6219,5.6219,5.6219,0.0,0.0,0.0,0.0,0.0,0.0,0.0,0.0,0.0,0.0,5.6219,5.6219,5.6219,5.6219,5.6219,5.6219,5.6219,5.6219,5.6219,0.0,5.6219,5.6219,5.6219,5.6219,5.6219,5.6219,5.6219,5.6219,5.6219,5.6219,5.6219,5.6219,5.6219,5.6219,5.6219,5.6219,5.6219,5.6219,5.6219,5.6219,5.6219,5.6219,5.6219,5.6412,5.759,5.8982,6.0414,6.1908,6.3394,6.4583,6.4932,6.4996,6.4996,6.4996,6.4996,6.4996,6.4996,6.488,6.4822,6.4967,6.488,6.4822,6.4967,6.4996,6.4996,6.4996,6.4996,6.4996,6.4996,6.4996,6.4735,6.4033,6.3457,6.2819,6.2151,6.1542,6.1193,6.1193,6.1193,6.1193,6.1193,6.1193,6.1193,6.1193,6.1193,6.1193,6.1193,6.1193,6.1193,6.1193,6.1193,6.1193,4.9841,5.0393,5.1021,5.1875,5.2678,5.3507,5.4386,5.4762,5.5189,5.6043,5.6219,5.6219,5.6219,5.6219,5.6219,5.6219,5.6219,5.6219,0.0,0.0,0.0,0.0,0.0,0.0,0.0,0.0,0.0,0.0,0.0,5.6219,5.6219,5.6219,5.6219,5.6219,5.6219,5.6219,5.6219,5.6219,5.6219,5.6219,5.6219,5.6219,5.6219,5.6219,5.6219,5.6219,5.6219,5.6219,5.6219,5.6219,5.6219,5.6219,5.6219,5.6219,5.6219,5.6219,5.6219,5.6219,5.6219,5.6703,5.7231,5.7231,5.7733,5.8418,5.9236,6.0483,6.184,6.2575,6.3879,6.4996,6.4996,6.4996,6.4996,6.4996,6.4996,6.4996,6.4996,6.4996,6.4996,6.4996,6.4996,6.4996,6.4996,6.4996,6.4996,6.4996,6.4996,6.4996,6.4996,6.4996,6.4851,6.4532,6.3922,6.3283,6.2616,6.2006,6.1513,6.1222,6.1193,6.1193,6.1193,6.1193,6.1193,6.1193,6.1193,6.1193,6.1193,6.1193,6.1193,6.1193,6.1193,6.1193,5.0398,5.0921,5.1674,5.2678,5.3306,0.0,5.4436,5.4988,5.5541,5.6093,5.6219,5.6219,5.6219,5.6219,5.6219,5.6219,5.6219,0.0,0.0,0.0,0.0,0.0,0.0,0.0,0.0,0.0,0.0,0.0,0.0,5.6219,5.6219,5.6219,5.6219,5.6219,5.6219,5.6219,5.6219,5.6219,5.6219,5.6219,5.6219,5.6219,5.6219,5.6219,5.6219,5.6219,5.6219,5.6219,5.6219,5.6219,5.6219,5.6219,5.6219,5.6219,5.6219,5.6219,5.6219,5.6219,5.6219,5.7184,5.8418,5.8418,5.9375,6.062,6.0893,6.184,6.284,6.3131,6.4074,6.4996,6.4996,6.4996,6.4996,6.4996,6.4996,6.4996,6.4996,6.4996,6.4996,6.4996,6.4996,6.4996,6.4996,6.4996,6.4996,6.4996,6.4996,6.4996,6.4996,6.4996,6.4996,6.4996,6.4415,6.3835,6.3312,6.2558,6.189,6.1396,6.1251,6.1193,6.1193,6.1193,6.1193,6.1193,6.1193,6.1193,6.1193,6.1193,6.1193,6.1193,6.1193,6.1253,5.0893,5.1197,5.2151,5.2779,5.3306,5.3858,0.0,0.0,5.5541,0.0,5.6219,5.6219,5.6219,5.6219,5.6219,0.0,0.0,0.0,0.0,0.0,0.0,0.0,0.0,0.0,0.0,0.0,0.0,0.0,5.6219,5.6219,5.6219,5.6219,5.6219,5.6219,5.6219,5.6219,5.6219,5.6219,5.6219,5.6219,5.6219,5.6219,5.6219,5.6219,5.6219,5.6219,5.6219,5.6219,5.6219,5.6219,5.6219,5.6219,5.6219,5.6219,5.6219,5.6219,5.6219,5.6219,5.6219,5.7184,5.8418,5.8418,5.9375,6.0825,6.2109,6.2641,6.3066,6.4361,6.4839,6.4996,6.4996,6.4996,6.4996,6.4996,6.4996,6.4996,6.4996,6.4996,6.4996,6.4996,6.4996,6.4996,6.4996,6.4996,6.4996,6.4996,6.4996,6.4996,6.4996,6.4996,6.4996,6.4996,6.4415,6.3946,6.3859,6.279,6.2064,6.1977,6.1483,6.1193,6.1193,6.1193,6.1193,6.1193,6.1193,6.1193,6.1193,6.1193,6.1193,6.1193,6.1193,6.1344,5.2725,5.2505,5.2628,0.0,5.3557,5.426,5.4511,5.5239,5.5917,5.6168,5.6219,5.6219,5.6219,0.0,0.0,0.0,0.0,0.0,0.0,0.0,0.0,0.0,0.0,0.0,0.0,0.0,0.0,0.0,5.6219,5.6219,5.6219,5.6219,5.6219,5.6219,5.6219,5.6219,5.6219,5.6219,5.6219,5.6219,5.6219,5.6219,5.6219,5.6219,5.6219,5.6219,5.6219,5.6219,5.6219,5.6219,5.6219,5.6219,5.6219,5.6219,5.6219,5.6219,5.6219,5.6219,5.6219,5.7733,5.9654,5.9654,6.1165,6.3197,6.3814,6.4009,6.4167,6.4839,6.4996,6.4996,6.4996,6.4996,6.4996,6.4996,6.4996,6.4996,6.4996,6.4996,6.4996,6.4996,6.4996,6.4996,6.4996,6.4996,6.4996,6.4996,6.4996,6.4996,6.4996,6.4996,6.4996,6.4996,6.4735,6.4415,6.4004,6.3196,6.2499,6.2122,6.1542,6.1193,6.1193,6.1193,6.1193,6.1193,6.1193,6.1193,6.1193,6.1193,6.1193,6.1193,6.1193,6.1344,5.4622,0.0,5.3768,5.3042,5.4012,5.5031,0.0,0.0,5.6219,0.0,5.6219,0.0,0.0,0.0,0.0,0.0,0.0,0.0,0.0,0.0,0.0,0.0,0.0,0.0,0.0,0.0,0.0,0.0,5.6219,5.6219,5.6219,5.6219,5.6219,5.6219,5.6219,5.6219,5.6219,5.6219,5.6219,5.6219,5.6219,5.6219,5.6219,5.6219,5.6412,5.6776,5.634,5.6219,5.6219,5.6219,5.6219,5.6219,5.6219,5.6412,5.6776,5.6776,5.6776,5.6776,5.6776,5.8418,6.062,6.062,6.2603,6.4996,6.4996,6.4996,6.4996,6.4996,6.4996,6.4996,6.4996,6.4996,6.4996,6.4996,6.4996,6.4996,6.4996,6.4996,6.4996,6.4996,6.4996,6.4996,6.4996,6.4996,6.4996,6.4996,6.4996,6.4996,6.4996,6.4996,6.4996,6.4996,6.4996,6.4793,6.4328,6.369,6.3051,6.2383,6.1774,6.1367,6.1222,6.1253,6.1253,6.1193,6.1373,6.1373,6.1284,6.1373,6.1344,6.1284,6.1284,6.1464,0.0,5.6385,0.0,5.3563,5.4722,0.0,0.0,0.0,0.0,0.0,0.0,0.0,0.0,0.0,0.0,0.0,0.0,0.0,0.0,0.0,0.0,0.0,0.0,0.0,0.0,0.0,0.0,0.0,5.6219,5.6219,5.6219,5.6219,5.6219,5.6219,5.6219,5.6219,5.6219,5.6219,5.6219,5.6219,5.6219,5.6219,5.6219,5.6219,5.6968,5.8205,5.6823,5.6219,5.6219,5.6219,5.6219,5.6219,5.6219,5.704,5.8276,5.8276,5.8276,5.8276,5.8276,5.9306,6.062,6.062,6.2603,6.4996,6.4996,6.4996,6.4996,6.4996,6.4996,6.4996,6.4996,6.4996,6.4996,6.4996,6.4996,6.4996,6.4996,6.4996,6.4996,6.4996,6.4996,6.4996,6.4996,6.4996,6.4996,6.4996,6.4996,6.4996,6.4996,6.4996,6.4996,6.4996,6.4996,6.4967,6.4938,6.4357,6.3719,6.308,6.2412,6.1803,6.1222,6.1434,6.1434,6.1193,6.1761,6.191,6.1613,6.191,6.185,6.1613,6.1613,6.1732,0.0,0.0,0.0,5.5762,5.61,5.6461,5.6003,5.601,5.6219,0.0,0.0,0.0,0.0,0.0,0.0,0.0,0.0,0.0,0.0,0.0,0.0,0.0,0.0,0.0,0.0,0.0,0.0,0.0,0.0,5.6219,5.6219,5.6219,5.6219,5.6219,5.6219,5.6219,5.6219,5.6219,5.6703,5.759,5.759,5.759,5.759,5.759,5.7876,5.8347,5.7876,5.759,5.759,5.759,5.704,5.6219,5.6219,5.7112,5.8418,5.8418,5.8982,5.9793,5.9793,6.0756,6.2042,6.2042,6.3328,6.4996,6.4996,6.4996,6.4996,6.4996,6.4996,6.4996,6.4996,6.4996,6.4996,6.4996,6.4996,6.4996,6.4996,6.4996,6.4996,6.4996,6.4996,6.4996,6.4996,6.4996,6.4996,6.4996,6.4996,6.4996,6.4996,6.4996,6.4996,6.4996,6.4996,6.4996,6.4996,6.4415,6.3888,6.3719,6.308,6.2564,6.2135,6.2197,6.2112,6.1761,6.2175,6.2175,6.1613,6.191,6.2057,6.191,6.191,6.2116,5.9132,0.0,0.0,0.0,0.0,5.7797,5.6804,0.0,0.0,0.0,0.0,0.0,0.0,0.0,0.0,0.0,0.0,0.0,0.0,0.0,0.0,0.0,0.0,0.0,0.0,0.0,0.0,0.0,0.0,0.0,5.6219,5.6219,5.6219,5.6219,5.6219,5.6219,5.6219,5.6703,5.7446,5.8418,5.8912,5.9122,5.9096,5.863,5.8956,5.9835,5.9375,5.9122,5.9096,5.863,5.7804,5.6968,5.6968,5.7876,5.9166,5.9723,6.0455,6.1369,6.1369,6.1975,6.2773,6.2773,6.3814,6.4996,6.4996,6.4996,6.4996,6.4996,6.4996,6.4996,6.4996,6.4996,6.4996,6.4996,6.4996,6.4996,6.4996,6.4996,6.4996,6.4996,6.4996,6.4996,6.4996,6.4996,6.4996,6.4996,6.4996,6.4996,6.4996,6.4996,6.4996,6.4996,6.4996,6.4996,6.4996,6.459,6.427,6.3975,6.3632,6.3233,6.2959,6.2846,6.2643,6.244,6.2645,6.2468,6.191,6.2292,6.2351,6.2292,6.2292,6.2351,0.0,0.0,0.0,0.0,0.0,0.0,5.7324,0.0,5.8089,0.0,0.0,0.0,0.0,0.0,0.0,0.0,0.0,0.0,0.0,0.0,0.0,0.0,0.0,0.0,0.0,0.0,0.0,0.0,5.6219,5.6219,5.6292,5.6292,5.6365,5.6365,5.6292,5.6292,5.6365,5.7733,5.8418,5.856,6.0,6.0688,6.062,5.9166,6.0112,6.2707,6.1301,6.0688,6.062,5.9096,5.8489,5.8489,5.8489,5.9375,6.0825,6.2242,6.284,6.284,6.284,6.284,6.284,6.284,6.3814,6.4996,6.4996,6.4996,6.4996,6.4996,6.4996,6.4996,6.4996,6.4996,6.4996,6.4996,6.4996,6.4996,6.4996,6.4996,6.4996,6.4996,6.4996,6.4996,6.4996,6.4996,6.4996,6.4996,6.4996,6.4996,6.4996,6.4996,6.4996,6.4996,6.4996,6.4996,6.4996,6.4996,6.4735,6.4033,6.4067,6.3902,6.3693,6.3321,6.3148,6.3178,6.3147,6.2993,6.2644,6.2963,6.2905,6.2615,6.2615,6.2615,6.1106,0.0,0.0,0.0,0.0,0.0,5.9883,5.9886,5.9584,0.0,0.0,0.0,0.0,0.0,0.0,0.0,0.0,0.0,0.0,0.0,0.0,0.0,0.0,0.0,0.0,0.0,0.0,0.0,5.6219,5.6703,5.7733,5.8841,5.9375,5.9375,5.8347,5.8276,5.9375,5.8701,5.9445,6.1611,6.2042,6.2175,6.2175,6.1746,6.2014,6.2773,6.2375,6.2802,6.3684,6.2175,6.0934,6.0,6.0,6.0893,6.2242,6.2641,6.3459,6.4361,6.4361,6.4361,6.4361,6.4361,6.4647,6.4996,6.4996,6.4996,6.4996,6.4996,6.4996,6.4996,6.4996,6.4996,6.4996,6.4996,6.4996,6.4996,6.4996,6.4996,6.4996,6.4996,6.4996,6.4996,6.4996,6.4996,6.4996,6.4996,6.4996,6.4996,6.4996,6.4996,6.4996,6.4996,6.4996,6.4996,6.4996,6.4996,6.4909,6.4735,6.4959,6.4919,6.4646,6.4776,6.4693,6.4457,6.4038,6.3679,6.362,6.3288,6.3079,6.2963,6.2963,6.2963,6.2733,6.2643,0.0,0.0,0.0,0.0,6.147,6.1413,6.1097,0.0,0.0,0.0,0.0,0.0,0.0,0.0,0.0,0.0,0.0,0.0,0.0,0.0,0.0,0.0,0.0,5.7112,5.7112,5.7112,5.7112,5.7518,5.8347,5.9236,5.9931,6.0551,5.9793,5.9723,6.062,6.0345,6.107,6.2773,6.3394,6.3749,6.3684,6.3066,6.3131,6.3684,6.3066,6.3684,6.4903,6.4074,6.2868,6.1504,6.1504,6.2042,6.284,6.3459,6.4296,6.4996,6.4996,6.4996,6.4996,6.4996,6.4996,6.4996,6.4996,6.4996,6.4996,6.4996,6.5124,6.5187,6.506,6.5124,6.5158,6.506,6.4996,6.4996,6.4996,6.4996,6.4996,6.4996,6.4996,6.4996,6.4996,6.4996,6.4996,6.4996,6.4996,6.4996,6.4996,6.4996,6.4996,6.4996,6.4996,6.506,6.5158,6.5222,6.5314,6.5441,6.563,6.5706,6.5604,6.5551,6.5469,6.5443,6.4784,6.4276,6.4006,6.3378,6.3079,6.3079,6.3079,6.3079,6.4154,6.4154,6.4122,0.0,0.0,0.0,6.2522,6.2651,6.2707,6.1233,0.0,0.0,0.0,0.0,0.0,0.0,0.0,0.0,0.0,0.0,0.0,0.0,0.0,0.0,5.863,5.8489,5.8489,5.863,5.8841,5.8885,5.8885,5.9026,5.9723,6.1029,6.0961,6.0893,6.1097,6.2242,6.2906,6.3037,6.4361,6.4996,6.4996,6.3684,6.3749,6.4932,6.359,6.3814,6.4996,6.4996,6.4232,6.3037,6.3037,6.3037,6.3197,6.449,6.4996,6.4996,6.4996,6.4996,6.4996,6.4996,6.4996,6.4996,6.4996,6.4996,6.4996,6.506,6.5285,6.5412,6.5187,6.5285,6.5412,6.5124,6.506,6.506,6.506,6.5094,6.5124,6.506,6.506,6.506,6.506,6.506,6.506,6.506,6.506,6.506,6.4996,6.506,6.506,6.4996,6.506,6.5187,6.5475,6.5538,6.5664,6.5945,6.6007,6.6195,6.6506,6.5941,6.5827,6.6131,6.5473,6.4814,6.4126,6.3498,6.3139,6.3079,6.3079,6.3079,0.0,0.0,0.0,0.0,0.0,0.0,6.448,6.4852,6.4874,0.0,0.0,0.0,0.0,0.0,0.0,0.0,0.0,0.0,0.0,0.0,0.0,0.0,0.0,0.0,6.0139,5.9096,5.8912,6.007,6.1273,6.1947,6.1947,6.3066,6.3814,6.4102,6.3,6.2934,6.4102,6.3263,6.3394,6.4583,6.4839,6.4996,6.4996,6.4711,6.4711,6.4996,6.4711,6.4711,6.4996,6.4996,6.4839,6.4583,6.4583,6.4583,6.4647,6.4903,6.4996,6.4996,6.4996,6.4996,6.4996,6.4996,6.4996,6.4996,6.4996,6.4996,6.506,6.5348,6.5475,6.5538,6.5756,6.5694,6.5475,6.5412,6.5412,6.5412,6.5412,6.563,6.5756,6.5475,6.5412,6.5412,6.5412,6.5412,6.5412,6.5412,6.5412,6.5285,6.506,6.5222,6.5285,6.506,6.5222,6.5412,6.5475,6.5756,6.5945,6.6007,6.6257,6.6444,6.6506,6.6634,6.6728,6.6789,6.6161,6.5473,6.4814,6.4156,6.3558,6.3079,6.3079,6.3079,0.0,0.0,0.0,6.5403,0.0,0.0,0.0,6.5772,6.5756,0.0,0.0,0.0,0.0,0.0,0.0,0.0,0.0,0.0,0.0,0.0,0.0,0.0,0.0,0.0,6.1706,6.1002,6.0866,6.1639,6.2375,6.2773,6.2773,6.3525,6.4232,6.4996,6.4296,6.4232,6.4996,6.4296,6.4296,6.4996,6.4996,6.4996,6.4996,6.4996,6.4996,6.4996,6.4996,6.4996,6.4996,6.4996,6.4996,6.4996,6.4996,6.4996,6.4996,6.4996,6.4996,6.4996,6.4996,6.4996,6.4996,6.4996,6.5094,6.5222,6.5222,6.5378,6.5567,6.5694,6.5882,6.6007,6.6007,6.6007,6.5978,6.5819,6.5756,6.5756,6.5756,6.5882,6.5945,6.5819,6.5853,6.5853,6.5538,6.5475,6.5538,6.5756,6.5601,6.5475,6.5504,6.5475,6.5475,6.5504,6.5475,6.5664,6.5978,6.6132,6.6319,6.6506,6.6691,6.6753,6.6753,6.6937,6.6999,6.6999,6.667,6.6161,6.5533,6.5173,6.4485,6.3528,6.3528,6.3378,0.0,0.0,0.0,0.0,0.0,6.6506,0.0,0.0,0.0,0.0,0.0,0.0,0.0,0.0,0.0,0.0,0.0,0.0,0.0,0.0,0.0,0.0,0.0,0.0,0.0,6.3197,6.3131,6.284,6.3037,6.3197,6.3197,6.3197,6.3749,6.4996,6.4996,6.4996,6.4996,6.4996,6.4996,6.4996,6.4996,6.4996,6.4996,6.4996,6.4996,6.4996,6.4996,6.4996,6.4996,6.4996,6.4996,6.4996,6.4996,6.4996,6.4996,6.4996,6.4996,6.4996,6.5031,6.506,6.4996,6.506,6.5285,6.5538,6.5601,6.5819,6.6007,6.607,6.6319,6.6444,6.6257,6.6319,6.6444,6.6132,6.607,6.607,6.607,6.6132,6.6195,6.6132,6.6382,6.6382,6.579,6.5664,6.579,6.607,6.5882,6.5727,6.5945,6.5819,6.579,6.5945,6.5819,6.5915,6.6444,6.6568,6.6691,6.6999,6.6999,6.6999,6.6999,6.6999,6.6999,6.6999,6.6999,6.6729,6.6191,6.6191,6.5503,6.4186,6.4186,6.3857,0.0,0.0,0.0,0.0,6.6937,0.0,0.0,0.0,0.0,0.0,0.0,0.0,0.0,0.0,0.0,0.0,0.0,0.0,0.0,0.0,0.0,0.0,0.0,0.0,0.0,6.4775,6.4232,6.2906,6.4009,6.4775,6.4775,6.4775,6.4839,6.4996,6.4996,6.4996,6.4996,6.4996,6.4996,6.4996,6.4996,6.4996,6.4996,6.4996,6.4996,6.4996,6.4996,6.4996,6.4996,6.4996,6.4996,6.4996,6.4996,6.4996,6.4996,6.4996,6.4996,6.506,6.5348,6.5222,6.506,6.5348,6.5475,6.5538,6.5882,6.5945,6.607,6.6382,6.6444,6.6568,6.6814,6.6691,6.6506,6.6444,6.6444,6.6444,6.6444,6.6691,6.6814,6.6506,6.6691,6.6814,6.6444,6.6382,6.6382,6.6444,6.6444,6.6319,6.6007,6.6257,6.6319,6.6007,6.6257,6.6444,6.6506,6.6753,6.6937,6.6999,6.6999,6.6999,6.6999,6.6999,6.6999,6.6999,6.6999,6.6939,6.6879,6.6879,6.6191,6.4904,6.4904,6.4545,0.0,0.0,0.0,0.0,0.0,0.0,6.6937,0.0,6.6937,0.0,0.0,0.0,0.0,0.0,0.0,0.0,0.0,0.0,0.0,0.0,0.0,0.0,0.0,0.0,0.0,0.0,0.0,0.0,6.4647,6.4996,6.4996,6.4996,6.4996,6.4996,6.4996,6.4996,6.4996,6.4996,6.4996,6.4996,6.4996,6.4996,6.4996,6.4996,6.4996,6.4996,6.4996,6.4996,6.4996,6.4996,6.5094,6.5285,6.5285,6.5158,6.4996,6.4996,6.5094,6.5285,6.5475,6.5538,6.563,6.5978,6.604,6.6103,6.6506,6.6568,6.6629,6.6753,6.6814,6.6814,6.6999,6.6876,6.6814,6.6814,6.6814,6.6814,6.6814,6.6937,6.6937,6.6814,6.6937,6.6937,6.6814,6.6629,6.6568,6.6753,6.6629,6.6506,6.6568,6.6506,6.6506,6.6568,6.6506,6.6568,6.6753,6.6937,6.6999,6.6999,6.6999,6.6999,6.6999,6.6999,6.6999,6.6999,6.6999,6.6999,6.6999,6.6999,6.67,6.6161,6.5772,6.5233,6.6661,0.0,0.0,0.0,0.0,0.0,0.0,0.0,0.0,0.0,0.0,0.0,0.0,0.0,0.0,0.0,0.0,0.0,0.0,0.0,0.0,0.0,0.0,0.0,0.0,0.0,0.0,0.0,0.0,6.4996,6.4996,6.4996,6.4996,6.4996,6.4996,6.4996,6.4996,6.4996,6.4996,6.4996,6.4996,6.4996,6.4996,6.4996,6.4996,6.4996,6.4996,6.4996,6.4996,6.5124,6.5285,6.5538,6.5601,6.5475,6.5251,6.5251,6.5348,6.5538,6.5727,6.5945,6.6195,6.6444,6.6506,6.6568,6.6937,6.6999,6.6999,6.6999,6.6999,6.6999,6.6999,6.6999,6.6999,6.6999,6.6999,6.6999,6.6999,6.6999,6.6999,6.6999,6.6999,6.6999,6.6999,6.6814,6.6753,6.6999,6.6814,6.6753,6.6999,6.6814,6.6753,6.6999,6.6814,6.6753,6.6999,6.6999,6.6999,6.6999,6.6999,6.6999,6.6999,6.6999,6.6999,6.6999,6.6999,6.6999,6.6999,6.6999,6.6999,6.6969,6.649,6.5922,0.0,0.0,0.0,6.6999,0.0,0.0,0.0,0.0,6.6999,0.0,0.0,0.0,0.0,0.0,0.0,6.4425,0.0,0.0,0.0,0.0,0.0,0.0,0.0,0.0,0.0,0.0,0.0,0.0,0.0,0.0,6.4996,6.4996,6.4996,6.4996,6.4996,6.4996,6.4996,6.4996,6.4996,6.4996,6.4996,6.4996,6.4996,6.4996,6.4996,6.4996,6.4996,6.4996,6.506,6.5348,6.5475,6.5538,6.5882,6.5945,6.5945,6.5945,6.5756,6.5601,6.6228,6.6506,6.6506,6.6506,6.6506,6.6568,6.6937,6.6999,6.6999,6.6999,6.6999,6.6999,6.6999,6.6999,6.6999,6.6999,6.6999,6.6999,6.6999,6.6999,6.6999,6.6999,6.6999,6.6999,6.6999,6.6999,6.6999,6.6999,6.6999,6.6999,6.6999,6.6999,6.6999,6.6999,6.6999,6.6999,6.6999,6.6999,6.6999,6.6999,6.6999,6.6999,6.6999,6.6999,6.6999,6.6999,6.6999,6.6999,6.6999,6.6999,6.6999,6.6999,6.6969,6.661,0.0,0.0,6.6753,6.6937,0.0,0.0,0.0,0.0,0.0,0.0,0.0,0.0,0.0,0.0,6.6759,6.6101,6.5981,0.0,0.0,0.0,0.0,0.0,0.0,0.0,0.0,0.0,0.0,0.0,0.0,0.0,0.0,6.4996,6.4996,6.4996,6.4996,6.4996,6.4996,6.4996,6.4996,6.4996,6.4996,6.4996,6.4996,6.4996,6.4996,6.4996,6.4996,6.4996,6.506,6.5348,6.5601,6.5882,6.6195,6.6319,6.6319,6.607,6.607,6.6257,6.6691,6.6814,6.6814,6.6814,6.6814,6.6876,6.6999,6.6999,6.6999,6.6999,6.6999,6.6999,6.6999,6.6999,6.6999,6.6999,6.6999,6.6999,6.6999,6.6999,6.6999,6.6999,6.6999,6.6999,6.6999,6.6999,6.6999,6.6999,6.6999,6.6999,6.6999,6.6999,6.6999,6.6999,6.6999,6.6999,6.6999,6.6999,6.6999,6.6999,6.6999,6.6999,6.6999,6.6999,6.6999,6.6999,6.6999,6.6999,6.6999,6.6999,6.6999,6.6999,6.6999,6.6879,6.6645,6.6654,0.0,6.6937,6.6876,0.0,6.6937,0.0,0.0,0.0,0.0,0.0,0.0,0.0,0.0,6.6999,6.643,0.0,0.0,6.3771,0.0,0.0,0.0,0.0,0.0,0.0,0.0,0.0,0.0,0.0,0.0,0.0,6.4996,6.4996,6.4996,6.4996,6.4996,6.4996,6.4996,6.4996,6.4996,6.4996,6.4996,6.5094,6.5187,6.5158,6.5314,6.5378,6.5378,6.5727,6.5978,6.6195,6.6568,6.6691,6.6629,6.6444,6.6506,6.6691,6.6937,6.6999,6.6999,6.6999,6.6999,6.6999,6.6999,6.6999,6.6999,6.6999,6.6999,6.6999,6.6999,6.6999,6.6999,6.6999,6.6999,6.6999,6.6999,6.6999,6.6999,6.6999,6.6999,6.6999,6.6999,6.6999,6.6999,6.6999,6.6999,6.6999,6.6999,6.6999,6.6999,6.6999,6.6999,6.6999,6.6999,6.6999,6.6999,6.6999,6.6999,6.6999,6.6999,6.6999,6.7089,6.7328,6.7119,6.7119,6.7328,6.7119,6.6999,6.6999,6.6999,6.6999]}]]